Wetterdaten: Samstag, 20.05.2017
Datum Zeit Temp. A. Pool Temp. Feuchte A. Luftdruck Regen Wind Richtung Richtung Sonnenschein ET UV Solar Taupunkt Windchill Windben Empfang
20.05.2017 00:01 11,9 C 23,3 C 84 % 1015,7 hPa 0,0 l/m 19,3 km/h (3 Bft) S-SW 212 0 min 0,000 mm 0,0 UV-I 0 W/m 9,3 C 6,0 C 27,4 km/h (4 Bft) 100,00 %
20.05.2017 00:04 11,9 C 23,3 C 84 % 1015,8 hPa 0,0 l/m 18,1 km/h (3 Bft) W-SW 256 0 min 0,000 mm 0,0 UV-I 0 W/m 9,3 C 6,3 C 30,6 km/h (5 Bft) 9,09 %
20.05.2017 00:06 11,8 C 23,3 C 84 % 1015,9 hPa 0,0 l/m 19,6 km/h (3 Bft) SW 220 0 min 0,000 mm 0,0 UV-I 0 W/m 9,2 C 5,7 C 27,4 km/h (4 Bft) 95,45 %
20.05.2017 00:08 11,8 C 23,3 C 84 % 1015,9 hPa 0,0 l/m 18,7 km/h (3 Bft) SW 220 0 min 0,000 mm 0,0 UV-I 0 W/m 9,2 C 6,0 C 32,2 km/h (5 Bft) 92,68 %
20.05.2017 00:10 11,8 C 23,3 C 84 % 1015,9 hPa 0,0 l/m 17,4 km/h (3 Bft) SW 221 0 min 0,000 mm 0,0 UV-I 0 W/m 9,2 C 6,4 C 29,0 km/h (5 Bft) 98,11 %
20.05.2017 00:12 11,8 C 23,3 C 84 % 1015,9 hPa 0,0 l/m 20,9 km/h (4 Bft) W 261 0 min 0,000 mm 0,0 UV-I 0 W/m 9,2 C 5,3 C 30,6 km/h (5 Bft) 95,12 %
20.05.2017 00:14 11,8 C 23,3 C 84 % 1015,9 hPa 0,0 l/m 16,9 km/h (3 Bft) SW 217 0 min 0,000 mm 0,0 UV-I 0 W/m 9,2 C 6,6 C 27,4 km/h (4 Bft) 98,00 %
20.05.2017 00:16 11,8 C 23,3 C 84 % 1015,9 hPa 0,0 l/m 19,5 km/h (3 Bft) W-SW 250 0 min 0,000 mm 0,0 UV-I 0 W/m 9,2 C 5,8 C 30,6 km/h (5 Bft) 98,00 %
20.05.2017 00:18 11,8 C 23,3 C 84 % 1016,0 hPa 0,0 l/m 15,1 km/h (3 Bft) SW 236 0 min 0,000 mm 0,0 UV-I 0 W/m 9,2 C 7,3 C 25,7 km/h (4 Bft) 97,56 %
20.05.2017 00:20 11,8 C 23,3 C 84 % 1016,0 hPa 0,0 l/m 18,6 km/h (3 Bft) W-SW 255 0 min 0,000 mm 0,0 UV-I 0 W/m 9,2 C 6,0 C 27,4 km/h (4 Bft) 97,37 %
20.05.2017 00:22 11,8 C 23,3 C 84 % 1016,0 hPa 0,0 l/m 19,0 km/h (3 Bft) SW 235 0 min 0,000 mm 0,0 UV-I 0 W/m 9,2 C 5,9 C 29,0 km/h (5 Bft) 98,21 %
20.05.2017 00:24 11,8 C 23,3 C 84 % 1016,0 hPa 0,0 l/m 17,8 km/h (3 Bft) SW 225 0 min 0,000 mm 0,0 UV-I 0 W/m 9,2 C 6,3 C 25,7 km/h (4 Bft) 96,23 %
20.05.2017 00:26 11,8 C 23,3 C 84 % 1016,1 hPa 0,0 l/m 19,5 km/h (3 Bft) W-SW 243 0 min 0,000 mm 0,0 UV-I 0 W/m 9,2 C 5,8 C 29,0 km/h (5 Bft) 97,73 %
20.05.2017 00:28 11,8 C 22,8 C 84 % 1016,1 hPa 0,0 l/m 20,8 km/h (4 Bft) W-SW 240 0 min 0,000 mm 0,0 UV-I 0 W/m 9,2 C 5,4 C 30,6 km/h (5 Bft) 95,12 %
20.05.2017 00:30 11,8 C 22,8 C 84 % 1016,1 hPa 0,0 l/m 18,8 km/h (3 Bft) W-SW 254 0 min 0,000 mm 0,0 UV-I 0 W/m 9,2 C 6,0 C 29,0 km/h (5 Bft) 96,00 %
20.05.2017 00:32 11,8 C 22,8 C 84 % 1016,1 hPa 0,0 l/m 17,6 km/h (3 Bft) SW 225 0 min 0,000 mm 0,0 UV-I 0 W/m 9,2 C 6,4 C 30,6 km/h (5 Bft) 95,45 %
20.05.2017 00:34 11,8 C 22,8 C 84 % 1016,2 hPa 0,0 l/m 20,5 km/h (4 Bft) S-SW 200 0 min 0,000 mm 0,0 UV-I 0 W/m 9,2 C 5,5 C 33,8 km/h (5 Bft) 96,00 %
20.05.2017 00:36 11,7 C 22,8 C 84 % 1016,2 hPa 0,0 l/m 18,5 km/h (3 Bft) W 261 0 min 0,000 mm 0,0 UV-I 0 W/m 9,1 C 6,0 C 32,2 km/h (5 Bft) 95,74 %
20.05.2017 00:38 11,7 C 22,8 C 84 % 1016,2 hPa 0,0 l/m 18,5 km/h (3 Bft) SW 222 0 min 0,000 mm 0,0 UV-I 0 W/m 9,1 C 6,0 C 24,1 km/h (4 Bft) 95,45 %
20.05.2017 00:40 11,7 C 22,8 C 84 % 1016,2 hPa 0,0 l/m 19,9 km/h (4 Bft) W-SW 252 0 min 0,000 mm 0,0 UV-I 0 W/m 9,1 C 5,5 C 29,0 km/h (5 Bft) 100,00 %
20.05.2017 00:42 11,6 C 22,8 C 84 % 1016,3 hPa 0,0 l/m 16,5 km/h (3 Bft) W-SW 240 0 min 0,000 mm 0,0 UV-I 0 W/m 9,0 C 6,5 C 25,7 km/h (4 Bft) 97,62 %
20.05.2017 00:44 11,6 C 22,8 C 84 % 1016,3 hPa 0,0 l/m 19,0 km/h (3 Bft) W-SW 245 0 min 0,000 mm 0,0 UV-I 0 W/m 9,0 C 5,7 C 30,6 km/h (5 Bft) 97,87 %
20.05.2017 00:46 11,6 C 22,8 C 84 % 1016,3 hPa 0,0 l/m 19,8 km/h (3 Bft) W-SW 254 0 min 0,000 mm 0,0 UV-I 0 W/m 9,0 C 5,4 C 30,6 km/h (5 Bft) 97,92 %
20.05.2017 00:48 11,6 C 22,8 C 84 % 1016,4 hPa 0,0 l/m 19,2 km/h (3 Bft) W-SW 252 0 min 0,000 mm 0,0 UV-I 0 W/m 9,0 C 5,6 C 29,0 km/h (5 Bft) 97,87 %
20.05.2017 00:50 11,6 C 22,8 C 84 % 1016,4 hPa 0,0 l/m 16,9 km/h (3 Bft) W 262 0 min 0,000 mm 0,0 UV-I 0 W/m 9,0 C 6,4 C 38,6 km/h (5 Bft) 100,00 %
20.05.2017 00:52 11,6 C 22,8 C 83 % 1016,4 hPa 0,0 l/m 21,8 km/h (4 Bft) W-SW 247 0 min 0,000 mm 0,0 UV-I 0 W/m 8,8 C 4,8 C 33,8 km/h (5 Bft) 97,73 %
20.05.2017 00:54 11,5 C 22,8 C 83 % 1016,4 hPa 0,0 l/m 22,6 km/h (4 Bft) S-SW 205 0 min 0,000 mm 0,0 UV-I 0 W/m 8,7 C 4,5 C 35,4 km/h (5 Bft) 100,00 %
20.05.2017 00:56 11,5 C 22,8 C 83 % 1016,4 hPa 0,0 l/m 26,7 km/h (4 Bft) W 267 0 min 0,000 mm 0,0 UV-I 0 W/m 8,7 C 3,5 C 37,0 km/h (5 Bft) 97,37 %
20.05.2017 00:58 11,5 C 22,8 C 82 % 1016,5 hPa 0,0 l/m 26,2 km/h (4 Bft) W-SW 249 0 min 0,000 mm 0,0 UV-I 0 W/m 8,5 C 3,6 C 33,8 km/h (5 Bft) 98,21 %
20.05.2017 01:00 11,5 C 22,8 C 82 % 1016,4 hPa 0,0 l/m 20,6 km/h (4 Bft) W 272 0 min 0,025 mm 0,0 UV-I 0 W/m 8,5 C 5,0 C 32,2 km/h (5 Bft) 94,00 %
20.05.2017 01:02 11,5 C 22,8 C 82 % 1016,5 hPa 0,0 l/m 17,9 km/h (3 Bft) SW 236 0 min 0,000 mm 0,0 UV-I 0 W/m 8,5 C 5,9 C 27,4 km/h (4 Bft) 100,00 %
20.05.2017 01:04 11,6 C 22,8 C 82 % 1016,5 hPa 0,0 l/m 18,7 km/h (3 Bft) W 259 0 min 0,000 mm 0,0 UV-I 0 W/m 8,6 C 5,8 C 29,0 km/h (5 Bft) 96,55 %
20.05.2017 01:06 11,6 C 22,8 C 82 % 1016,6 hPa 0,0 l/m 21,1 km/h (4 Bft) W-SW 248 0 min 0,000 mm 0,0 UV-I 0 W/m 8,6 C 5,0 C 29,0 km/h (5 Bft) 98,31 %
20.05.2017 01:08 11,6 C 22,8 C 82 % 1016,6 hPa 0,0 l/m 16,6 km/h (3 Bft) W 274 0 min 0,000 mm 0,0 UV-I 0 W/m 8,6 C 6,5 C 22,5 km/h (4 Bft) 97,56 %
20.05.2017 01:10 11,6 C 22,8 C 82 % 1016,6 hPa 0,0 l/m 15,8 km/h (3 Bft) W 259 0 min 0,000 mm 0,0 UV-I 0 W/m 8,6 C 6,8 C 29,0 km/h (5 Bft) 95,74 %
20.05.2017 01:12 11,6 C 22,8 C 82 % 1016,5 hPa 0,0 l/m 19,3 km/h (3 Bft) W 259 0 min 0,000 mm 0,0 UV-I 0 W/m 8,6 C 5,6 C 29,0 km/h (5 Bft) 98,00 %
20.05.2017 01:14 11,6 C 22,8 C 82 % 1016,5 hPa 0,0 l/m 20,0 km/h (4 Bft) SW 225 0 min 0,000 mm 0,0 UV-I 0 W/m 8,6 C 5,4 C 30,6 km/h (5 Bft) 95,74 %
20.05.2017 01:16 11,6 C 22,8 C 81 % 1016,5 hPa 0,0 l/m 14,4 km/h (3 Bft) W-SW 257 0 min 0,000 mm 0,0 UV-I 0 W/m 8,5 C 7,3 C 22,5 km/h (4 Bft) 96,00 %
20.05.2017 01:18 11,6 C 22,8 C 81 % 1016,5 hPa 0,0 l/m 20,1 km/h (4 Bft) SW 216 0 min 0,000 mm 0,0 UV-I 0 W/m 8,5 C 5,3 C 32,2 km/h (5 Bft) 95,12 %
20.05.2017 01:20 11,6 C 22,8 C 81 % 1016,6 hPa 0,0 l/m 14,7 km/h (3 Bft) W-SW 248 0 min 0,000 mm 0,0 UV-I 0 W/m 8,5 C 7,2 C 20,9 km/h (4 Bft) 97,62 %
20.05.2017 01:22 11,6 C 22,8 C 81 % 1016,6 hPa 0,0 l/m 19,2 km/h (3 Bft) W 260 0 min 0,000 mm 0,0 UV-I 0 W/m 8,5 C 5,6 C 27,4 km/h (4 Bft) 96,23 %
20.05.2017 01:24 11,6 C 22,8 C 81 % 1016,6 hPa 0,0 l/m 17,1 km/h (3 Bft) W-SW 257 0 min 0,000 mm 0,0 UV-I 0 W/m 8,5 C 6,3 C 27,4 km/h (4 Bft) 94,74 %
20.05.2017 01:26 11,6 C 22,8 C 81 % 1016,6 hPa 0,0 l/m 18,7 km/h (3 Bft) W 264 0 min 0,000 mm 0,0 UV-I 0 W/m 8,5 C 5,8 C 29,0 km/h (5 Bft) 96,23 %
20.05.2017 01:28 11,6 C 22,8 C 81 % 1016,6 hPa 0,0 l/m 17,1 km/h (3 Bft) W 274 0 min 0,000 mm 0,0 UV-I 0 W/m 8,5 C 6,3 C 27,4 km/h (4 Bft) 96,23 %
20.05.2017 01:30 11,6 C 22,8 C 81 % 1016,6 hPa 0,0 l/m 18,7 km/h (3 Bft) W-SW 248 0 min 0,000 mm 0,0 UV-I 0 W/m 8,5 C 5,8 C 29,0 km/h (5 Bft) 97,56 %
20.05.2017 01:32 11,6 C 22,8 C 81 % 1016,6 hPa 0,0 l/m 20,5 km/h (4 Bft) W-SW 246 0 min 0,000 mm 0,0 UV-I 0 W/m 8,5 C 5,2 C 29,0 km/h (5 Bft) 98,21 %
20.05.2017 01:34 11,6 C 22,8 C 81 % 1016,6 hPa 0,0 l/m 16,6 km/h (3 Bft) W-SW 254 0 min 0,000 mm 0,0 UV-I 0 W/m 8,5 C 6,5 C 27,4 km/h (4 Bft) 97,56 %
20.05.2017 01:36 11,6 C 22,8 C 81 % 1016,6 hPa 0,0 l/m 17,9 km/h (3 Bft) W 265 0 min 0,000 mm 0,0 UV-I 0 W/m 8,5 C 6,0 C 29,0 km/h (5 Bft) 98,11 %
20.05.2017 01:38 11,6 C 22,8 C 81 % 1016,6 hPa 0,0 l/m 18,2 km/h (3 Bft) S-SW 211 0 min 0,000 mm 0,0 UV-I 0 W/m 8,5 C 5,9 C 24,1 km/h (4 Bft) 97,73 %
20.05.2017 01:40 11,6 C 22,8 C 81 % 1016,6 hPa 0,0 l/m 14,8 km/h (3 Bft) W-SW 242 0 min 0,000 mm 0,0 UV-I 0 W/m 8,5 C 7,2 C 22,5 km/h (4 Bft) 95,45 %
20.05.2017 01:42 11,5 C 22,8 C 81 % 1016,7 hPa 0,0 l/m 15,7 km/h (3 Bft) SW 235 0 min 0,000 mm 0,0 UV-I 0 W/m 8,4 C 6,7 C 24,1 km/h (4 Bft) 96,23 %
20.05.2017 01:44 11,5 C 22,8 C 81 % 1016,6 hPa 0,0 l/m 18,0 km/h (3 Bft) W-SW 244 0 min 0,000 mm 0,0 UV-I 0 W/m 8,4 C 5,9 C 24,1 km/h (4 Bft) 97,73 %
20.05.2017 01:46 11,5 C 22,8 C 81 % 1016,6 hPa 0,0 l/m 15,4 km/h (3 Bft) W-SW 257 0 min 0,000 mm 0,0 UV-I 0 W/m 8,4 C 6,8 C 20,9 km/h (4 Bft) 97,73 %
20.05.2017 01:48 11,5 C 22,8 C 81 % 1016,6 hPa 0,0 l/m 15,2 km/h (3 Bft) W 268 0 min 0,000 mm 0,0 UV-I 0 W/m 8,4 C 6,9 C 20,9 km/h (4 Bft) 100,00 %
20.05.2017 01:50 11,5 C 22,8 C 81 % 1016,5 hPa 0,0 l/m 15,5 km/h (3 Bft) W 262 0 min 0,000 mm 0,0 UV-I 0 W/m 8,4 C 6,8 C 24,1 km/h (4 Bft) 95,12 %
20.05.2017 01:52 11,5 C 22,8 C 80 % 1016,6 hPa 0,0 l/m 21,3 km/h (4 Bft) W-SW 252 0 min 0,000 mm 0,0 UV-I 0 W/m 8,2 C 4,8 C 30,6 km/h (5 Bft) 100,00 %
20.05.2017 01:54 11,6 C 22,8 C 80 % 1016,6 hPa 0,0 l/m 20,6 km/h (4 Bft) W-SW 240 0 min 0,000 mm 0,0 UV-I 0 W/m 8,3 C 5,2 C 27,4 km/h (4 Bft) 95,24 %
20.05.2017 01:56 11,6 C 22,8 C 80 % 1016,6 hPa 0,0 l/m 16,9 km/h (3 Bft) W 276 0 min 0,000 mm 0,0 UV-I 0 W/m 8,3 C 6,4 C 24,1 km/h (4 Bft) 100,00 %
20.05.2017 01:58 11,6 C 22,8 C 80 % 1016,6 hPa 0,0 l/m 14,4 km/h (3 Bft) W 267 0 min 0,000 mm 0,0 UV-I 0 W/m 8,3 C 7,3 C 19,3 km/h (3 Bft) 100,00 %
20.05.2017 02:00 11,6 C 22,8 C 80 % 1016,6 hPa 0,0 l/m 15,8 km/h (3 Bft) W-SW 256 0 min 0,051 mm 0,0 UV-I 0 W/m 8,3 C 6,8 C 19,3 km/h (3 Bft) 95,74 %
20.05.2017 02:02 11,6 C 22,8 C 80 % 1016,6 hPa 0,0 l/m 14,7 km/h (3 Bft) W 262 0 min 0,000 mm 0,0 UV-I 0 W/m 8,3 C 7,2 C 20,9 km/h (4 Bft) 100,00 %
20.05.2017 02:04 11,6 C 22,8 C 79 % 1016,6 hPa 0,0 l/m 14,2 km/h (3 Bft) W-SW 258 0 min 0,000 mm 0,0 UV-I 0 W/m 8,1 C 7,4 C 17,7 km/h (3 Bft) 98,00 %
20.05.2017 02:06 11,6 C 22,8 C 79 % 1016,6 hPa 0,0 l/m 20,2 km/h (4 Bft) W 267 0 min 0,000 mm 0,0 UV-I 0 W/m 8,1 C 5,3 C 29,0 km/h (5 Bft) 100,00 %
20.05.2017 02:08 11,6 C 22,8 C 79 % 1016,6 hPa 0,0 l/m 16,2 km/h (3 Bft) W 276 0 min 0,000 mm 0,0 UV-I 0 W/m 8,1 C 6,6 C 25,7 km/h (4 Bft) 100,00 %
20.05.2017 02:10 11,6 C 22,8 C 79 % 1016,6 hPa 0,0 l/m 11,8 km/h (2 Bft) W 278 0 min 0,000 mm 0,0 UV-I 0 W/m 8,1 C 8,5 C 27,4 km/h (4 Bft) 100,00 %
20.05.2017 02:12 11,6 C 22,8 C 79 % 1016,6 hPa 0,0 l/m 16,1 km/h (3 Bft) SW 234 0 min 0,000 mm 0,0 UV-I 0 W/m 8,1 C 6,7 C 27,4 km/h (4 Bft) 100,00 %
20.05.2017 02:14 11,6 C 22,8 C 78 % 1016,6 hPa 0,0 l/m 17,1 km/h (3 Bft) W-SW 248 0 min 0,000 mm 0,0 UV-I 0 W/m 7,9 C 6,3 C 24,1 km/h (4 Bft) 100,00 %
20.05.2017 02:16 11,6 C 22,8 C 78 % 1016,6 hPa 0,0 l/m 14,0 km/h (3 Bft) W-SW 252 0 min 0,000 mm 0,0 UV-I 0 W/m 7,9 C 7,5 C 22,5 km/h (4 Bft) 94,74 %
20.05.2017 02:18 11,6 C 22,8 C 78 % 1016,6 hPa 0,0 l/m 12,6 km/h (3 Bft) W-SW 254 0 min 0,000 mm 0,0 UV-I 0 W/m 7,9 C 8,1 C 22,5 km/h (4 Bft) 95,74 %
20.05.2017 02:20 11,6 C 22,8 C 79 % 1016,5 hPa 0,0 l/m 12,3 km/h (3 Bft) W-SW 248 0 min 0,000 mm 0,0 UV-I 0 W/m 8,1 C 8,2 C 19,3 km/h (3 Bft) 100,00 %
20.05.2017 02:22 11,6 C 22,8 C 79 % 1016,6 hPa 0,0 l/m 9,6 km/h (2 Bft) W-SW 254 0 min 0,000 mm 0,0 UV-I 0 W/m 8,1 C 9,6 C 12,9 km/h (3 Bft) 100,00 %
20.05.2017 02:24 11,6 C 22,8 C 79 % 1016,6 hPa 0,0 l/m 11,5 km/h (2 Bft) W 261 0 min 0,000 mm 0,0 UV-I 0 W/m 8,1 C 8,6 C 19,3 km/h (3 Bft) 98,21 %
20.05.2017 02:26 11,6 C 22,8 C 78 % 1016,6 hPa 0,0 l/m 12,6 km/h (3 Bft) W-SW 239 0 min 0,000 mm 0,0 UV-I 0 W/m 7,9 C 8,1 C 20,9 km/h (4 Bft) 97,87 %
20.05.2017 02:28 11,6 C 22,8 C 78 % 1016,6 hPa 0,0 l/m 16,7 km/h (3 Bft) W-SW 254 0 min 0,000 mm 0,0 UV-I 0 W/m 7,9 C 6,4 C 27,4 km/h (4 Bft) 94,74 %
20.05.2017 02:30 11,6 C 22,8 C 78 % 1016,6 hPa 0,0 l/m 15,3 km/h (3 Bft) W-SW 250 0 min 0,000 mm 0,0 UV-I 0 W/m 7,9 C 7,0 C 20,9 km/h (4 Bft) 96,23 %
20.05.2017 02:32 11,6 C 22,8 C 78 % 1016,6 hPa 0,0 l/m 11,9 km/h (2 Bft) W-SW 244 0 min 0,000 mm 0,0 UV-I 0 W/m 7,9 C 8,4 C 17,7 km/h (3 Bft) 98,00 %
20.05.2017 02:34 11,6 C 22,8 C 77 % 1016,6 hPa 0,0 l/m 13,9 km/h (3 Bft) W-SW 254 0 min 0,000 mm 0,0 UV-I 0 W/m 7,7 C 7,5 C 22,5 km/h (4 Bft) 97,56 %
20.05.2017 02:36 11,6 C 22,8 C 77 % 1016,6 hPa 0,0 l/m 14,9 km/h (3 Bft) W-SW 252 0 min 0,000 mm 0,0 UV-I 0 W/m 7,7 C 7,1 C 19,3 km/h (3 Bft) 100,00 %
20.05.2017 02:38 11,6 C 22,8 C 77 % 1016,6 hPa 0,0 l/m 14,0 km/h (3 Bft) W-SW 251 0 min 0,000 mm 0,0 UV-I 0 W/m 7,7 C 7,5 C 20,9 km/h (4 Bft) 97,73 %
20.05.2017 02:40 11,6 C 22,8 C 77 % 1016,7 hPa 0,0 l/m 13,5 km/h (3 Bft) W-SW 248 0 min 0,000 mm 0,0 UV-I 0 W/m 7,7 C 7,7 C 19,3 km/h (3 Bft) 100,00 %
20.05.2017 02:42 11,6 C 22,8 C 77 % 1016,7 hPa 0,0 l/m 14,9 km/h (3 Bft) W-SW 253 0 min 0,000 mm 0,0 UV-I 0 W/m 7,7 C 7,1 C 24,1 km/h (4 Bft) 94,44 %
20.05.2017 02:44 11,5 C 22,8 C 76 % 1016,7 hPa 0,0 l/m 16,0 km/h (3 Bft) W-SW 247 0 min 0,000 mm 0,0 UV-I 0 W/m 7,4 C 6,6 C 22,5 km/h (4 Bft) 98,11 %
20.05.2017 02:46 11,5 C 22,8 C 76 % 1016,7 hPa 0,0 l/m 18,4 km/h (3 Bft) W 259 0 min 0,000 mm 0,0 UV-I 0 W/m 7,4 C 5,7 C 30,6 km/h (5 Bft) 98,21 %
20.05.2017 02:48 11,5 C 22,8 C 76 % 1016,8 hPa 0,0 l/m 18,7 km/h (3 Bft) W-SW 256 0 min 0,000 mm 0,0 UV-I 0 W/m 7,4 C 5,6 C 25,7 km/h (4 Bft) 97,56 %
20.05.2017 02:50 11,4 C 22,8 C 76 % 1016,7 hPa 0,0 l/m 14,6 km/h (3 Bft) W-SW 253 0 min 0,000 mm 0,0 UV-I 0 W/m 7,3 C 7,0 C 20,9 km/h (4 Bft) 100,00 %
20.05.2017 02:52 11,4 C 22,8 C 76 % 1016,8 hPa 0,0 l/m 14,4 km/h (3 Bft) SW 234 0 min 0,000 mm 0,0 UV-I 0 W/m 7,3 C 7,1 C 24,1 km/h (4 Bft) 98,21 %
20.05.2017 02:54 11,4 C 22,8 C 76 % 1016,7 hPa 0,0 l/m 17,0 km/h (3 Bft) W 267 0 min 0,000 mm 0,0 UV-I 0 W/m 7,3 C 6,1 C 25,7 km/h (4 Bft) 100,00 %
20.05.2017 02:56 11,4 C 22,8 C 76 % 1016,7 hPa 0,0 l/m 17,5 km/h (3 Bft) SW 224 0 min 0,000 mm 0,0 UV-I 0 W/m 7,3 C 5,9 C 25,7 km/h (4 Bft) 98,11 %
20.05.2017 02:58 11,4 C 22,8 C 76 % 1016,8 hPa 0,0 l/m 17,0 km/h (3 Bft) W-SW 256 0 min 0,000 mm 0,0 UV-I 0 W/m 7,3 C 6,1 C 24,1 km/h (4 Bft) 97,37 %
20.05.2017 03:00 11,4 C 22,8 C 76 % 1016,8 hPa 0,0 l/m 14,0 km/h (3 Bft) W-SW 254 0 min 0,051 mm 0,0 UV-I 0 W/m 7,3 C 7,2 C 24,1 km/h (4 Bft) 100,00 %
20.05.2017 03:02 11,4 C 22,8 C 76 % 1016,8 hPa 0,0 l/m 15,6 km/h (3 Bft) S-SW 209 0 min 0,000 mm 0,0 UV-I 0 W/m 7,3 C 6,6 C 24,1 km/h (4 Bft) 100,00 %
20.05.2017 03:04 11,3 C 22,8 C 76 % 1016,8 hPa 0,0 l/m 14,3 km/h (3 Bft) W-SW 251 0 min 0,000 mm 0,0 UV-I 0 W/m 7,2 C 7,0 C 20,9 km/h (4 Bft) 97,56 %
20.05.2017 03:06 11,3 C 22,8 C 76 % 1016,7 hPa 0,0 l/m 19,4 km/h (3 Bft) W 275 0 min 0,000 mm 0,0 UV-I 0 W/m 7,2 C 5,2 C 33,8 km/h (5 Bft) 96,23 %
20.05.2017 03:08 11,3 C 22,2 C 76 % 1016,8 hPa 0,0 l/m 18,3 km/h (3 Bft) SW 230 0 min 0,000 mm 0,0 UV-I 0 W/m 7,2 C 5,5 C 27,4 km/h (4 Bft) 100,00 %
20.05.2017 03:10 11,3 C 22,8 C 76 % 1016,8 hPa 0,0 l/m 14,2 km/h (3 Bft) W-SW 242 0 min 0,000 mm 0,0 UV-I 0 W/m 7,2 C 7,0 C 24,1 km/h (4 Bft) 96,23 %
20.05.2017 03:12 11,3 C 22,2 C 77 % 1016,8 hPa 0,0 l/m 14,2 km/h (3 Bft) SW 231 0 min 0,000 mm 0,0 UV-I 0 W/m 7,4 C 7,0 C 20,9 km/h (4 Bft) 97,37 %
20.05.2017 03:14 11,3 C 22,8 C 77 % 1016,8 hPa 0,0 l/m 10,9 km/h (2 Bft) W-NW 292 0 min 0,000 mm 0,0 UV-I 0 W/m 7,4 C 8,6 C 22,5 km/h (4 Bft) 95,45 %
20.05.2017 03:16 11,2 C 22,8 C 77 % 1016,9 hPa 0,0 l/m 11,0 km/h (2 Bft) W-SW 254 0 min 0,000 mm 0,0 UV-I 0 W/m 7,3 C 8,4 C 19,3 km/h (3 Bft) 98,11 %
20.05.2017 03:18 11,2 C 22,8 C 77 % 1016,9 hPa 0,0 l/m 14,2 km/h (3 Bft) W 260 0 min 0,000 mm 0,0 UV-I 0 W/m 7,3 C 6,9 C 19,3 km/h (3 Bft) 92,86 %
20.05.2017 03:20 11,2 C 22,8 C 77 % 1016,9 hPa 0,0 l/m 13,5 km/h (3 Bft) W-SW 238 0 min 0,000 mm 0,0 UV-I 0 W/m 7,3 C 7,2 C 19,3 km/h (3 Bft) 92,00 %
20.05.2017 03:22 11,2 C 22,2 C 77 % 1016,8 hPa 0,0 l/m 15,1 km/h (3 Bft) W-SW 242 0 min 0,000 mm 0,0 UV-I 0 W/m 7,3 C 6,5 C 22,5 km/h (4 Bft) 95,12 %
20.05.2017 03:24 11,2 C 22,2 C 77 % 1016,8 hPa 0,0 l/m 14,8 km/h (3 Bft) W-SW 254 0 min 0,000 mm 0,0 UV-I 0 W/m 7,3 C 6,7 C 24,1 km/h (4 Bft) 96,23 %
20.05.2017 03:26 11,2 C 22,2 C 76 % 1016,8 hPa 0,0 l/m 17,3 km/h (3 Bft) W-SW 257 0 min 0,000 mm 0,0 UV-I 0 W/m 7,1 C 5,7 C 24,1 km/h (4 Bft) 91,49 %
20.05.2017 03:28 11,2 C 22,2 C 77 % 1016,9 hPa 0,0 l/m 14,1 km/h (3 Bft) SW 231 0 min 0,000 mm 0,0 UV-I 0 W/m 7,3 C 7,0 C 20,9 km/h (4 Bft) 94,34 %
20.05.2017 03:30 11,2 C 22,2 C 77 % 1016,9 hPa 0,0 l/m 15,3 km/h (3 Bft) W-SW 250 0 min 0,000 mm 0,0 UV-I 0 W/m 7,3 C 6,5 C 22,5 km/h (4 Bft) 91,43 %
20.05.2017 03:32 11,2 C 22,2 C 77 % 1016,9 hPa 0,0 l/m 14,8 km/h (3 Bft) W-SW 248 0 min 0,000 mm 0,0 UV-I 0 W/m 7,3 C 6,7 C 22,5 km/h (4 Bft) 92,86 %
20.05.2017 03:34 11,1 C 22,2 C 77 % 1016,9 hPa 0,0 l/m 14,7 km/h (3 Bft) W 272 0 min 0,000 mm 0,0 UV-I 0 W/m 7,2 C 6,6 C 20,9 km/h (4 Bft) 96,00 %
20.05.2017 03:36 11,1 C 22,2 C 77 % 1016,9 hPa 0,0 l/m 15,3 km/h (3 Bft) SW 236 0 min 0,000 mm 0,0 UV-I 0 W/m 7,2 C 6,3 C 22,5 km/h (4 Bft) 90,24 %
20.05.2017 03:38 11,1 C 22,2 C 76 % 1016,9 hPa 0,0 l/m 16,0 km/h (3 Bft) W-SW 252 0 min 0,000 mm 0,0 UV-I 0 W/m 7,0 C 6,1 C 25,7 km/h (4 Bft) 96,00 %
20.05.2017 03:40 11,1 C 22,2 C 76 % 1016,9 hPa 0,0 l/m 15,1 km/h (3 Bft) W 261 0 min 0,000 mm 0,0 UV-I 0 W/m 7,0 C 6,4 C 22,5 km/h (4 Bft) 93,62 %
20.05.2017 03:42 11,1 C 22,2 C 76 % 1016,9 hPa 0,0 l/m 17,6 km/h (3 Bft) SW 214 0 min 0,000 mm 0,0 UV-I 0 W/m 7,0 C 5,5 C 25,7 km/h (4 Bft) 94,74 %
20.05.2017 03:44 11,1 C 22,2 C 76 % 1016,9 hPa 0,0 l/m 16,5 km/h (3 Bft) W-SW 257 0 min 0,000 mm 0,0 UV-I 0 W/m 7,0 C 5,9 C 24,1 km/h (4 Bft) 92,45 %
20.05.2017 03:46 11,1 C 22,2 C 76 % 1016,9 hPa 0,0 l/m 17,2 km/h (3 Bft) SW 232 0 min 0,000 mm 0,0 UV-I 0 W/m 7,0 C 5,6 C 25,7 km/h (4 Bft) 95,45 %
20.05.2017 03:48 11,1 C 22,2 C 76 % 1016,9 hPa 0,0 l/m 19,7 km/h (3 Bft) W-SW 252 0 min 0,000 mm 0,0 UV-I 0 W/m 7,0 C 4,8 C 24,1 km/h (4 Bft) 96,23 %
20.05.2017 03:50 11,1 C 22,2 C 76 % 1016,9 hPa 0,0 l/m 14,6 km/h (3 Bft) W 270 0 min 0,000 mm 0,0 UV-I 0 W/m 7,0 C 6,6 C 19,3 km/h (3 Bft) 95,12 %
20.05.2017 03:52 11,1 C 22,2 C 76 % 1017,0 hPa 0,0 l/m 18,9 km/h (3 Bft) W-SW 248 0 min 0,000 mm 0,0 UV-I 0 W/m 7,0 C 5,1 C 25,7 km/h (4 Bft) 98,11 %
20.05.2017 03:54 11,0 C 22,2 C 76 % 1017,0 hPa 0,0 l/m 14,8 km/h (3 Bft) SW 229 0 min 0,000 mm 0,0 UV-I 0 W/m 6,9 C 6,4 C 24,1 km/h (4 Bft) 97,37 %
20.05.2017 03:56 11,0 C 22,2 C 77 % 1017,1 hPa 0,0 l/m 15,6 km/h (3 Bft) W-SW 246 0 min 0,000 mm 0,0 UV-I 0 W/m 7,1 C 6,1 C 24,1 km/h (4 Bft) 94,00 %
20.05.2017 03:58 11,0 C 22,2 C 77 % 1017,0 hPa 0,0 l/m 15,4 km/h (3 Bft) W-SW 240 0 min 0,000 mm 0,0 UV-I 0 W/m 7,1 C 6,2 C 24,1 km/h (4 Bft) 95,74 %
20.05.2017 04:00 10,9 C 22,2 C 77 % 1017,0 hPa 0,0 l/m 16,7 km/h (3 Bft) W-SW 241 0 min 0,051 mm 0,0 UV-I 0 W/m 7,0 C 5,6 C 24,1 km/h (4 Bft) 98,00 %
20.05.2017 04:02 10,9 C 22,2 C 77 % 1017,0 hPa 0,0 l/m 17,6 km/h (3 Bft) S-SW 213 0 min 0,000 mm 0,0 UV-I 0 W/m 7,0 C 5,2 C 20,9 km/h (4 Bft) 88,89 %
20.05.2017 04:04 10,9 C 22,2 C 77 % 1017,0 hPa 0,0 l/m 13,1 km/h (3 Bft) SW 223 0 min 0,000 mm 0,0 UV-I 0 W/m 7,0 C 7,0 C 17,7 km/h (3 Bft) 98,31 %
20.05.2017 04:06 10,9 C 22,2 C 77 % 1017,0 hPa 0,0 l/m 14,6 km/h (3 Bft) W-SW 255 0 min 0,000 mm 0,0 UV-I 0 W/m 7,0 C 6,4 C 20,9 km/h (4 Bft) 96,15 %
20.05.2017 04:08 10,9 C 22,2 C 77 % 1017,0 hPa 0,0 l/m 17,6 km/h (3 Bft) W-SW 246 0 min 0,000 mm 0,0 UV-I 0 W/m 7,0 C 5,2 C 27,4 km/h (4 Bft) 98,46 %
20.05.2017 04:10 10,9 C 22,2 C 77 % 1017,0 hPa 0,0 l/m 15,1 km/h (3 Bft) SW 233 0 min 0,000 mm 0,0 UV-I 0 W/m 7,0 C 6,2 C 22,5 km/h (4 Bft) 98,00 %
20.05.2017 04:12 10,9 C 22,2 C 77 % 1017,0 hPa 0,0 l/m 13,6 km/h (3 Bft) SW 232 0 min 0,000 mm 0,0 UV-I 0 W/m 7,0 C 6,8 C 19,3 km/h (3 Bft) 95,12 %
20.05.2017 04:14 10,9 C 22,2 C 78 % 1017,0 hPa 0,0 l/m 12,8 km/h (3 Bft) S-SW 198 0 min 0,000 mm 0,0 UV-I 0 W/m 7,2 C 7,2 C 19,3 km/h (3 Bft) 94,34 %
20.05.2017 04:16 10,9 C 22,2 C 78 % 1017,0 hPa 0,0 l/m 12,0 km/h (2 Bft) W 259 0 min 0,000 mm 0,0 UV-I 0 W/m 7,2 C 7,6 C 20,9 km/h (4 Bft) 95,00 %
20.05.2017 04:18 10,9 C 22,2 C 78 % 1017,0 hPa 0,0 l/m 12,2 km/h (2 Bft) SW 223 0 min 0,000 mm 0,0 UV-I 0 W/m 7,2 C 7,5 C 22,5 km/h (4 Bft) 95,95 %
20.05.2017 04:20 10,9 C 22,2 C 78 % 1017,0 hPa 0,0 l/m 11,6 km/h (2 Bft) W-SW 250 0 min 0,000 mm 0,0 UV-I 0 W/m 7,2 C 7,7 C 17,7 km/h (3 Bft) 100,00 %
20.05.2017 04:22 10,9 C 22,2 C 78 % 1017,1 hPa 0,0 l/m 11,3 km/h (2 Bft) W-SW 255 0 min 0,000 mm 0,0 UV-I 0 W/m 7,2 C 7,9 C 17,7 km/h (3 Bft) 97,87 %
20.05.2017 04:24 10,9 C 22,2 C 78 % 1017,1 hPa 0,0 l/m 12,8 km/h (3 Bft) W-SW 244 0 min 0,000 mm 0,0 UV-I 0 W/m 7,2 C 7,2 C 16,1 km/h (3 Bft) 100,00 %
20.05.2017 04:26 10,9 C 22,2 C 78 % 1017,1 hPa 0,0 l/m 12,2 km/h (2 Bft) SW 233 0 min 0,000 mm 0,0 UV-I 0 W/m 7,2 C 7,5 C 16,1 km/h (3 Bft) 97,56 %
20.05.2017 04:28 10,8 C 22,2 C 78 % 1017,2 hPa 0,0 l/m 10,3 km/h (2 Bft) W 261 0 min 0,000 mm 0,0 UV-I 0 W/m 7,1 C 8,3 C 12,9 km/h (3 Bft) 96,23 %
20.05.2017 04:30 10,9 C 22,2 C 79 % 1017,1 hPa 0,0 l/m 11,7 km/h (2 Bft) S-SW 206 0 min 0,000 mm 0,0 UV-I 0 W/m 7,4 C 7,7 C 17,7 km/h (3 Bft) 100,00 %
20.05.2017 04:32 10,9 C 22,2 C 79 % 1017,2 hPa 0,0 l/m 11,1 km/h (2 Bft) W-SW 242 0 min 0,000 mm 0,0 UV-I 0 W/m 7,4 C 8,0 C 16,1 km/h (3 Bft) 94,74 %
20.05.2017 04:34 10,8 C 22,2 C 79 % 1017,2 hPa 0,0 l/m 11,1 km/h (2 Bft) W-SW 240 0 min 0,000 mm 0,0 UV-I 0 W/m 7,3 C 7,9 C 17,7 km/h (3 Bft) 100,00 %
20.05.2017 04:36 10,8 C 22,2 C 79 % 1017,2 hPa 0,0 l/m 9,6 km/h (2 Bft) W 277 0 min 0,000 mm 0,0 UV-I 0 W/m 7,3 C 8,7 C 16,1 km/h (3 Bft) 98,11 %
20.05.2017 04:38 10,9 C 22,2 C 79 % 1017,2 hPa 0,0 l/m 10,3 km/h (2 Bft) W-SW 248 0 min 0,000 mm 0,0 UV-I 0 W/m 7,4 C 8,4 C 16,1 km/h (3 Bft) 98,00 %
20.05.2017 04:40 10,8 C 22,2 C 79 % 1017,1 hPa 0,0 l/m 9,7 km/h (2 Bft) W 259 0 min 0,000 mm 0,0 UV-I 0 W/m 7,3 C 8,6 C 16,1 km/h (3 Bft) 100,00 %
20.05.2017 04:42 10,9 C 22,2 C 79 % 1017,1 hPa 0,0 l/m 10,6 km/h (2 Bft) W-SW 240 0 min 0,000 mm 0,0 UV-I 0 W/m 7,4 C 8,3 C 16,1 km/h (3 Bft) 96,92 %
20.05.2017 04:44 10,8 C 22,2 C 79 % 1017,1 hPa 0,0 l/m 11,7 km/h (2 Bft) SW 229 0 min 0,000 mm 0,0 UV-I 0 W/m 7,3 C 7,6 C 16,1 km/h (3 Bft) 100,00 %
20.05.2017 04:46 10,8 C 22,2 C 79 % 1017,1 hPa 0,0 l/m 11,0 km/h (2 Bft) W-SW 238 0 min 0,000 mm 0,0 UV-I 0 W/m 7,3 C 7,9 C 16,1 km/h (3 Bft) 97,56 %
20.05.2017 04:48 10,9 C 22,2 C 80 % 1017,1 hPa 0,0 l/m 9,9 km/h (2 Bft) W-SW 252 0 min 0,000 mm 0,0 UV-I 0 W/m 7,6 C 8,6 C 14,5 km/h (3 Bft) 98,00 %
20.05.2017 04:50 10,8 C 22,2 C 80 % 1017,2 hPa 0,0 l/m 10,5 km/h (2 Bft) W-SW 251 0 min 0,000 mm 0,0 UV-I 0 W/m 7,5 C 8,2 C 16,1 km/h (3 Bft) 100,00 %
20.05.2017 04:52 10,8 C 22,2 C 80 % 1017,1 hPa 0,0 l/m 10,4 km/h (2 Bft) W 266 0 min 0,000 mm 0,0 UV-I 0 W/m 7,5 C 8,3 C 14,5 km/h (3 Bft) 100,00 %
20.05.2017 04:54 10,8 C 22,2 C 80 % 1017,1 hPa 0,0 l/m 9,8 km/h (2 Bft) SW 234 0 min 0,000 mm 0,0 UV-I 0 W/m 7,5 C 8,6 C 12,9 km/h (3 Bft) 100,00 %
20.05.2017 04:56 10,8 C 22,2 C 80 % 1017,1 hPa 0,0 l/m 8,4 km/h (2 Bft) W-SW 246 0 min 0,000 mm 0,0 UV-I 0 W/m 7,5 C 9,4 C 14,5 km/h (3 Bft) 97,37 %
20.05.2017 04:58 10,8 C 22,2 C 80 % 1017,1 hPa 0,0 l/m 7,2 km/h (2 Bft) W-SW 242 0 min 0,000 mm 0,0 UV-I 0 W/m 7,5 C 10,2 C 14,5 km/h (3 Bft) 97,87 %
20.05.2017 05:00 10,8 C 22,2 C 80 % 1017,1 hPa 0,0 l/m 10,2 km/h (2 Bft) W-SW 243 0 min 0,025 mm 0,0 UV-I 0 W/m 7,5 C 8,4 C 16,1 km/h (3 Bft) 94,74 %
20.05.2017 05:02 10,8 C 22,2 C 80 % 1017,2 hPa 0,0 l/m 7,5 km/h (2 Bft) W-SW 250 0 min 0,000 mm 0,0 UV-I 0 W/m 7,5 C 10,0 C 11,3 km/h (2 Bft) 100,00 %
20.05.2017 05:04 10,8 C 22,2 C 80 % 1017,2 hPa 0,0 l/m 11,3 km/h (2 Bft) W-SW 256 0 min 0,000 mm 0,0 UV-I 0 W/m 7,5 C 7,8 C 19,3 km/h (3 Bft) 97,73 %
20.05.2017 05:06 10,8 C 22,2 C 80 % 1017,2 hPa 0,0 l/m 10,8 km/h (2 Bft) W-SW 253 0 min 0,000 mm 0,0 UV-I 0 W/m 7,5 C 8,0 C 20,9 km/h (4 Bft) 96,23 %
20.05.2017 05:08 10,8 C 22,2 C 80 % 1017,2 hPa 0,0 l/m 9,3 km/h (2 Bft) W-SW 257 0 min 0,000 mm 0,0 UV-I 2 W/m 7,5 C 8,9 C 17,7 km/h (3 Bft) 100,00 %
20.05.2017 05:10 10,8 C 22,2 C 80 % 1017,2 hPa 0,0 l/m 11,2 km/h (2 Bft) W-SW 246 0 min 0,000 mm 0,0 UV-I 5 W/m 7,5 C 7,8 C 16,1 km/h (3 Bft) 95,74 %
20.05.2017 05:12 10,8 C 22,2 C 80 % 1017,2 hPa 0,0 l/m 14,6 km/h (3 Bft) W 270 0 min 0,000 mm 0,0 UV-I 5 W/m 7,5 C 6,3 C 20,9 km/h (4 Bft) 97,87 %
20.05.2017 05:14 10,8 C 22,2 C 80 % 1017,2 hPa 0,0 l/m 16,6 km/h (3 Bft) W-SW 242 0 min 0,000 mm 0,0 UV-I 5 W/m 7,5 C 5,5 C 22,5 km/h (4 Bft) 95,83 %
20.05.2017 05:16 10,8 C 22,2 C 79 % 1017,3 hPa 0,0 l/m 8,0 km/h (2 Bft) W-NW 300 0 min 0,000 mm 0,0 UV-I 5 W/m 7,3 C 9,7 C 19,3 km/h (3 Bft) 97,14 %
20.05.2017 05:18 10,7 C 22,2 C 80 % 1017,3 hPa 0,0 l/m 6,5 km/h (2 Bft) W-SW 252 0 min 0,000 mm 0,0 UV-I 5 W/m 7,4 C 10,7 C 11,3 km/h (2 Bft) 93,75 %
20.05.2017 05:20 10,7 C 22,2 C 80 % 1017,4 hPa 0,0 l/m 5,7 km/h (1 Bft) W-SW 244 0 min 0,000 mm 0,0 UV-I 5 W/m 7,4 C 10,7 C 9,7 km/h (2 Bft) 97,96 %
20.05.2017 05:22 10,7 C 22,2 C 80 % 1017,4 hPa 0,0 l/m 8,8 km/h (2 Bft) W-SW 247 0 min 0,000 mm 0,0 UV-I 6 W/m 7,4 C 9,1 C 20,9 km/h (4 Bft) 93,62 %
20.05.2017 05:24 10,6 C 22,2 C 80 % 1017,4 hPa 0,0 l/m 12,2 km/h (2 Bft) W-SW 244 0 min 0,000 mm 0,0 UV-I 7 W/m 7,3 C 7,1 C 20,9 km/h (4 Bft) 95,83 %
20.05.2017 05:26 10,6 C 22,2 C 80 % 1017,5 hPa 0,0 l/m 9,2 km/h (2 Bft) W-SW 252 0 min 0,000 mm 0,0 UV-I 7 W/m 7,3 C 8,7 C 16,1 km/h (3 Bft) 97,14 %
20.05.2017 05:28 10,6 C 22,2 C 80 % 1017,4 hPa 0,0 l/m 8,8 km/h (2 Bft) W 261 0 min 0,000 mm 0,0 UV-I 8 W/m 7,3 C 9,0 C 14,5 km/h (3 Bft) 94,92 %
20.05.2017 05:30 10,6 C 22,2 C 80 % 1017,5 hPa 0,0 l/m 12,0 km/h (2 Bft) W-SW 242 0 min 0,000 mm 0,0 UV-I 10 W/m 7,3 C 7,2 C 16,1 km/h (3 Bft) 97,37 %
20.05.2017 05:32 10,6 C 22,2 C 80 % 1017,4 hPa 0,0 l/m 11,4 km/h (2 Bft) W 261 2 min 0,000 mm 0,0 UV-I 11 W/m 7,3 C 7,5 C 17,7 km/h (3 Bft) 93,62 %
20.05.2017 05:34 10,5 C 22,2 C 80 % 1017,4 hPa 0,0 l/m 8,9 km/h (2 Bft) W-SW 243 0 min 0,000 mm 0,0 UV-I 11 W/m 7,2 C 8,8 C 17,7 km/h (3 Bft) 97,87 %
20.05.2017 05:36 10,5 C 22,2 C 80 % 1017,5 hPa 0,0 l/m 9,7 km/h (2 Bft) W-SW 242 0 min 0,000 mm 0,0 UV-I 11 W/m 7,2 C 8,3 C 16,1 km/h (3 Bft) 94,00 %
20.05.2017 05:38 10,5 C 22,2 C 80 % 1017,5 hPa 0,0 l/m 10,6 km/h (2 Bft) SW 234 0 min 0,000 mm 0,0 UV-I 12 W/m 7,2 C 7,8 C 19,3 km/h (3 Bft) 95,74 %
20.05.2017 05:40 10,4 C 22,2 C 80 % 1017,5 hPa 0,0 l/m 11,1 km/h (2 Bft) W-SW 256 0 min 0,000 mm 0,0 UV-I 12 W/m 7,1 C 7,4 C 16,1 km/h (3 Bft) 97,87 %
20.05.2017 05:42 10,4 C 22,2 C 80 % 1017,5 hPa 0,0 l/m 10,9 km/h (2 Bft) W 263 0 min 0,000 mm 0,0 UV-I 12 W/m 7,1 C 7,5 C 16,1 km/h (3 Bft) 97,56 %
20.05.2017 05:44 10,4 C 22,2 C 81 % 1017,6 hPa 0,0 l/m 8,0 km/h (2 Bft) W-SW 241 0 min 0,000 mm 0,0 UV-I 14 W/m 7,3 C 9,3 C 14,5 km/h (3 Bft) 98,11 %
20.05.2017 05:46 10,3 C 22,2 C 81 % 1017,5 hPa 0,0 l/m 10,1 km/h (2 Bft) W 262 0 min 0,000 mm 0,0 UV-I 14 W/m 7,2 C 7,9 C 17,7 km/h (3 Bft) 97,73 %
20.05.2017 05:48 10,3 C 22,2 C 81 % 1017,5 hPa 0,0 l/m 8,9 km/h (2 Bft) SW 215 0 min 0,000 mm 0,0 UV-I 15 W/m 7,2 C 8,6 C 17,7 km/h (3 Bft) 98,00 %
20.05.2017 05:50 10,3 C 22,2 C 81 % 1017,5 hPa 0,0 l/m 9,3 km/h (2 Bft) W-SW 255 0 min 0,000 mm 0,0 UV-I 17 W/m 7,2 C 8,3 C 16,1 km/h (3 Bft) 97,87 %
20.05.2017 05:52 10,2 C 22,2 C 81 % 1017,6 hPa 0,0 l/m 9,5 km/h (2 Bft) W-SW 244 0 min 0,000 mm 0,0 UV-I 19 W/m 7,1 C 8,1 C 14,5 km/h (3 Bft) 95,74 %
20.05.2017 05:54 10,2 C 22,2 C 81 % 1017,6 hPa 0,0 l/m 8,4 km/h (2 Bft) W-SW 238 0 min 0,000 mm 0,0 UV-I 19 W/m 7,1 C 8,8 C 14,5 km/h (3 Bft) 100,00 %
20.05.2017 05:56 10,1 C 22,2 C 82 % 1017,6 hPa 0,0 l/m 8,5 km/h (2 Bft) W 275 0 min 0,000 mm 0,0 UV-I 20 W/m 7,2 C 8,6 C 14,5 km/h (3 Bft) 96,00 %
20.05.2017 05:58 10,1 C 22,2 C 82 % 1017,6 hPa 0,0 l/m 9,3 km/h (2 Bft) W-SW 242 0 min 0,000 mm 0,0 UV-I 21 W/m 7,2 C 8,1 C 12,9 km/h (3 Bft) 100,00 %
20.05.2017 06:00 10,1 C 22,2 C 82 % 1017,7 hPa 0,0 l/m 11,9 km/h (2 Bft) W-SW 251 0 min 0,026 mm 0,0 UV-I 21 W/m 7,2 C 6,7 C 19,3 km/h (3 Bft) 100,00 %
20.05.2017 06:02 10,1 C 22,2 C 82 % 1017,7 hPa 0,0 l/m 8,2 km/h (2 Bft) W-SW 254 0 min 0,000 mm 0,0 UV-I 21 W/m 7,2 C 8,8 C 11,3 km/h (2 Bft) 100,00 %
20.05.2017 06:04 10,0 C 22,2 C 83 % 1017,8 hPa 0,0 l/m 7,8 km/h (2 Bft) W 267 0 min 0,000 mm 0,0 UV-I 23 W/m 7,2 C 9,0 C 12,9 km/h (3 Bft) 96,43 %
20.05.2017 06:06 9,9 C 22,2 C 83 % 1017,8 hPa 0,0 l/m 8,3 km/h (2 Bft) W 259 0 min 0,000 mm 0,0 UV-I 25 W/m 7,2 C 8,5 C 12,9 km/h (3 Bft) 96,00 %
20.05.2017 06:08 9,9 C 22,2 C 83 % 1017,8 hPa 0,0 l/m 9,4 km/h (2 Bft) W 259 0 min 0,000 mm 0,0 UV-I 25 W/m 7,2 C 7,8 C 14,5 km/h (3 Bft) 97,37 %
20.05.2017 06:10 9,9 C 22,2 C 83 % 1017,8 hPa 0,0 l/m 9,7 km/h (2 Bft) W 260 0 min 0,000 mm 0,0 UV-I 25 W/m 7,2 C 7,7 C 14,5 km/h (3 Bft) 100,00 %
20.05.2017 06:12 9,9 C 21,7 C 83 % 1017,8 hPa 0,0 l/m 10,2 km/h (2 Bft) W-SW 253 0 min 0,000 mm 0,0 UV-I 25 W/m 7,2 C 7,4 C 14,5 km/h (3 Bft) 98,11 %
20.05.2017 06:14 9,9 C 21,7 C 83 % 1017,9 hPa 0,0 l/m 11,7 km/h (2 Bft) SW 236 0 min 0,000 mm 0,0 UV-I 26 W/m 7,2 C 6,6 C 17,7 km/h (3 Bft) 97,37 %
20.05.2017 06:16 9,9 C 21,7 C 82 % 1017,9 hPa 0,0 l/m 10,0 km/h (2 Bft) W 270 0 min 0,000 mm 0,0 UV-I 26 W/m 7,0 C 7,5 C 14,5 km/h (3 Bft) 98,11 %
20.05.2017 06:18 9,8 C 21,7 C 82 % 1017,9 hPa 0,0 l/m 9,5 km/h (2 Bft) SW 236 0 min 0,000 mm 0,0 UV-I 28 W/m 6,9 C 7,7 C 12,9 km/h (3 Bft) 97,73 %
20.05.2017 06:20 9,8 C 21,7 C 82 % 1018,0 hPa 0,0 l/m 8,9 km/h (2 Bft) W-SW 252 0 min 0,000 mm 0,0 UV-I 31 W/m 6,9 C 8,0 C 12,9 km/h (3 Bft) 100,00 %
20.05.2017 06:22 9,8 C 21,7 C 82 % 1018,0 hPa 0,0 l/m 8,2 km/h (2 Bft) SW 236 0 min 0,000 mm 0,0 UV-I 33 W/m 6,9 C 8,5 C 12,9 km/h (3 Bft) 96,00 %
20.05.2017 06:24 9,8 C 21,7 C 82 % 1018,0 hPa 0,0 l/m 7,1 km/h (2 Bft) SW 216 0 min 0,000 mm 0,0 UV-I 36 W/m 6,9 C 9,3 C 12,9 km/h (3 Bft) 100,00 %
20.05.2017 06:26 9,8 C 21,7 C 82 % 1018,0 hPa 0,0 l/m 8,1 km/h (2 Bft) W-SW 248 0 min 0,000 mm 0,0 UV-I 40 W/m 6,9 C 8,6 C 12,9 km/h (3 Bft) 96,00 %
20.05.2017 06:28 9,8 C 21,7 C 82 % 1018,0 hPa 0,0 l/m 9,8 km/h (2 Bft) SW 230 0 min 0,000 mm 0,0 UV-I 44 W/m 6,9 C 7,5 C 16,1 km/h (3 Bft) 95,45 %
20.05.2017 06:30 9,8 C 21,7 C 81 % 1018,0 hPa 0,0 l/m 8,4 km/h (2 Bft) SW 230 0 min 0,000 mm 0,0 UV-I 48 W/m 6,7 C 8,4 C 14,5 km/h (3 Bft) 100,00 %
20.05.2017 06:32 9,8 C 21,7 C 81 % 1018,1 hPa 0,0 l/m 12,2 km/h (2 Bft) W-SW 240 0 min 0,000 mm 0,0 UV-I 52 W/m 6,7 C 6,2 C 19,3 km/h (3 Bft) 96,23 %
20.05.2017 06:34 9,9 C 21,7 C 81 % 1018,2 hPa 0,0 l/m 14,0 km/h (3 Bft) W 263 0 min 0,000 mm 0,0 UV-I 54 W/m 6,8 C 5,4 C 20,9 km/h (4 Bft) 100,00 %
20.05.2017 06:36 9,9 C 21,7 C 81 % 1018,2 hPa 0,0 l/m 14,3 km/h (3 Bft) W-SW 254 0 min 0,000 mm 0,0 UV-I 57 W/m 6,8 C 5,3 C 20,9 km/h (4 Bft) 98,00 %
20.05.2017 06:38 10,0 C 21,7 C 81 % 1018,2 hPa 0,0 l/m 13,2 km/h (3 Bft) W-SW 253 0 min 0,000 mm 0,0 UV-I 62 W/m 6,9 C 5,9 C 17,7 km/h (3 Bft) 98,00 %
20.05.2017 06:40 10,1 C 21,7 C 80 % 1018,2 hPa 0,0 l/m 14,2 km/h (3 Bft) W-SW 257 0 min 0,000 mm 0,0 UV-I 66 W/m 6,8 C 5,6 C 22,5 km/h (4 Bft) 100,00 %
20.05.2017 06:42 10,1 C 21,7 C 80 % 1018,2 hPa 0,0 l/m 15,1 km/h (3 Bft) SW 225 0 min 0,000 mm 0,0 UV-I 78 W/m 6,8 C 5,2 C 25,7 km/h (4 Bft) 98,31 %
20.05.2017 06:44 10,2 C 21,7 C 80 % 1018,2 hPa 0,0 l/m 13,6 km/h (3 Bft) SW 236 0 min 0,000 mm 0,0 UV-I 84 W/m 6,9 C 6,0 C 22,5 km/h (4 Bft) 100,00 %
20.05.2017 06:46 10,2 C 21,7 C 79 % 1018,2 hPa 0,0 l/m 16,8 km/h (3 Bft) SW 233 0 min 0,000 mm 0,0 UV-I 82 W/m 6,7 C 4,7 C 27,4 km/h (4 Bft) 98,11 %
20.05.2017 06:48 10,2 C 21,7 C 79 % 1018,3 hPa 0,0 l/m 13,6 km/h (3 Bft) SW 215 0 min 0,000 mm 0,0 UV-I 89 W/m 6,7 C 6,0 C 17,7 km/h (3 Bft) 100,00 %
20.05.2017 06:50 10,3 C 21,7 C 79 % 1018,3 hPa 0,0 l/m 16,2 km/h (3 Bft) W-SW 255 0 min 0,000 mm 0,0 UV-I 92 W/m 6,8 C 5,0 C 22,5 km/h (4 Bft) 96,00 %
20.05.2017 06:52 10,3 C 21,7 C 79 % 1018,3 hPa 0,0 l/m 15,5 km/h (3 Bft) W-SW 252 0 min 0,000 mm 0,0 UV-I 96 W/m 6,8 C 5,3 C 22,5 km/h (4 Bft) 97,87 %
20.05.2017 06:54 10,3 C 21,7 C 79 % 1018,4 hPa 0,0 l/m 13,2 km/h (3 Bft) W-SW 250 0 min 0,000 mm 0,0 UV-I 101 W/m 6,8 C 6,3 C 19,3 km/h (3 Bft) 97,87 %
20.05.2017 06:56 10,4 C 21,7 C 79 % 1018,4 hPa 0,0 l/m 11,9 km/h (2 Bft) W-SW 250 0 min 0,000 mm 0,0 UV-I 108 W/m 6,9 C 7,0 C 17,7 km/h (3 Bft) 92,00 %
20.05.2017 06:58 10,4 C 21,7 C 78 % 1018,4 hPa 0,0 l/m 15,4 km/h (3 Bft) W-SW 240 0 min 0,000 mm 0,0 UV-I 113 W/m 6,7 C 5,5 C 19,3 km/h (3 Bft) 97,37 %
20.05.2017 07:00 10,4 C 21,7 C 78 % 1018,4 hPa 0,0 l/m 15,8 km/h (3 Bft) W-SW 247 0 min 0,000 mm 0,0 UV-I 127 W/m 6,7 C 5,3 C 25,7 km/h (4 Bft) 96,23 %
20.05.2017 07:02 10,4 C 21,7 C 78 % 1018,5 hPa 0,0 l/m 15,3 km/h (3 Bft) W-SW 246 0 min 0,050 mm 0,0 UV-I 136 W/m 6,7 C 5,5 C 24,1 km/h (4 Bft) 97,56 %
20.05.2017 07:04 10,5 C 21,7 C 78 % 1018,5 hPa 0,0 l/m 11,1 km/h (2 Bft) W-NW 289 2 min 0,000 mm 0,0 UV-I 149 W/m 6,8 C 7,5 C 17,7 km/h (3 Bft) 97,87 %
20.05.2017 07:06 10,6 C 21,7 C 78 % 1018,4 hPa 0,0 l/m 13,5 km/h (3 Bft) W 271 2 min 0,000 mm 0,0 UV-I 217 W/m 6,9 C 6,5 C 27,4 km/h (4 Bft) 94,44 %
20.05.2017 07:08 10,7 C 21,7 C 77 % 1018,5 hPa 0,0 l/m 15,0 km/h (3 Bft) SW 223 2 min 0,000 mm 0,0 UV-I 157 W/m 6,8 C 6,0 C 20,9 km/h (4 Bft) 98,18 %
20.05.2017 07:10 10,7 C 21,7 C 77 % 1018,6 hPa 0,0 l/m 12,4 km/h (3 Bft) SW 226 2 min 0,000 mm 0,0 UV-I 157 W/m 6,8 C 7,1 C 16,1 km/h (3 Bft) 89,29 %
20.05.2017 07:12 10,7 C 21,7 C 77 % 1018,6 hPa 0,0 l/m 9,5 km/h (2 Bft) SW 231 2 min 0,000 mm 0,0 UV-I 160 W/m 6,8 C 8,7 C 16,1 km/h (3 Bft) 95,12 %
20.05.2017 07:14 10,7 C 21,7 C 77 % 1018,6 hPa 0,0 l/m 13,5 km/h (3 Bft) W-NW 292 2 min 0,000 mm 0,0 UV-I 162 W/m 6,8 C 6,6 C 22,5 km/h (4 Bft) 92,45 %
20.05.2017 07:16 10,7 C 21,7 C 77 % 1018,6 hPa 0,0 l/m 14,2 km/h (3 Bft) W 263 2 min 0,000 mm 0,0 UV-I 164 W/m 6,8 C 6,3 C 19,3 km/h (3 Bft) 92,86 %
20.05.2017 07:18 10,8 C 21,7 C 77 % 1018,6 hPa 0,0 l/m 11,5 km/h (2 Bft) W-SW 248 2 min 0,000 mm 0,0 UV-I 168 W/m 6,9 C 7,7 C 16,1 km/h (3 Bft) 93,62 %
20.05.2017 07:20 10,8 C 21,7 C 77 % 1018,6 hPa 0,0 l/m 13,2 km/h (3 Bft) W 273 2 min 0,000 mm 0,0 UV-I 176 W/m 6,9 C 6,9 C 19,3 km/h (3 Bft) 94,34 %
20.05.2017 07:22 10,9 C 21,7 C 77 % 1018,7 hPa 0,0 l/m 12,9 km/h (3 Bft) W-SW 253 2 min 0,000 mm 0,0 UV-I 234 W/m 7,0 C 7,1 C 19,3 km/h (3 Bft) 95,12 %
20.05.2017 07:24 10,9 C 21,7 C 76 % 1018,8 hPa 0,0 l/m 12,5 km/h (3 Bft) SW 214 2 min 0,000 mm 0,2 UV-I 379 W/m 6,8 C 7,3 C 24,1 km/h (4 Bft) 92,00 %
20.05.2017 07:26 11,1 C 21,7 C 76 % 1018,7 hPa 0,0 l/m 8,4 km/h (2 Bft) SW 236 2 min 0,000 mm 0,2 UV-I 341 W/m 7,0 C 9,8 C 14,5 km/h (3 Bft) 97,56 %
20.05.2017 07:28 11,2 C 21,7 C 76 % 1018,7 hPa 0,0 l/m 9,9 km/h (2 Bft) W 261 2 min 0,000 mm 0,3 UV-I 217 W/m 7,1 C 9,0 C 17,7 km/h (3 Bft) 91,07 %
20.05.2017 07:30 11,2 C 21,7 C 76 % 1018,7 hPa 0,0 l/m 11,2 km/h (2 Bft) W-SW 237 2 min 0,000 mm 0,5 UV-I 192 W/m 7,1 C 8,3 C 22,5 km/h (4 Bft) 94,74 %
20.05.2017 07:32 11,1 C 21,7 C 75 % 1018,8 hPa 0,0 l/m 15,0 km/h (3 Bft) W-SW 246 2 min 0,000 mm 0,5 UV-I 235 W/m 6,8 C 6,5 C 25,7 km/h (4 Bft) 90,57 %
20.05.2017 07:34 11,1 C 21,7 C 75 % 1018,7 hPa 0,0 l/m 15,1 km/h (3 Bft) W-SW 257 2 min 0,000 mm 0,5 UV-I 234 W/m 6,8 C 6,4 C 20,9 km/h (4 Bft) 95,12 %
20.05.2017 07:36 11,1 C 21,7 C 75 % 1018,8 hPa 0,0 l/m 14,9 km/h (3 Bft) W-SW 252 2 min 0,000 mm 0,5 UV-I 269 W/m 6,8 C 6,5 C 20,9 km/h (4 Bft) 92,11 %
20.05.2017 07:38 11,2 C 21,7 C 75 % 1018,8 hPa 0,0 l/m 17,4 km/h (3 Bft) W-SW 257 2 min 0,000 mm 0,6 UV-I 350 W/m 6,9 C 5,7 C 24,1 km/h (4 Bft) 96,23 %
20.05.2017 07:40 11,3 C 21,7 C 75 % 1018,8 hPa 0,0 l/m 11,4 km/h (2 Bft) SW 221 2 min 0,000 mm 0,6 UV-I 287 W/m 7,0 C 8,3 C 27,4 km/h (4 Bft) 92,86 %
20.05.2017 07:42 11,2 C 21,7 C 75 % 1018,8 hPa 0,0 l/m 15,1 km/h (3 Bft) SW 215 2 min 0,000 mm 0,5 UV-I 207 W/m 6,9 C 6,5 C 24,1 km/h (4 Bft) 97,73 %
20.05.2017 07:44 11,2 C 21,7 C 75 % 1018,8 hPa 0,0 l/m 13,8 km/h (3 Bft) W 264 2 min 0,000 mm 0,5 UV-I 208 W/m 6,9 C 7,1 C 20,9 km/h (4 Bft) 94,74 %
20.05.2017 07:46 11,2 C 21,7 C 75 % 1018,8 hPa 0,0 l/m 11,1 km/h (2 Bft) W-SW 243 0 min 0,000 mm 0,5 UV-I 206 W/m 6,9 C 8,3 C 17,7 km/h (3 Bft) 94,64 %
20.05.2017 07:48 11,1 C 21,7 C 75 % 1018,8 hPa 0,0 l/m 9,5 km/h (2 Bft) W-SW 257 0 min 0,000 mm 0,6 UV-I 202 W/m 6,8 C 9,1 C 17,7 km/h (3 Bft) 95,12 %
20.05.2017 07:50 11,2 C 21,7 C 75 % 1018,8 hPa 0,0 l/m 11,9 km/h (2 Bft) SW 230 0 min 0,000 mm 0,6 UV-I 198 W/m 6,9 C 7,9 C 17,7 km/h (3 Bft) 98,00 %
20.05.2017 07:52 11,1 C 21,7 C 74 % 1018,8 hPa 0,0 l/m 13,6 km/h (3 Bft) SW 224 0 min 0,000 mm 0,6 UV-I 197 W/m 6,6 C 7,1 C 19,3 km/h (3 Bft) 95,74 %
20.05.2017 07:54 11,1 C 21,7 C 74 % 1018,9 hPa 0,0 l/m 11,4 km/h (2 Bft) SW 234 0 min 0,000 mm 0,6 UV-I 200 W/m 6,6 C 8,1 C 20,9 km/h (4 Bft) 96,23 %
20.05.2017 07:56 11,1 C 21,7 C 74 % 1018,9 hPa 0,0 l/m 13,2 km/h (3 Bft) W 259 0 min 0,000 mm 0,6 UV-I 207 W/m 6,6 C 7,2 C 20,9 km/h (4 Bft) 89,74 %
20.05.2017 07:58 11,0 C 21,7 C 74 % 1018,9 hPa 0,0 l/m 16,3 km/h (3 Bft) SW 236 0 min 0,000 mm 0,6 UV-I 207 W/m 6,5 C 5,8 C 25,7 km/h (4 Bft) 96,36 %
20.05.2017 08:00 11,0 C 21,7 C 74 % 1019,0 hPa 0,0 l/m 17,4 km/h (3 Bft) W 261 0 min 0,000 mm 0,6 UV-I 204 W/m 6,5 C 5,4 C 25,7 km/h (4 Bft) 94,44 %
20.05.2017 08:02 11,0 C 21,7 C 74 % 1019,0 hPa 0,0 l/m 12,0 km/h (2 Bft) W-SW 242 0 min 0,127 mm 0,7 UV-I 208 W/m 6,5 C 7,7 C 19,3 km/h (3 Bft) 100,00 %
20.05.2017 08:04 11,1 C 21,7 C 74 % 1019,0 hPa 0,0 l/m 12,6 km/h (3 Bft) W 273 0 min 0,000 mm 0,7 UV-I 215 W/m 6,6 C 7,5 C 22,5 km/h (4 Bft) 100,00 %
20.05.2017 08:06 11,1 C 21,7 C 74 % 1019,1 hPa 0,0 l/m 14,8 km/h (3 Bft) W-SW 252 0 min 0,000 mm 0,7 UV-I 221 W/m 6,6 C 6,5 C 19,3 km/h (3 Bft) 97,56 %
20.05.2017 08:08 11,1 C 21,7 C 74 % 1019,0 hPa 0,0 l/m 14,7 km/h (3 Bft) W 261 0 min 0,000 mm 0,7 UV-I 224 W/m 6,6 C 6,6 C 20,9 km/h (4 Bft) 95,74 %
20.05.2017 08:10 11,1 C 21,7 C 74 % 1019,1 hPa 0,0 l/m 11,0 km/h (2 Bft) W-SW 240 0 min 0,000 mm 0,7 UV-I 230 W/m 6,6 C 8,3 C 16,1 km/h (3 Bft) 97,73 %
20.05.2017 08:12 11,2 C 21,7 C 75 % 1019,1 hPa 0,0 l/m 7,8 km/h (2 Bft) W 278 0 min 0,000 mm 0,8 UV-I 235 W/m 6,9 C 10,2 C 17,7 km/h (3 Bft) 98,21 %
20.05.2017 08:14 11,2 C 21,7 C 75 % 1019,1 hPa 0,0 l/m 8,0 km/h (2 Bft) W-SW 247 0 min 0,000 mm 0,8 UV-I 241 W/m 6,9 C 10,1 C 16,1 km/h (3 Bft) 100,00 %
20.05.2017 08:16 11,2 C 21,7 C 74 % 1019,1 hPa 0,0 l/m 9,1 km/h (2 Bft) W-NW 284 2 min 0,000 mm 0,8 UV-I 252 W/m 6,7 C 9,4 C 22,5 km/h (4 Bft) 100,00 %
20.05.2017 08:18 11,3 C 21,7 C 74 % 1019,1 hPa 0,0 l/m 8,3 km/h (2 Bft) W-NW 282 2 min 0,000 mm 0,8 UV-I 265 W/m 6,8 C 10,0 C 17,7 km/h (3 Bft) 100,00 %
20.05.2017 08:20 11,3 C 21,7 C 72 % 1019,2 hPa 0,0 l/m 11,2 km/h (2 Bft) W-SW 257 2 min 0,000 mm 0,8 UV-I 284 W/m 6,4 C 8,4 C 19,3 km/h (3 Bft) 100,00 %
20.05.2017 08:22 11,3 C 21,7 C 73 % 1019,2 hPa 0,0 l/m 9,0 km/h (2 Bft) W 260 2 min 0,000 mm 0,8 UV-I 264 W/m 6,6 C 9,6 C 19,3 km/h (3 Bft) 100,00 %
20.05.2017 08:24 11,4 C 21,7 C 73 % 1019,2 hPa 0,0 l/m 7,3 km/h (2 Bft) W-NW 286 2 min 0,000 mm 0,8 UV-I 261 W/m 6,7 C 10,8 C 12,9 km/h (3 Bft) 100,00 %
20.05.2017 08:26 11,4 C 21,7 C 73 % 1019,2 hPa 0,0 l/m 10,6 km/h (2 Bft) W-SW 240 0 min 0,000 mm 0,9 UV-I 258 W/m 6,7 C 8,8 C 16,1 km/h (3 Bft) 100,00 %
20.05.2017 08:28 11,5 C 21,7 C 73 % 1019,2 hPa 0,0 l/m 10,8 km/h (2 Bft) W-SW 237 2 min 0,000 mm 0,9 UV-I 266 W/m 6,8 C 8,8 C 17,7 km/h (3 Bft) 94,00 %
20.05.2017 08:30 11,4 C 21,7 C 72 % 1019,2 hPa 0,0 l/m 9,8 km/h (2 Bft) W-SW 250 2 min 0,000 mm 1,0 UV-I 283 W/m 6,5 C 9,3 C 16,1 km/h (3 Bft) 96,23 %
20.05.2017 08:32 11,5 C 21,7 C 74 % 1019,2 hPa 0,0 l/m 8,0 km/h (2 Bft) SW 236 2 min 0,000 mm 1,0 UV-I 279 W/m 7,0 C 10,4 C 12,9 km/h (3 Bft) 97,87 %
20.05.2017 08:34 11,5 C 21,7 C 73 % 1019,2 hPa 0,0 l/m 9,5 km/h (2 Bft) W-SW 244 2 min 0,000 mm 1,0 UV-I 281 W/m 6,8 C 9,5 C 20,9 km/h (4 Bft) 100,00 %
20.05.2017 08:36 11,5 C 21,7 C 73 % 1019,3 hPa 0,0 l/m 10,9 km/h (2 Bft) SW 220 2 min 0,000 mm 1,0 UV-I 284 W/m 6,8 C 8,8 C 19,3 km/h (3 Bft) 100,00 %
20.05.2017 08:38 11,5 C 21,7 C 74 % 1019,3 hPa 0,0 l/m 9,5 km/h (2 Bft) W-SW 242 2 min 0,000 mm 1,0 UV-I 288 W/m 7,0 C 9,5 C 14,5 km/h (3 Bft) 97,37 %
20.05.2017 08:40 11,6 C 21,7 C 73 % 1019,3 hPa 0,0 l/m 9,5 km/h (2 Bft) W-SW 246 2 min 0,000 mm 1,0 UV-I 288 W/m 6,9 C 9,6 C 20,9 km/h (4 Bft) 94,34 %
20.05.2017 08:42 11,7 C 21,7 C 74 % 1019,3 hPa 0,0 l/m 3,2 km/h (1 Bft) W 270 2 min 0,000 mm 1,0 UV-I 291 W/m 7,2 C 11,7 C 8,0 km/h (2 Bft) 100,00 %
20.05.2017 08:44 11,8 C 21,7 C 74 % 1019,3 hPa 0,0 l/m 5,7 km/h (1 Bft) W-SW 251 2 min 0,000 mm 1,1 UV-I 311 W/m 7,3 C 11,8 C 12,9 km/h (3 Bft) 100,00 %
20.05.2017 08:46 11,7 C 21,7 C 73 % 1019,3 hPa 0,0 l/m 8,1 km/h (2 Bft) W-SW 248 2 min 0,000 mm 1,1 UV-I 334 W/m 7,0 C 10,6 C 20,9 km/h (4 Bft) 100,00 %
20.05.2017 08:48 11,7 C 21,7 C 73 % 1019,3 hPa 0,0 l/m 16,2 km/h (3 Bft) SW 225 2 min 0,000 mm 1,2 UV-I 338 W/m 7,0 C 6,7 C 22,5 km/h (4 Bft) 97,14 %
20.05.2017 08:50 11,7 C 21,7 C 73 % 1019,4 hPa 0,0 l/m 7,4 km/h (2 Bft) SW 229 2 min 0,000 mm 1,2 UV-I 328 W/m 7,0 C 11,0 C 14,5 km/h (3 Bft) 94,92 %
20.05.2017 08:52 11,8 C 21,7 C 73 % 1019,4 hPa 0,0 l/m 8,2 km/h (2 Bft) W 269 2 min 0,000 mm 1,2 UV-I 312 W/m 7,1 C 10,6 C 12,9 km/h (3 Bft) 100,00 %
20.05.2017 08:54 11,7 C 21,7 C 73 % 1019,3 hPa 0,0 l/m 9,2 km/h (2 Bft) SW 234 2 min 0,000 mm 1,2 UV-I 311 W/m 7,0 C 9,9 C 16,1 km/h (3 Bft) 96,23 %
20.05.2017 08:56 11,7 C 21,7 C 73 % 1019,4 hPa 0,0 l/m 10,7 km/h (2 Bft) W-NW 302 2 min 0,000 mm 1,2 UV-I 308 W/m 7,0 C 9,1 C 16,1 km/h (3 Bft) 92,68 %
20.05.2017 08:58 11,8 C 21,7 C 74 % 1019,3 hPa 0,0 l/m 5,0 km/h (1 Bft) W-SW 256 0 min 0,000 mm 1,2 UV-I 305 W/m 7,3 C 11,8 C 9,7 km/h (2 Bft) 96,43 %
20.05.2017 09:00 11,8 C 21,7 C 74 % 1019,3 hPa 0,0 l/m 7,3 km/h (2 Bft) W 264 2 min 0,153 mm 1,2 UV-I 315 W/m 7,3 C 11,2 C 14,5 km/h (3 Bft) 97,37 %
20.05.2017 09:02 11,9 C 21,7 C 73 % 1019,4 hPa 0,0 l/m 12,3 km/h (3 Bft) W-SW 238 2 min 0,000 mm 1,3 UV-I 330 W/m 7,2 C 8,6 C 20,9 km/h (4 Bft) 90,57 %
20.05.2017 09:04 11,8 C 21,7 C 72 % 1019,4 hPa 0,0 l/m 9,3 km/h (2 Bft) W-SW 240 2 min 0,000 mm 1,3 UV-I 331 W/m 6,9 C 10,0 C 20,9 km/h (4 Bft) 89,47 %
20.05.2017 09:06 11,9 C 21,7 C 73 % 1019,4 hPa 0,0 l/m 8,4 km/h (2 Bft) W-SW 252 2 min 0,000 mm 1,3 UV-I 327 W/m 7,2 C 10,6 C 17,7 km/h (3 Bft) 96,23 %
20.05.2017 09:08 11,8 C 21,7 C 73 % 1019,4 hPa 0,0 l/m 12,2 km/h (2 Bft) W 265 2 min 0,000 mm 1,3 UV-I 326 W/m 7,1 C 8,5 C 20,9 km/h (4 Bft) 97,44 %
20.05.2017 09:10 11,9 C 21,7 C 72 % 1019,4 hPa 0,0 l/m 13,2 km/h (3 Bft) W-SW 250 2 min 0,000 mm 1,3 UV-I 322 W/m 7,0 C 8,2 C 20,9 km/h (4 Bft) 94,23 %
20.05.2017 09:12 11,9 C 21,7 C 72 % 1019,5 hPa 0,0 l/m 14,6 km/h (3 Bft) W 265 2 min 0,000 mm 1,4 UV-I 333 W/m 7,0 C 7,6 C 22,5 km/h (4 Bft) 96,23 %
20.05.2017 09:14 11,8 C 21,7 C 73 % 1019,4 hPa 0,0 l/m 10,1 km/h (2 Bft) W 278 2 min 0,000 mm 1,4 UV-I 344 W/m 7,1 C 9,5 C 16,1 km/h (3 Bft) 93,62 %
20.05.2017 09:16 11,9 C 21,7 C 73 % 1019,5 hPa 0,0 l/m 10,5 km/h (2 Bft) W-NW 286 2 min 0,000 mm 1,5 UV-I 352 W/m 7,2 C 9,4 C 16,1 km/h (3 Bft) 93,62 %
20.05.2017 09:18 11,9 C 21,7 C 73 % 1019,4 hPa 0,0 l/m 11,1 km/h (2 Bft) W 271 2 min 0,000 mm 1,5 UV-I 352 W/m 7,2 C 9,1 C 16,1 km/h (3 Bft) 94,87 %
20.05.2017 09:20 11,9 C 21,7 C 72 % 1019,5 hPa 0,0 l/m 11,3 km/h (2 Bft) SW 235 2 min 0,000 mm 1,5 UV-I 352 W/m 7,0 C 9,0 C 17,7 km/h (3 Bft) 94,00 %
20.05.2017 09:22 12,0 C 21,7 C 72 % 1019,5 hPa 0,0 l/m 12,6 km/h (3 Bft) W-NW 294 2 min 0,000 mm 1,5 UV-I 349 W/m 7,1 C 8,5 C 20,9 km/h (4 Bft) 98,11 %
20.05.2017 09:24 12,0 C 21,7 C 71 % 1019,5 hPa 0,0 l/m 10,9 km/h (2 Bft) SW 219 2 min 0,000 mm 1,5 UV-I 347 W/m 6,9 C 9,3 C 14,5 km/h (3 Bft) 97,56 %
20.05.2017 09:26 12,0 C 21,7 C 71 % 1019,5 hPa 0,0 l/m 11,8 km/h (2 Bft) W-SW 241 2 min 0,000 mm 1,5 UV-I 356 W/m 6,9 C 8,9 C 17,7 km/h (3 Bft) 96,00 %
20.05.2017 09:28 12,1 C 21,7 C 72 % 1019,4 hPa 0,0 l/m 6,0 km/h (2 Bft) W-SW 240 2 min 0,000 mm 1,6 UV-I 363 W/m 7,2 C 12,1 C 12,9 km/h (3 Bft) 95,45 %
20.05.2017 09:30 12,1 C 21,7 C 72 % 1019,5 hPa 0,0 l/m 8,2 km/h (2 Bft) W 266 2 min 0,000 mm 1,6 UV-I 374 W/m 7,2 C 10,9 C 14,5 km/h (3 Bft) 96,23 %
20.05.2017 09:32 12,1 C 21,7 C 71 % 1019,6 hPa 0,0 l/m 7,3 km/h (2 Bft) NW 306 2 min 0,000 mm 1,6 UV-I 383 W/m 7,0 C 11,5 C 14,5 km/h (3 Bft) 94,74 %
20.05.2017 09:34 12,1 C 21,7 C 71 % 1019,5 hPa 0,0 l/m 11,0 km/h (2 Bft) W 275 2 min 0,000 mm 1,7 UV-I 377 W/m 7,0 C 9,4 C 17,7 km/h (3 Bft) 94,00 %
20.05.2017 09:36 12,1 C 21,7 C 71 % 1019,5 hPa 0,0 l/m 6,6 km/h (2 Bft) SW 227 2 min 0,000 mm 1,7 UV-I 383 W/m 7,0 C 12,0 C 11,3 km/h (2 Bft) 97,56 %
20.05.2017 09:38 12,2 C 21,7 C 71 % 1019,4 hPa 0,0 l/m 8,0 km/h (2 Bft) N-NW 333 2 min 0,000 mm 1,7 UV-I 379 W/m 7,1 C 11,2 C 14,5 km/h (3 Bft) 98,00 %
20.05.2017 09:40 12,2 C 21,7 C 72 % 1019,5 hPa 0,0 l/m 7,5 km/h (2 Bft) W-SW 244 2 min 0,000 mm 1,7 UV-I 375 W/m 7,3 C 11,5 C 12,9 km/h (3 Bft) 96,00 %
20.05.2017 09:42 12,3 C 21,7 C 70 % 1019,5 hPa 0,0 l/m 11,4 km/h (2 Bft) W-SW 242 2 min 0,000 mm 1,7 UV-I 375 W/m 7,0 C 9,4 C 16,1 km/h (3 Bft) 100,00 %
20.05.2017 09:44 12,3 C 21,7 C 71 % 1019,5 hPa 0,0 l/m 8,1 km/h (2 Bft) W-SW 258 2 min 0,000 mm 1,6 UV-I 363 W/m 7,2 C 11,2 C 11,3 km/h (2 Bft) 92,45 %
20.05.2017 09:46 12,3 C 21,7 C 71 % 1019,5 hPa 0,0 l/m 5,0 km/h (1 Bft) W-SW 244 0 min 0,000 mm 1,6 UV-I 348 W/m 7,2 C 12,3 C 14,5 km/h (3 Bft) 100,00 %
20.05.2017 09:48 12,4 C 21,7 C 72 % 1019,4 hPa 0,0 l/m 7,2 km/h (2 Bft) W-NW 290 2 min 0,000 mm 1,6 UV-I 369 W/m 7,5 C 11,9 C 14,5 km/h (3 Bft) 93,62 %
20.05.2017 09:50 12,4 C 21,7 C 70 % 1019,5 hPa 0,0 l/m 9,6 km/h (2 Bft) W 277 2 min 0,000 mm 1,7 UV-I 377 W/m 7,1 C 10,5 C 20,9 km/h (4 Bft) 98,11 %
20.05.2017 09:52 12,4 C 21,7 C 70 % 1019,5 hPa 0,0 l/m 12,2 km/h (2 Bft) W-SW 249 2 min 0,000 mm 1,8 UV-I 384 W/m 7,1 C 9,2 C 19,3 km/h (3 Bft) 97,73 %
20.05.2017 09:54 12,4 C 21,7 C 70 % 1019,5 hPa 0,0 l/m 6,6 km/h (2 Bft) W-SW 238 2 min 0,000 mm 1,8 UV-I 378 W/m 7,1 C 12,3 C 11,3 km/h (2 Bft) 100,00 %
20.05.2017 09:56 12,4 C 21,7 C 71 % 1019,6 hPa 0,0 l/m 9,5 km/h (2 Bft) W-SW 257 0 min 0,000 mm 1,7 UV-I 334 W/m 7,3 C 10,5 C 12,9 km/h (3 Bft) 94,34 %
20.05.2017 09:58 12,4 C 21,7 C 70 % 1019,6 hPa 0,0 l/m 10,3 km/h (2 Bft) W-SW 238 0 min 0,000 mm 1,7 UV-I 345 W/m 7,1 C 10,1 C 14,5 km/h (3 Bft) 100,00 %
20.05.2017 10:00 12,4 C 21,7 C 70 % 1019,6 hPa 0,0 l/m 6,9 km/h (2 Bft) W 269 0 min 0,203 mm 1,8 UV-I 376 W/m 7,1 C 12,1 C 14,5 km/h (3 Bft) 92,86 %
20.05.2017 10:02 12,4 C 21,7 C 69 % 1019,6 hPa 0,0 l/m 4,3 km/h (1 Bft) W-NW 295 2 min 0,000 mm 1,9 UV-I 387 W/m 6,9 C 12,4 C 8,0 km/h (2 Bft) 97,56 %
20.05.2017 10:04 12,4 C 21,7 C 69 % 1019,5 hPa 0,0 l/m 7,8 km/h (2 Bft) W 273 0 min 0,000 mm 1,8 UV-I 376 W/m 6,9 C 11,5 C 17,7 km/h (3 Bft) 98,11 %
20.05.2017 10:06 12,4 C 21,7 C 70 % 1019,5 hPa 0,0 l/m 4,1 km/h (1 Bft) W-NW 302 0 min 0,000 mm 1,8 UV-I 359 W/m 7,1 C 12,4 C 8,0 km/h (2 Bft) 97,87 %
20.05.2017 10:08 12,4 C 21,7 C 71 % 1019,6 hPa 0,0 l/m 8,6 km/h (2 Bft) W-SW 257 0 min 0,000 mm 1,8 UV-I 356 W/m 7,3 C 11,0 C 19,3 km/h (3 Bft) 97,56 %
20.05.2017 10:10 12,4 C 21,7 C 70 % 1019,6 hPa 0,0 l/m 8,0 km/h (2 Bft) NW 315 0 min 0,000 mm 1,9 UV-I 371 W/m 7,1 C 11,4 C 16,1 km/h (3 Bft) 93,62 %
20.05.2017 10:12 12,6 C 21,7 C 70 % 1019,6 hPa 0,0 l/m 8,7 km/h (2 Bft) W-SW 254 0 min 0,000 mm 1,8 UV-I 362 W/m 7,3 C 11,2 C 20,9 km/h (4 Bft) 96,23 %
20.05.2017 10:14 12,6 C 21,7 C 70 % 1019,5 hPa 0,0 l/m 8,9 km/h (2 Bft) W-SW 258 0 min 0,000 mm 1,9 UV-I 372 W/m 7,3 C 11,1 C 14,5 km/h (3 Bft) 94,29 %
20.05.2017 10:16 12,6 C 21,7 C 71 % 1019,5 hPa 0,0 l/m 11,0 km/h (2 Bft) W-SW 250 0 min 0,000 mm 2,0 UV-I 391 W/m 7,5 C 10,0 C 16,1 km/h (3 Bft) 94,92 %
20.05.2017 10:18 12,7 C 21,7 C 69 % 1019,5 hPa 0,0 l/m 11,4 km/h (2 Bft) SW 232 2 min 0,000 mm 2,1 UV-I 406 W/m 7,2 C 9,9 C 17,7 km/h (3 Bft) 100,00 %
20.05.2017 10:20 12,7 C 21,7 C 69 % 1019,5 hPa 0,0 l/m 17,3 km/h (3 Bft) W-SW 241 2 min 0,000 mm 2,2 UV-I 425 W/m 7,2 C 7,6 C 24,1 km/h (4 Bft) 100,00 %
20.05.2017 10:22 12,7 C 21,7 C 68 % 1019,5 hPa 0,0 l/m 16,3 km/h (3 Bft) W-SW 242 2 min 0,000 mm 2,2 UV-I 431 W/m 6,9 C 7,9 C 20,9 km/h (4 Bft) 98,11 %
20.05.2017 10:24 12,7 C 21,7 C 69 % 1019,6 hPa 0,0 l/m 8,9 km/h (2 Bft) NW 311 2 min 0,000 mm 2,2 UV-I 434 W/m 7,2 C 11,2 C 14,5 km/h (3 Bft) 100,00 %
20.05.2017 10:26 12,7 C 21,7 C 69 % 1019,6 hPa 0,0 l/m 9,1 km/h (2 Bft) W 279 2 min 0,000 mm 2,2 UV-I 426 W/m 7,2 C 11,1 C 16,1 km/h (3 Bft) 96,23 %
20.05.2017 10:28 12,7 C 21,7 C 70 % 1019,6 hPa 0,0 l/m 6,2 km/h (2 Bft) W 279 2 min 0,000 mm 2,3 UV-I 437 W/m 7,4 C 12,7 C 12,9 km/h (3 Bft) 100,00 %
20.05.2017 10:30 12,7 C 21,7 C 70 % 1019,6 hPa 0,0 l/m 6,0 km/h (2 Bft) W 267 2 min 0,000 mm 2,4 UV-I 444 W/m 7,4 C 12,7 C 12,9 km/h (3 Bft) 100,00 %
20.05.2017 10:32 12,7 C 21,7 C 70 % 1019,5 hPa 0,0 l/m 8,2 km/h (2 Bft) W-NW 298 2 min 0,000 mm 2,4 UV-I 447 W/m 7,4 C 11,6 C 14,5 km/h (3 Bft) 97,92 %
20.05.2017 10:34 12,7 C 21,7 C 69 % 1019,6 hPa 0,0 l/m 6,9 km/h (2 Bft) W-SW 241 2 min 0,000 mm 2,4 UV-I 451 W/m 7,2 C 12,4 C 14,5 km/h (3 Bft) 93,62 %
20.05.2017 10:36 12,8 C 21,7 C 69 % 1019,6 hPa 0,0 l/m 4,8 km/h (1 Bft) SW 232 2 min 0,000 mm 2,5 UV-I 455 W/m 7,3 C 12,8 C 9,7 km/h (2 Bft) 92,68 %
20.05.2017 10:38 12,9 C 21,7 C 69 % 1019,7 hPa 0,0 l/m 11,0 km/h (2 Bft) S-SW 198 2 min 0,000 mm 2,4 UV-I 449 W/m 7,4 C 10,3 C 17,7 km/h (3 Bft) 94,34 %
20.05.2017 10:40 13,1 C 21,7 C 71 % 1019,7 hPa 0,0 l/m 9,6 km/h (2 Bft) W-SW 250 2 min 0,000 mm 2,4 UV-I 441 W/m 8,0 C 11,2 C 14,5 km/h (3 Bft) 97,56 %
20.05.2017 10:42 13,2 C 21,7 C 70 % 1019,6 hPa 0,0 l/m 8,7 km/h (2 Bft) W-SW 238 2 min 0,000 mm 2,4 UV-I 453 W/m 7,9 C 11,8 C 17,7 km/h (3 Bft) 91,07 %
20.05.2017 10:44 13,3 C 21,7 C 69 % 1019,7 hPa 0,0 l/m 14,2 km/h (3 Bft) W-SW 246 2 min 0,000 mm 2,5 UV-I 462 W/m 7,7 C 9,4 C 19,3 km/h (3 Bft) 92,11 %
20.05.2017 10:46 13,1 C 21,7 C 69 % 1019,6 hPa 0,0 l/m 6,4 km/h (2 Bft) W-SW 238 2 min 0,000 mm 2,5 UV-I 458 W/m 7,5 C 13,1 C 14,5 km/h (3 Bft) 98,21 %
20.05.2017 10:48 13,2 C 21,7 C 71 % 1019,6 hPa 0,0 l/m 2,0 km/h (1 Bft) W-NW 282 2 min 0,000 mm 2,4 UV-I 435 W/m 8,1 C 13,2 C 11,3 km/h (2 Bft) 90,00 %
20.05.2017 10:50 13,3 C 21,7 C 70 % 1019,6 hPa 0,0 l/m 3,0 km/h (1 Bft) W-SW 254 0 min 0,000 mm 2,3 UV-I 420 W/m 7,9 C 13,3 C 6,4 km/h (2 Bft) 95,12 %
20.05.2017 10:52 13,3 C 21,7 C 68 % 1019,6 hPa 0,0 l/m 7,3 km/h (2 Bft) W 261 2 min 0,000 mm 2,4 UV-I 443 W/m 7,5 C 12,7 C 12,9 km/h (3 Bft) 89,47 %
20.05.2017 10:54 13,3 C 21,7 C 68 % 1019,6 hPa 0,0 l/m 10,6 km/h (2 Bft) W-SW 245 2 min 0,000 mm 2,5 UV-I 441 W/m 7,5 C 10,9 C 14,5 km/h (3 Bft) 90,91 %
20.05.2017 10:56 13,4 C 21,7 C 68 % 1019,6 hPa 0,0 l/m 7,8 km/h (2 Bft) W-SW 245 0 min 0,000 mm 2,4 UV-I 426 W/m 7,6 C 12,5 C 12,9 km/h (3 Bft) 94,12 %
20.05.2017 10:58 13,3 C 21,7 C 67 % 1019,7 hPa 0,0 l/m 5,8 km/h (2 Bft) W-SW 257 0 min 0,000 mm 2,2 UV-I 387 W/m 7,3 C 13,3 C 12,9 km/h (3 Bft) 94,00 %
20.05.2017 11:00 13,2 C 21,7 C 68 % 1019,7 hPa 0,0 l/m 6,7 km/h (2 Bft) W 265 0 min 0,000 mm 2,4 UV-I 420 W/m 7,4 C 13,0 C 11,3 km/h (2 Bft) 90,00 %
20.05.2017 11:02 13,3 C 21,7 C 67 % 1019,7 hPa 0,0 l/m 8,7 km/h (2 Bft) W-SW 251 2 min 0,229 mm 2,5 UV-I 435 W/m 7,3 C 11,9 C 16,1 km/h (3 Bft) 94,74 %
20.05.2017 11:04 13,3 C 21,7 C 66 % 1019,7 hPa 0,0 l/m 12,8 km/h (3 Bft) W-SW 249 0 min 0,000 mm 2,5 UV-I 432 W/m 7,1 C 10,0 C 22,5 km/h (4 Bft) 92,86 %
20.05.2017 11:06 13,3 C 21,7 C 67 % 1019,7 hPa 0,0 l/m 14,3 km/h (3 Bft) SW 227 0 min 0,000 mm 2,5 UV-I 427 W/m 7,3 C 9,4 C 30,6 km/h (5 Bft) 94,74 %
20.05.2017 11:08 13,2 C 21,7 C 66 % 1019,7 hPa 0,0 l/m 17,5 km/h (3 Bft) W 273 0 min 0,000 mm 2,4 UV-I 425 W/m 7,0 C 8,2 C 24,1 km/h (4 Bft) 92,45 %
20.05.2017 11:10 13,2 C 21,7 C 67 % 1019,7 hPa 0,0 l/m 8,8 km/h (2 Bft) W 271 0 min 0,000 mm 2,4 UV-I 414 W/m 7,2 C 11,8 C 12,9 km/h (3 Bft) 89,74 %
20.05.2017 11:12 13,3 C 21,7 C 67 % 1019,7 hPa 0,0 l/m 10,2 km/h (2 Bft) W-SW 252 0 min 0,000 mm 2,4 UV-I 411 W/m 7,3 C 11,1 C 19,3 km/h (3 Bft) 92,00 %
20.05.2017 11:14 13,4 C 21,7 C 67 % 1019,7 hPa 0,0 l/m 10,0 km/h (2 Bft) W-NW 290 0 min 0,000 mm 2,4 UV-I 408 W/m 7,4 C 11,4 C 17,7 km/h (3 Bft) 91,49 %
20.05.2017 11:16 13,4 C 21,7 C 66 % 1019,7 hPa 0,0 l/m 11,6 km/h (2 Bft) W 261 0 min 0,000 mm 2,4 UV-I 416 W/m 7,2 C 10,6 C 17,7 km/h (3 Bft) 94,00 %
20.05.2017 11:18 13,3 C 21,7 C 66 % 1019,7 hPa 0,0 l/m 7,3 km/h (2 Bft) SW 221 0 min 0,000 mm 2,5 UV-I 425 W/m 7,1 C 12,7 C 14,5 km/h (3 Bft) 89,36 %
20.05.2017 11:20 13,3 C 21,7 C 67 % 1019,7 hPa 0,0 l/m 10,1 km/h (2 Bft) W-SW 248 0 min 0,000 mm 2,4 UV-I 410 W/m 7,3 C 11,2 C 17,7 km/h (3 Bft) 94,00 %
20.05.2017 11:22 13,3 C 21,7 C 66 % 1019,8 hPa 0,0 l/m 11,1 km/h (2 Bft) W 279 0 min 0,000 mm 2,2 UV-I 385 W/m 7,1 C 10,7 C 16,1 km/h (3 Bft) 95,12 %
20.05.2017 11:24 13,4 C 21,7 C 66 % 1019,8 hPa 0,0 l/m 7,4 km/h (2 Bft) W-NW 285 0 min 0,000 mm 2,1 UV-I 372 W/m 7,2 C 12,8 C 12,9 km/h (3 Bft) 92,45 %
20.05.2017 11:26 13,5 C 21,7 C 66 % 1019,8 hPa 0,0 l/m 5,8 km/h (2 Bft) SW 220 0 min 0,000 mm 2,2 UV-I 373 W/m 7,3 C 13,5 C 12,9 km/h (3 Bft) 97,56 %
20.05.2017 11:28 13,5 C 21,7 C 67 % 1019,7 hPa 0,0 l/m 1,9 km/h (1 Bft) W 260 0 min 0,000 mm 2,1 UV-I 360 W/m 7,5 C 13,5 C 4,8 km/h (1 Bft) 95,74 %
20.05.2017 11:30 13,5 C 21,7 C 67 % 1019,7 hPa 0,0 l/m 9,0 km/h (2 Bft) W-SW 246 0 min 0,000 mm 1,9 UV-I 332 W/m 7,5 C 12,0 C 14,5 km/h (3 Bft) 90,91 %
20.05.2017 11:32 13,4 C 21,7 C 67 % 1019,8 hPa 0,0 l/m 11,8 km/h (2 Bft) W-SW 257 0 min 0,000 mm 2,2 UV-I 372 W/m 7,4 C 10,5 C 19,3 km/h (3 Bft) 95,74 %
20.05.2017 11:34 13,5 C 21,7 C 67 % 1019,7 hPa 0,0 l/m 10,1 km/h (2 Bft) W-SW 253 0 min 0,000 mm 2,3 UV-I 397 W/m 7,5 C 11,4 C 16,1 km/h (3 Bft) 96,23 %
20.05.2017 11:36 13,6 C 21,7 C 66 % 1019,8 hPa 0,0 l/m 8,6 km/h (2 Bft) S-SW 207 0 min 0,000 mm 2,3 UV-I 385 W/m 7,4 C 12,3 C 16,1 km/h (3 Bft) 97,56 %
20.05.2017 11:38 13,6 C 21,7 C 66 % 1019,8 hPa 0,0 l/m 7,6 km/h (2 Bft) W-NW 288 0 min 0,000 mm 2,5 UV-I 420 W/m 7,4 C 12,9 C 16,1 km/h (3 Bft) 94,34 %
20.05.2017 11:40 13,6 C 21,7 C 66 % 1019,8 hPa 0,0 l/m 9,2 km/h (2 Bft) N-NW 337 0 min 0,000 mm 2,6 UV-I 454 W/m 7,4 C 12,0 C 17,7 km/h (3 Bft) 97,56 %
20.05.2017 11:42 13,6 C 21,7 C 66 % 1019,8 hPa 0,0 l/m 5,4 km/h (1 Bft) SW 225 2 min 0,000 mm 3,0 UV-I 501 W/m 7,4 C 13,6 C 8,0 km/h (2 Bft) 94,00 %
20.05.2017 11:44 13,8 C 21,7 C 66 % 1019,8 hPa 0,0 l/m 6,2 km/h (2 Bft) W-SW 254 2 min 0,000 mm 3,4 UV-I 580 W/m 7,6 C 13,8 C 12,9 km/h (3 Bft) 97,73 %
20.05.2017 11:46 14,1 C 21,7 C 65 % 1019,8 hPa 0,0 l/m 12,7 km/h (3 Bft) W-SW 241 2 min 0,000 mm 3,7 UV-I 618 W/m 7,6 C 11,0 C 19,3 km/h (3 Bft) 93,18 %
20.05.2017 11:48 14,2 C 21,7 C 65 % 1019,8 hPa 0,0 l/m 10,4 km/h (2 Bft) W-SW 257 2 min 0,000 mm 3,4 UV-I 598 W/m 7,7 C 12,0 C 19,3 km/h (3 Bft) 98,21 %
20.05.2017 11:50 14,2 C 21,7 C 62 % 1019,8 hPa 0,0 l/m 11,5 km/h (2 Bft) W-SW 246 2 min 0,000 mm 3,3 UV-I 564 W/m 7,0 C 11,6 C 17,7 km/h (3 Bft) 100,00 %
20.05.2017 11:52 14,1 C 21,7 C 62 % 1019,8 hPa 0,0 l/m 14,5 km/h (3 Bft) W 267 2 min 0,000 mm 3,4 UV-I 577 W/m 6,9 C 10,3 C 22,5 km/h (4 Bft) 100,00 %
20.05.2017 11:54 14,1 C 21,7 C 62 % 1019,8 hPa 0,0 l/m 14,5 km/h (3 Bft) W-SW 237 2 min 0,000 mm 3,4 UV-I 579 W/m 6,9 C 10,3 C 20,9 km/h (4 Bft) 97,56 %
20.05.2017 11:56 14,1 C 21,7 C 63 % 1019,8 hPa 0,0 l/m 10,1 km/h (2 Bft) W 277 2 min 0,000 mm 3,4 UV-I 565 W/m 7,2 C 12,1 C 16,1 km/h (3 Bft) 97,87 %
20.05.2017 11:58 14,2 C 21,7 C 64 % 1019,8 hPa 0,0 l/m 8,2 km/h (2 Bft) SW 225 2 min 0,000 mm 3,3 UV-I 558 W/m 7,5 C 13,2 C 14,5 km/h (3 Bft) 97,87 %
20.05.2017 12:00 14,3 C 21,7 C 63 % 1019,7 hPa 0,0 l/m 7,4 km/h (2 Bft) W-SW 242 2 min 0,279 mm 3,3 UV-I 565 W/m 7,4 C 13,7 C 16,1 km/h (3 Bft) 98,00 %
20.05.2017 12:02 14,3 C 21,7 C 61 % 1019,7 hPa 0,0 l/m 13,0 km/h (3 Bft) W-SW 249 2 min 0,000 mm 3,6 UV-I 602 W/m 6,9 C 11,1 C 22,5 km/h (4 Bft) 96,00 %
20.05.2017 12:04 14,3 C 21,7 C 62 % 1019,7 hPa 0,0 l/m 14,1 km/h (3 Bft) W-SW 254 2 min 0,000 mm 3,9 UV-I 672 W/m 7,1 C 10,7 C 24,1 km/h (4 Bft) 100,00 %
20.05.2017 12:06 14,3 C 21,7 C 62 % 1019,7 hPa 0,0 l/m 17,5 km/h (3 Bft) W-SW 243 2 min 0,000 mm 3,7 UV-I 617 W/m 7,1 C 9,5 C 25,7 km/h (4 Bft) 100,00 %
20.05.2017 12:08 14,3 C 21,7 C 63 % 1019,7 hPa 0,0 l/m 12,4 km/h (3 Bft) W-SW 242 2 min 0,000 mm 3,7 UV-I 606 W/m 7,4 C 11,3 C 19,3 km/h (3 Bft) 97,73 %
20.05.2017 12:10 14,3 C 21,7 C 63 % 1019,7 hPa 0,0 l/m 10,5 km/h (2 Bft) W-SW 238 2 min 0,000 mm 3,6 UV-I 587 W/m 7,4 C 12,1 C 17,7 km/h (3 Bft) 91,49 %
20.05.2017 12:12 14,4 C 21,7 C 63 % 1019,7 hPa 0,0 l/m 9,1 km/h (2 Bft) W-SW 240 2 min 0,000 mm 3,4 UV-I 552 W/m 7,4 C 12,9 C 17,7 km/h (3 Bft) 100,00 %
20.05.2017 12:14 14,4 C 21,7 C 64 % 1019,7 hPa 0,0 l/m 13,8 km/h (3 Bft) NW 325 2 min 0,000 mm 3,1 UV-I 502 W/m 7,7 C 10,9 C 19,3 km/h (3 Bft) 100,00 %
20.05.2017 12:16 14,4 C 21,7 C 64 % 1019,7 hPa 0,0 l/m 9,9 km/h (2 Bft) W 279 2 min 0,000 mm 3,0 UV-I 488 W/m 7,7 C 12,5 C 19,3 km/h (3 Bft) 98,21 %
20.05.2017 12:18 14,4 C 21,7 C 63 % 1019,7 hPa 0,0 l/m 10,9 km/h (2 Bft) W-NW 282 2 min 0,000 mm 3,2 UV-I 514 W/m 7,4 C 12,0 C 19,3 km/h (3 Bft) 100,00 %
20.05.2017 12:20 14,4 C 21,7 C 63 % 1019,7 hPa 0,0 l/m 10,9 km/h (2 Bft) W 263 2 min 0,000 mm 3,2 UV-I 511 W/m 7,4 C 12,0 C 17,7 km/h (3 Bft) 100,00 %
20.05.2017 12:22 14,3 C 21,7 C 62 % 1019,7 hPa 0,0 l/m 12,1 km/h (2 Bft) SW 230 2 min 0,000 mm 3,3 UV-I 519 W/m 7,1 C 11,4 C 17,7 km/h (3 Bft) 98,00 %
20.05.2017 12:24 14,4 C 21,7 C 63 % 1019,7 hPa 0,0 l/m 10,3 km/h (2 Bft) W-SW 248 2 min 0,000 mm 3,4 UV-I 539 W/m 7,4 C 12,3 C 19,3 km/h (3 Bft) 100,00 %
20.05.2017 12:26 14,4 C 21,7 C 63 % 1019,8 hPa 0,0 l/m 15,7 km/h (3 Bft) W-SW 256 2 min 0,000 mm 3,5 UV-I 561 W/m 7,4 C 10,2 C 29,0 km/h (5 Bft) 98,00 %
20.05.2017 12:28 14,4 C 21,7 C 61 % 1019,7 hPa 0,0 l/m 18,5 km/h (3 Bft) W 267 2 min 0,000 mm 3,7 UV-I 594 W/m 7,0 C 9,4 C 32,2 km/h (5 Bft) 100,00 %
20.05.2017 12:30 14,4 C 21,7 C 61 % 1019,7 hPa 0,0 l/m 19,6 km/h (3 Bft) W 260 2 min 0,000 mm 3,6 UV-I 592 W/m 7,0 C 9,1 C 27,4 km/h (4 Bft) 97,62 %
20.05.2017 12:32 14,3 C 21,7 C 61 % 1019,7 hPa 0,0 l/m 16,9 km/h (3 Bft) W 263 2 min 0,000 mm 3,7 UV-I 599 W/m 6,9 C 9,7 C 24,1 km/h (4 Bft) 97,87 %
20.05.2017 12:34 14,4 C 21,7 C 60 % 1019,7 hPa 0,0 l/m 16,1 km/h (3 Bft) W-SW 255 2 min 0,000 mm 3,7 UV-I 606 W/m 6,7 C 10,1 C 27,4 km/h (4 Bft) 92,68 %
20.05.2017 12:36 14,4 C 21,7 C 63 % 1019,7 hPa 0,0 l/m 12,7 km/h (3 Bft) W-SW 255 2 min 0,000 mm 3,8 UV-I 618 W/m 7,4 C 11,3 C 19,3 km/h (3 Bft) 92,86 %
20.05.2017 12:38 14,5 C 21,7 C 61 % 1019,7 hPa 0,0 l/m 13,9 km/h (3 Bft) W 267 2 min 0,000 mm 4,1 UV-I 689 W/m 7,1 C 11,0 C 24,1 km/h (4 Bft) 100,00 %
20.05.2017 12:40 14,6 C 21,7 C 62 % 1019,7 hPa 0,0 l/m 9,9 km/h (2 Bft) W 267 2 min 0,000 mm 4,2 UV-I 685 W/m 7,4 C 12,7 C 16,1 km/h (3 Bft) 98,11 %
20.05.2017 12:42 14,7 C 21,7 C 61 % 1019,6 hPa 0,0 l/m 9,5 km/h (2 Bft) W-NW 300 2 min 0,000 mm 4,0 UV-I 675 W/m 7,3 C 13,0 C 14,5 km/h (3 Bft) 95,12 %
20.05.2017 12:44 14,7 C 21,7 C 60 % 1019,6 hPa 0,0 l/m 16,4 km/h (3 Bft) W-SW 254 2 min 0,000 mm 3,9 UV-I 668 W/m 7,0 C 10,4 C 30,6 km/h (5 Bft) 96,00 %
20.05.2017 12:46 14,7 C 21,7 C 60 % 1019,6 hPa 0,0 l/m 15,9 km/h (3 Bft) W-SW 256 2 min 0,000 mm 3,5 UV-I 641 W/m 7,0 C 10,5 C 25,7 km/h (4 Bft) 87,80 %
20.05.2017 12:48 14,7 C 21,7 C 60 % 1019,6 hPa 0,0 l/m 18,2 km/h (3 Bft) W-SW 250 2 min 0,000 mm 3,8 UV-I 616 W/m 7,0 C 9,8 C 25,7 km/h (4 Bft) 92,00 %
20.05.2017 12:50 14,8 C 21,7 C 61 % 1019,6 hPa 0,0 l/m 18,2 km/h (3 Bft) W-SW 246 2 min 0,000 mm 4,2 UV-I 698 W/m 7,4 C 10,0 C 25,7 km/h (4 Bft) 94,64 %
20.05.2017 12:52 14,9 C 21,7 C 61 % 1019,6 hPa 0,0 l/m 16,7 km/h (3 Bft) W 266 2 min 0,000 mm 4,7 UV-I 807 W/m 7,4 C 10,5 C 24,1 km/h (4 Bft) 87,80 %
20.05.2017 12:54 15,0 C 21,7 C 59 % 1019,6 hPa 0,0 l/m 16,0 km/h (3 Bft) W 266 2 min 0,000 mm 4,8 UV-I 805 W/m 7,1 C 10,9 C 24,1 km/h (4 Bft) 91,49 %
20.05.2017 12:56 15,2 C 21,7 C 59 % 1019,6 hPa 0,0 l/m 13,8 km/h (3 Bft) NW 322 2 min 0,000 mm 5,9 UV-I 805 W/m 7,2 C 11,8 C 22,5 km/h (4 Bft) 95,45 %
20.05.2017 12:58 15,4 C 21,7 C 60 % 1019,6 hPa 0,0 l/m 13,6 km/h (3 Bft) W 271 2 min 0,000 mm 5,3 UV-I 805 W/m 7,7 C 12,1 C 20,9 km/h (4 Bft) 97,73 %
20.05.2017 13:00 15,3 C 21,7 C 59 % 1019,6 hPa 0,0 l/m 11,6 km/h (2 Bft) W 272 2 min 0,406 mm 4,6 UV-I 773 W/m 7,3 C 12,8 C 20,9 km/h (4 Bft) 94,00 %
20.05.2017 13:02 15,4 C 21,7 C 58 % 1019,6 hPa 0,0 l/m 10,0 km/h (2 Bft) W-SW 251 2 min 0,000 mm 4,7 UV-I 820 W/m 7,2 C 13,6 C 19,3 km/h (3 Bft) 96,23 %
20.05.2017 13:04 15,4 C 21,7 C 59 % 1019,6 hPa 0,0 l/m 8,6 km/h (2 Bft) W-SW 249 2 min 0,000 mm 4,6 UV-I 896 W/m 7,4 C 14,2 C 19,3 km/h (3 Bft) 92,68 %
20.05.2017 13:06 15,4 C 21,7 C 59 % 1019,5 hPa 0,0 l/m 12,5 km/h (3 Bft) W 275 2 min 0,000 mm 4,2 UV-I 717 W/m 7,4 C 12,5 C 22,5 km/h (4 Bft) 95,56 %
20.05.2017 13:08 15,3 C 21,7 C 60 % 1019,5 hPa 0,0 l/m 10,7 km/h (2 Bft) W 271 2 min 0,000 mm 4,1 UV-I 722 W/m 7,6 C 13,1 C 19,3 km/h (3 Bft) 96,15 %
20.05.2017 13:10 15,2 C 21,7 C 58 % 1019,6 hPa 0,0 l/m 13,5 km/h (3 Bft) SW 232 2 min 0,000 mm 3,1 UV-I 555 W/m 7,0 C 11,9 C 20,9 km/h (4 Bft) 100,00 %
20.05.2017 13:12 15,1 C 21,7 C 59 % 1019,6 hPa 0,0 l/m 12,9 km/h (3 Bft) W 264 0 min 0,000 mm 2,8 UV-I 392 W/m 7,1 C 12,0 C 20,9 km/h (4 Bft) 100,00 %
20.05.2017 13:14 15,0 C 21,7 C 59 % 1019,5 hPa 0,0 l/m 12,6 km/h (3 Bft) SW 221 2 min 0,000 mm 3,7 UV-I 482 W/m 7,1 C 12,0 C 19,3 km/h (3 Bft) 97,37 %
20.05.2017 13:16 15,1 C 21,7 C 61 % 1019,6 hPa 0,0 l/m 14,8 km/h (3 Bft) W 271 2 min 0,000 mm 4,0 UV-I 622 W/m 7,6 C 11,4 C 19,3 km/h (3 Bft) 95,35 %
20.05.2017 13:18 15,1 C 21,7 C 58 % 1019,6 hPa 0,0 l/m 10,9 km/h (2 Bft) NW 313 2 min 0,000 mm 4,0 UV-I 622 W/m 6,9 C 12,8 C 17,7 km/h (3 Bft) 100,00 %
20.05.2017 13:20 15,1 C 21,7 C 60 % 1019,5 hPa 0,0 l/m 10,0 km/h (2 Bft) W-SW 242 2 min 0,000 mm 4,1 UV-I 639 W/m 7,4 C 13,2 C 20,9 km/h (4 Bft) 100,00 %
20.05.2017 13:22 15,2 C 21,7 C 59 % 1019,6 hPa 0,0 l/m 13,1 km/h (3 Bft) W 264 2 min 0,000 mm 4,5 UV-I 677 W/m 7,2 C 12,1 C 22,5 km/h (4 Bft) 98,21 %
20.05.2017 13:24 15,1 C 21,7 C 59 % 1019,5 hPa 0,0 l/m 16,5 km/h (3 Bft) W 263 2 min 0,000 mm 4,6 UV-I 750 W/m 7,1 C 10,8 C 22,5 km/h (4 Bft) 100,00 %
20.05.2017 13:26 15,1 C 21,7 C 58 % 1019,5 hPa 0,0 l/m 13,1 km/h (3 Bft) W-SW 257 2 min 0,000 mm 4,2 UV-I 702 W/m 6,9 C 12,0 C 20,9 km/h (4 Bft) 96,23 %
20.05.2017 13:28 15,2 C 21,7 C 59 % 1019,5 hPa 0,0 l/m 13,6 km/h (3 Bft) W-SW 251 2 min 0,000 mm 3,8 UV-I 632 W/m 7,2 C 11,9 C 22,5 km/h (4 Bft) 100,00 %
20.05.2017 13:30 15,2 C 21,7 C 60 % 1019,5 hPa 0,0 l/m 11,2 km/h (2 Bft) W-SW 255 2 min 0,000 mm 4,2 UV-I 686 W/m 7,5 C 12,8 C 17,7 km/h (3 Bft) 98,11 %
20.05.2017 13:32 15,4 C 21,7 C 61 % 1019,5 hPa 0,0 l/m 11,8 km/h (2 Bft) W 274 2 min 0,000 mm 3,2 UV-I 558 W/m 7,9 C 12,8 C 19,3 km/h (3 Bft) 97,56 %
20.05.2017 13:34 15,3 C 21,7 C 58 % 1019,6 hPa 0,0 l/m 12,0 km/h (2 Bft) SW 234 2 min 0,000 mm 3,2 UV-I 504 W/m 7,1 C 12,6 C 20,9 km/h (4 Bft) 97,73 %
20.05.2017 13:36 15,2 C 21,7 C 59 % 1019,6 hPa 0,0 l/m 13,5 km/h (3 Bft) W-NW 286 2 min 0,000 mm 3,7 UV-I 596 W/m 7,2 C 11,9 C 24,1 km/h (4 Bft) 98,00 %
20.05.2017 13:38 15,3 C 21,7 C 58 % 1019,6 hPa 0,0 l/m 12,6 km/h (3 Bft) SW 233 2 min 0,000 mm 4,4 UV-I 574 W/m 7,1 C 12,4 C 25,7 km/h (4 Bft) 100,00 %
20.05.2017 13:40 15,3 C 21,7 C 59 % 1019,5 hPa 0,0 l/m 8,9 km/h (2 Bft) S-SW 202 2 min 0,000 mm 3,9 UV-I 606 W/m 7,3 C 14,0 C 16,1 km/h (3 Bft) 98,44 %
20.05.2017 13:42 15,4 C 21,7 C 58 % 1019,5 hPa 0,0 l/m 10,5 km/h (2 Bft) SW 236 2 min 0,000 mm 3,5 UV-I 586 W/m 7,2 C 13,3 C 17,7 km/h (3 Bft) 100,00 %
20.05.2017 13:44 15,4 C 21,7 C 58 % 1019,4 hPa 0,0 l/m 13,2 km/h (3 Bft) W-SW 252 2 min 0,000 mm 3,4 UV-I 522 W/m 7,2 C 12,3 C 17,7 km/h (3 Bft) 97,78 %
20.05.2017 13:46 15,4 C 21,7 C 60 % 1019,4 hPa 0,0 l/m 9,0 km/h (2 Bft) W-SW 249 2 min 0,000 mm 3,5 UV-I 559 W/m 7,7 C 14,0 C 14,5 km/h (3 Bft) 97,73 %
20.05.2017 13:48 15,6 C 21,7 C 58 % 1019,5 hPa 0,0 l/m 17,6 km/h (3 Bft) W 261 2 min 0,000 mm 4,4 UV-I 735 W/m 7,4 C 11,1 C 24,1 km/h (4 Bft) 100,00 %
20.05.2017 13:50 15,6 C 21,7 C 57 % 1019,4 hPa 0,0 l/m 16,7 km/h (3 Bft) W 266 2 min 0,000 mm 4,0 UV-I 739 W/m 7,1 C 11,4 C 27,4 km/h (4 Bft) 100,00 %
20.05.2017 13:52 15,5 C 21,7 C 57 % 1019,4 hPa 0,0 l/m 19,6 km/h (3 Bft) W-SW 244 2 min 0,000 mm 3,7 UV-I 549 W/m 7,0 C 10,5 C 29,0 km/h (5 Bft) 98,21 %
20.05.2017 13:54 15,3 C 21,7 C 58 % 1019,5 hPa 0,0 l/m 16,1 km/h (3 Bft) W-SW 250 2 min 0,000 mm 3,6 UV-I 528 W/m 7,1 C 11,2 C 22,5 km/h (4 Bft) 97,14 %
20.05.2017 13:56 15,2 C 21,7 C 58 % 1019,4 hPa 0,0 l/m 18,6 km/h (3 Bft) W-SW 242 2 min 0,000 mm 3,8 UV-I 589 W/m 7,0 C 10,4 C 25,7 km/h (4 Bft) 95,59 %
20.05.2017 13:58 15,3 C 21,7 C 61 % 1019,4 hPa 0,0 l/m 15,9 km/h (3 Bft) W-SW 249 2 min 0,000 mm 4,2 UV-I 656 W/m 7,8 C 11,3 C 29,0 km/h (5 Bft) 95,45 %
20.05.2017 14:00 15,4 C 21,7 C 58 % 1019,4 hPa 0,0 l/m 13,2 km/h (3 Bft) SW 232 2 min 0,000 mm 3,7 UV-I 574 W/m 7,2 C 12,3 C 19,3 km/h (3 Bft) 97,14 %
20.05.2017 14:02 15,5 C 21,7 C 58 % 1019,4 hPa 0,0 l/m 13,8 km/h (3 Bft) W-NW 298 2 min 0,407 mm 4,6 UV-I 712 W/m 7,3 C 12,2 C 22,5 km/h (4 Bft) 90,57 %
20.05.2017 14:04 15,6 C 21,7 C 57 % 1019,4 hPa 0,0 l/m 21,3 km/h (4 Bft) W-SW 246 2 min 0,000 mm 3,8 UV-I 613 W/m 7,1 C 10,2 C 30,6 km/h (5 Bft) 94,00 %
20.05.2017 14:06 15,6 C 21,7 C 58 % 1019,3 hPa 0,0 l/m 16,4 km/h (3 Bft) W-SW 243 2 min 0,000 mm 3,4 UV-I 544 W/m 7,4 C 11,5 C 25,7 km/h (4 Bft) 97,56 %
20.05.2017 14:08 15,7 C 21,7 C 60 % 1019,3 hPa 0,0 l/m 11,3 km/h (2 Bft) W-SW 256 2 min 0,000 mm 3,9 UV-I 572 W/m 8,0 C 13,3 C 16,1 km/h (3 Bft) 98,21 %
20.05.2017 14:10 15,7 C 21,7 C 57 % 1019,4 hPa 0,0 l/m 17,0 km/h (3 Bft) SW 234 2 min 0,000 mm 4,2 UV-I 614 W/m 7,2 C 11,4 C 22,5 km/h (4 Bft) 97,73 %
20.05.2017 14:12 15,7 C 21,7 C 59 % 1019,4 hPa 0,0 l/m 12,4 km/h (3 Bft) W-SW 246 2 min 0,000 mm 4,0 UV-I 581 W/m 7,7 C 12,9 C 20,9 km/h (4 Bft) 95,45 %
20.05.2017 14:14 15,7 C 21,7 C 58 % 1019,4 hPa 0,0 l/m 12,9 km/h (3 Bft) W 267 2 min 0,000 mm 3,7 UV-I 623 W/m 7,5 C 12,7 C 20,9 km/h (4 Bft) 100,00 %
20.05.2017 14:16 15,8 C 21,7 C 59 % 1019,3 hPa 0,0 l/m 7,5 km/h (2 Bft) W 277 2 min 0,000 mm 3,5 UV-I 616 W/m 7,8 C 15,2 C 17,7 km/h (3 Bft) 97,87 %
20.05.2017 14:18 15,9 C 21,7 C 58 % 1019,3 hPa 0,0 l/m 12,6 km/h (3 Bft) W-SW 254 2 min 0,000 mm 3,3 UV-I 562 W/m 7,6 C 13,1 C 20,9 km/h (4 Bft) 96,61 %
20.05.2017 14:20 16,0 C 21,7 C 57 % 1019,4 hPa 0,0 l/m 17,7 km/h (3 Bft) W-SW 244 2 min 0,000 mm 3,5 UV-I 598 W/m 7,5 C 11,6 C 25,7 km/h (4 Bft) 95,45 %
20.05.2017 14:22 15,9 C 21,7 C 57 % 1019,4 hPa 0,0 l/m 13,9 km/h (3 Bft) W 264 2 min 0,000 mm 3,7 UV-I 663 W/m 7,4 C 12,6 C 25,7 km/h (4 Bft) 100,00 %
20.05.2017 14:24 15,9 C 21,7 C 58 % 1019,4 hPa 0,0 l/m 11,3 km/h (2 Bft) W-SW 257 2 min 0,000 mm 5,1 UV-I 859 W/m 7,6 C 13,6 C 19,3 km/h (3 Bft) 97,56 %
20.05.2017 14:26 16,2 C 21,7 C 57 % 1019,4 hPa 0,0 l/m 12,6 km/h (3 Bft) NW 310 2 min 0,000 mm 5,2 UV-I 874 W/m 7,7 C 13,4 C 19,3 km/h (3 Bft) 98,11 %
20.05.2017 14:28 16,1 C 21,7 C 55 % 1019,3 hPa 0,0 l/m 7,3 km/h (2 Bft) W 266 2 min 0,000 mm 3,2 UV-I 1027 W/m 7,1 C 15,6 C 14,5 km/h (3 Bft) 92,86 %
20.05.2017 14:30 15,9 C 21,7 C 59 % 1019,3 hPa 0,0 l/m 8,3 km/h (2 Bft) W 269 2 min 0,000 mm 3,7 UV-I 542 W/m 7,9 C 14,9 C 19,3 km/h (3 Bft) 97,73 %
20.05.2017 14:32 15,9 C 21,7 C 56 % 1019,3 hPa 0,0 l/m 17,1 km/h (3 Bft) W 269 2 min 0,000 mm 3,7 UV-I 611 W/m 7,1 C 11,7 C 24,1 km/h (4 Bft) 98,11 %
20.05.2017 14:34 15,9 C 21,7 C 57 % 1019,3 hPa 0,0 l/m 12,5 km/h (3 Bft) W-SW 242 2 min 0,000 mm 3,6 UV-I 495 W/m 7,4 C 13,1 C 19,3 km/h (3 Bft) 94,74 %
20.05.2017 14:36 15,9 C 21,7 C 58 % 1019,3 hPa 0,0 l/m 14,0 km/h (3 Bft) SW 234 2 min 0,000 mm 3,7 UV-I 584 W/m 7,6 C 12,6 C 22,5 km/h (4 Bft) 96,00 %
20.05.2017 14:38 16,0 C 21,7 C 57 % 1019,4 hPa 0,0 l/m 10,8 km/h (2 Bft) W-SW 244 2 min 0,000 mm 3,8 UV-I 578 W/m 7,5 C 13,9 C 17,7 km/h (3 Bft) 95,74 %
20.05.2017 14:40 16,1 C 21,7 C 56 % 1019,3 hPa 0,0 l/m 9,6 km/h (2 Bft) W-SW 238 2 min 0,000 mm 3,6 UV-I 578 W/m 7,3 C 14,5 C 17,7 km/h (3 Bft) 92,00 %
20.05.2017 14:42 16,2 C 21,7 C 59 % 1019,4 hPa 0,0 l/m 12,2 km/h (2 Bft) W 259 2 min 0,000 mm 4,2 UV-I 578 W/m 8,2 C 13,6 C 20,9 km/h (4 Bft) 97,56 %
20.05.2017 14:44 16,3 C 21,7 C 56 % 1019,4 hPa 0,0 l/m 17,4 km/h (3 Bft) W-SW 250 2 min 0,000 mm 3,4 UV-I 504 W/m 7,5 C 12,1 C 27,4 km/h (4 Bft) 91,49 %
20.05.2017 14:46 16,2 C 21,7 C 55 % 1019,4 hPa 0,0 l/m 17,4 km/h (3 Bft) W 261 2 min 0,000 mm 4,1 UV-I 550 W/m 7,2 C 12,0 C 32,2 km/h (5 Bft) 94,34 %
20.05.2017 14:48 16,1 C 21,7 C 56 % 1019,3 hPa 0,0 l/m 15,5 km/h (3 Bft) W-NW 284 2 min 0,000 mm 3,8 UV-I 736 W/m 7,3 C 12,4 C 20,9 km/h (4 Bft) 94,74 %
20.05.2017 14:50 16,1 C 21,7 C 56 % 1019,4 hPa 0,0 l/m 16,4 km/h (3 Bft) W 269 2 min 0,000 mm 3,4 UV-I 619 W/m 7,3 C 12,1 C 22,5 km/h (4 Bft) 98,00 %
20.05.2017 14:52 16,0 C 21,7 C 58 % 1019,4 hPa 0,0 l/m 11,1 km/h (2 Bft) SW 227 2 min 0,000 mm 3,3 UV-I 523 W/m 7,7 C 13,8 C 16,1 km/h (3 Bft) 96,00 %
20.05.2017 14:54 16,0 C 21,7 C 57 % 1019,4 hPa 0,0 l/m 12,1 km/h (2 Bft) SW 230 2 min 0,000 mm 3,3 UV-I 466 W/m 7,5 C 13,4 C 19,3 km/h (3 Bft) 97,56 %
20.05.2017 14:56 16,0 C 21,7 C 57 % 1019,4 hPa 0,0 l/m 9,3 km/h (2 Bft) W-SW 246 2 min 0,000 mm 3,1 UV-I 481 W/m 7,5 C 14,5 C 17,7 km/h (3 Bft) 97,73 %
20.05.2017 14:58 16,2 C 21,7 C 59 % 1019,5 hPa 0,0 l/m 8,6 km/h (2 Bft) SW 223 2 min 0,000 mm 3,1 UV-I 514 W/m 8,2 C 15,1 C 16,1 km/h (3 Bft) 96,43 %
20.05.2017 15:00 16,3 C 21,7 C 59 % 1019,4 hPa 0,0 l/m 10,0 km/h (2 Bft) W 275 2 min 0,432 mm 3,3 UV-I 555 W/m 8,3 C 14,6 C 16,1 km/h (3 Bft) 100,00 %
20.05.2017 15:02 16,4 C 21,7 C 58 % 1019,5 hPa 0,0 l/m 15,8 km/h (3 Bft) W-SW 246 2 min 0,000 mm 3,5 UV-I 590 W/m 8,1 C 12,7 C 25,7 km/h (4 Bft) 95,52 %
20.05.2017 15:04 16,4 C 21,7 C 56 % 1019,4 hPa 0,0 l/m 17,5 km/h (3 Bft) SW 232 2 min 0,000 mm 3,1 UV-I 692 W/m 7,6 C 12,2 C 25,7 km/h (4 Bft) 97,62 %
20.05.2017 15:06 16,3 C 21,7 C 56 % 1019,4 hPa 0,0 l/m 15,9 km/h (3 Bft) W-SW 256 0 min 0,000 mm 2,7 UV-I 409 W/m 7,5 C 12,5 C 24,1 km/h (4 Bft) 94,00 %
20.05.2017 15:08 16,2 C 21,7 C 57 % 1019,4 hPa 0,0 l/m 16,5 km/h (3 Bft) S 191 0 min 0,000 mm 2,7 UV-I 397 W/m 7,7 C 12,2 C 24,1 km/h (4 Bft) 90,38 %
20.05.2017 15:10 16,0 C 21,7 C 57 % 1019,4 hPa 0,0 l/m 14,3 km/h (3 Bft) SW 224 0 min 0,000 mm 2,3 UV-I 348 W/m 7,5 C 12,6 C 22,5 km/h (4 Bft) 95,24 %
20.05.2017 15:12 15,9 C 21,7 C 57 % 1019,4 hPa 0,0 l/m 13,0 km/h (3 Bft) W-NW 287 0 min 0,000 mm 2,6 UV-I 403 W/m 7,4 C 12,9 C 19,3 km/h (3 Bft) 97,87 %
20.05.2017 15:14 15,9 C 21,7 C 58 % 1019,4 hPa 0,0 l/m 7,9 km/h (2 Bft) SW 227 2 min 0,000 mm 3,2 UV-I 424 W/m 7,6 C 15,1 C 19,3 km/h (3 Bft) 94,00 %
20.05.2017 15:16 16,1 C 21,7 C 58 % 1019,4 hPa 0,0 l/m 15,3 km/h (3 Bft) SW 233 2 min 0,000 mm 3,3 UV-I 501 W/m 7,8 C 12,4 C 25,7 km/h (4 Bft) 97,37 %
20.05.2017 15:18 16,2 C 21,7 C 57 % 1019,4 hPa 0,0 l/m 14,3 km/h (3 Bft) W-SW 250 2 min 0,000 mm 2,5 UV-I 520 W/m 7,7 C 12,9 C 29,0 km/h (5 Bft) 93,18 %
20.05.2017 15:20 16,2 C 21,7 C 55 % 1019,5 hPa 0,0 l/m 22,0 km/h (4 Bft) W-SW 255 0 min 0,000 mm 2,2 UV-I 387 W/m 7,2 C 10,8 C 29,0 km/h (5 Bft) 95,65 %
20.05.2017 15:22 16,1 C 22,2 C 57 % 1019,3 hPa 0,0 l/m 15,6 km/h (3 Bft) W 261 2 min 0,000 mm 2,9 UV-I 467 W/m 7,6 C 12,3 C 27,4 km/h (4 Bft) 94,64 %
20.05.2017 15:24 16,3 C 22,2 C 56 % 1019,4 hPa 0,0 l/m 15,4 km/h (3 Bft) W-SW 244 2 min 0,000 mm 3,1 UV-I 655 W/m 7,5 C 12,6 C 24,1 km/h (4 Bft) 98,00 %
20.05.2017 15:26 16,2 C 22,2 C 56 % 1019,4 hPa 0,0 l/m 12,6 km/h (3 Bft) SW 224 2 min 0,000 mm 3,4 UV-I 564 W/m 7,4 C 13,4 C 17,7 km/h (3 Bft) 94,74 %
20.05.2017 15:28 16,3 C 22,2 C 56 % 1019,5 hPa 0,0 l/m 22,7 km/h (4 Bft) SW 215 2 min 0,000 mm 3,1 UV-I 564 W/m 7,5 C 10,8 C 32,2 km/h (5 Bft) 98,21 %
20.05.2017 15:30 16,2 C 22,2 C 56 % 1019,4 hPa 0,0 l/m 22,0 km/h (4 Bft) W-SW 238 2 min 0,000 mm 2,8 UV-I 564 W/m 7,4 C 10,8 C 32,2 km/h (5 Bft) 96,15 %
20.05.2017 15:32 16,2 C 22,2 C 57 % 1019,4 hPa 0,0 l/m 13,9 km/h (3 Bft) W-SW 246 2 min 0,000 mm 2,8 UV-I 513 W/m 7,7 C 13,0 C 22,5 km/h (4 Bft) 96,43 %
20.05.2017 15:34 16,3 C 22,2 C 56 % 1019,4 hPa 0,0 l/m 13,2 km/h (3 Bft) S-SW 209 2 min 0,000 mm 2,9 UV-I 499 W/m 7,5 C 13,3 C 20,9 km/h (4 Bft) 94,00 %
20.05.2017 15:36 16,4 C 22,2 C 58 % 1019,4 hPa 0,0 l/m 15,2 km/h (3 Bft) W-SW 248 2 min 0,000 mm 2,9 UV-I 513 W/m 8,1 C 12,8 C 20,9 km/h (4 Bft) 96,00 %
20.05.2017 15:38 16,5 C 22,2 C 56 % 1019,4 hPa 0,0 l/m 17,5 km/h (3 Bft) W 259 2 min 0,000 mm 2,6 UV-I 484 W/m 7,7 C 12,3 C 29,0 km/h (5 Bft) 93,62 %
20.05.2017 15:40 16,4 C 22,2 C 55 % 1019,4 hPa 0,0 l/m 13,7 km/h (3 Bft) W-SW 250 2 min 0,000 mm 2,5 UV-I 449 W/m 7,3 C 13,3 C 22,5 km/h (4 Bft) 93,62 %
20.05.2017 15:42 16,3 C 22,2 C 56 % 1019,4 hPa 0,0 l/m 12,5 km/h (3 Bft) W-SW 240 0 min 0,000 mm 2,3 UV-I 379 W/m 7,5 C 13,6 C 19,3 km/h (3 Bft) 94,34 %
20.05.2017 15:44 16,2 C 22,2 C 58 % 1019,4 hPa 0,0 l/m 10,6 km/h (2 Bft) S-SW 213 0 min 0,000 mm 2,2 UV-I 382 W/m 7,9 C 14,2 C 16,1 km/h (3 Bft) 97,87 %
20.05.2017 15:46 16,2 C 22,2 C 57 % 1019,5 hPa 0,0 l/m 16,7 km/h (3 Bft) W-SW 239 2 min 0,000 mm 2,3 UV-I 410 W/m 7,7 C 12,1 C 24,1 km/h (4 Bft) 93,33 %
20.05.2017 15:48 16,3 C 22,2 C 56 % 1019,4 hPa 0,0 l/m 11,5 km/h (2 Bft) W-NW 285 2 min 0,000 mm 2,4 UV-I 426 W/m 7,5 C 14,0 C 24,1 km/h (4 Bft) 97,96 %
20.05.2017 15:50 16,2 C 22,2 C 56 % 1019,4 hPa 0,0 l/m 9,8 km/h (2 Bft) W 274 2 min 0,000 mm 2,3 UV-I 405 W/m 7,4 C 14,5 C 19,3 km/h (3 Bft) 97,44 %
20.05.2017 15:52 16,3 C 22,2 C 56 % 1019,5 hPa 0,0 l/m 17,7 km/h (3 Bft) W-SW 251 2 min 0,000 mm 2,4 UV-I 447 W/m 7,5 C 12,0 C 30,6 km/h (5 Bft) 95,74 %
20.05.2017 15:54 16,2 C 22,2 C 55 % 1019,5 hPa 0,0 l/m 14,4 km/h (3 Bft) W-SW 237 2 min 0,000 mm 2,2 UV-I 387 W/m 7,2 C 12,8 C 22,5 km/h (4 Bft) 95,74 %
20.05.2017 15:56 16,2 C 22,2 C 57 % 1019,6 hPa 0,0 l/m 10,6 km/h (2 Bft) W-SW 237 2 min 0,000 mm 2,2 UV-I 389 W/m 7,7 C 14,2 C 16,1 km/h (3 Bft) 97,73 %
20.05.2017 15:58 16,2 C 22,2 C 57 % 1019,5 hPa 0,0 l/m 13,7 km/h (3 Bft) NW 321 0 min 0,000 mm 2,2 UV-I 367 W/m 7,7 C 13,1 C 20,9 km/h (4 Bft) 96,43 %
20.05.2017 16:00 16,1 C 22,2 C 56 % 1019,5 hPa 0,0 l/m 13,2 km/h (3 Bft) SW 236 0 min 0,000 mm 2,1 UV-I 375 W/m 7,3 C 13,1 C 20,9 km/h (4 Bft) 96,15 %
20.05.2017 16:02 16,1 C 22,2 C 56 % 1019,5 hPa 0,0 l/m 10,5 km/h (2 Bft) W 260 0 min 0,355 mm 2,0 UV-I 351 W/m 7,3 C 14,1 C 20,9 km/h (4 Bft) 95,59 %
20.05.2017 16:04 16,1 C 22,2 C 56 % 1019,5 hPa 0,0 l/m 14,2 km/h (3 Bft) W-NW 292 2 min 0,000 mm 2,0 UV-I 387 W/m 7,3 C 12,8 C 22,5 km/h (4 Bft) 93,62 %
20.05.2017 16:06 16,0 C 22,2 C 55 % 1019,5 hPa 0,0 l/m 9,4 km/h (2 Bft) SW 233 0 min 0,000 mm 2,0 UV-I 371 W/m 7,0 C 14,5 C 17,7 km/h (3 Bft) 100,00 %
20.05.2017 16:08 16,1 C 22,2 C 56 % 1019,5 hPa 0,0 l/m 12,0 km/h (2 Bft) NW 325 2 min 0,000 mm 2,2 UV-I 411 W/m 7,3 C 13,5 C 20,9 km/h (4 Bft) 94,64 %
20.05.2017 16:10 16,2 C 22,2 C 56 % 1019,5 hPa 0,0 l/m 7,0 km/h (2 Bft) W-SW 250 2 min 0,000 mm 2,4 UV-I 369 W/m 7,4 C 15,9 C 14,5 km/h (3 Bft) 94,74 %
20.05.2017 16:12 16,5 C 22,2 C 57 % 1019,5 hPa 0,0 l/m 7,8 km/h (2 Bft) W 259 2 min 0,000 mm 2,7 UV-I 639 W/m 8,0 C 15,8 C 20,9 km/h (4 Bft) 92,45 %
20.05.2017 16:14 16,6 C 22,2 C 55 % 1019,6 hPa 0,0 l/m 17,3 km/h (3 Bft) SW 230 2 min 0,000 mm 2,1 UV-I 432 W/m 7,5 C 12,5 C 27,4 km/h (4 Bft) 90,24 %
20.05.2017 16:16 16,6 C 22,2 C 54 % 1019,5 hPa 0,0 l/m 16,0 km/h (3 Bft) W 260 2 min 0,000 mm 1,9 UV-I 394 W/m 7,3 C 12,8 C 24,1 km/h (4 Bft) 92,00 %
20.05.2017 16:18 16,6 C 22,2 C 55 % 1019,5 hPa 0,0 l/m 16,3 km/h (3 Bft) W 273 0 min 0,000 mm 1,7 UV-I 344 W/m 7,5 C 12,8 C 25,7 km/h (4 Bft) 92,45 %
20.05.2017 16:20 16,4 C 22,2 C 54 % 1019,6 hPa 0,0 l/m 19,3 km/h (3 Bft) SW 218 0 min 0,000 mm 1,6 UV-I 311 W/m 7,1 C 11,7 C 27,4 km/h (4 Bft) 95,45 %
20.05.2017 16:22 16,3 C 22,2 C 55 % 1019,6 hPa 0,0 l/m 15,7 km/h (3 Bft) W 263 0 min 0,000 mm 1,6 UV-I 310 W/m 7,2 C 12,6 C 22,5 km/h (4 Bft) 95,74 %
20.05.2017 16:24 16,2 C 22,2 C 56 % 1019,5 hPa 0,0 l/m 11,2 km/h (2 Bft) NW 314 0 min 0,000 mm 1,6 UV-I 312 W/m 7,4 C 14,0 C 19,3 km/h (3 Bft) 94,87 %
20.05.2017 16:26 16,2 C 22,2 C 56 % 1019,6 hPa 0,0 l/m 14,0 km/h (3 Bft) W-SW 254 0 min 0,000 mm 1,5 UV-I 285 W/m 7,4 C 13,0 C 24,1 km/h (4 Bft) 94,00 %
20.05.2017 16:28 16,1 C 22,2 C 57 % 1019,6 hPa 0,0 l/m 16,9 km/h (3 Bft) W-SW 246 0 min 0,000 mm 1,5 UV-I 279 W/m 7,6 C 12,0 C 30,6 km/h (5 Bft) 90,24 %
20.05.2017 16:30 16,1 C 22,2 C 57 % 1019,6 hPa 0,0 l/m 18,9 km/h (3 Bft) W-SW 253 0 min 0,000 mm 1,5 UV-I 284 W/m 7,6 C 11,4 C 27,4 km/h (4 Bft) 88,68 %
20.05.2017 16:32 16,1 C 22,2 C 57 % 1019,6 hPa 0,0 l/m 13,7 km/h (3 Bft) W-SW 246 0 min 0,000 mm 1,4 UV-I 282 W/m 7,6 C 12,9 C 19,3 km/h (3 Bft) 90,24 %
20.05.2017 16:34 16,1 C 22,2 C 56 % 1019,6 hPa 0,0 l/m 13,0 km/h (3 Bft) W 273 0 min 0,000 mm 1,3 UV-I 272 W/m 7,3 C 13,2 C 20,9 km/h (4 Bft) 98,11 %
20.05.2017 16:36 15,9 C 22,2 C 56 % 1019,6 hPa 0,0 l/m 12,6 km/h (3 Bft) W 267 0 min 0,000 mm 1,3 UV-I 278 W/m 7,1 C 13,1 C 20,9 km/h (4 Bft) 94,00 %
20.05.2017 16:38 16,0 C 22,2 C 57 % 1019,7 hPa 0,0 l/m 13,2 km/h (3 Bft) W-SW 253 0 min 0,000 mm 1,3 UV-I 289 W/m 7,5 C 13,0 C 22,5 km/h (4 Bft) 96,00 %
20.05.2017 16:40 16,0 C 22,2 C 55 % 1019,7 hPa 0,0 l/m 13,5 km/h (3 Bft) W-SW 241 0 min 0,000 mm 1,3 UV-I 289 W/m 7,0 C 12,9 C 27,4 km/h (4 Bft) 97,73 %
20.05.2017 16:42 16,0 C 22,2 C 55 % 1019,7 hPa 0,0 l/m 16,0 km/h (3 Bft) W 263 0 min 0,000 mm 1,2 UV-I 265 W/m 7,0 C 12,1 C 22,5 km/h (4 Bft) 95,45 %
20.05.2017 16:44 16,0 C 22,2 C 56 % 1019,7 hPa 0,0 l/m 19,4 km/h (3 Bft) W-SW 250 0 min 0,000 mm 1,2 UV-I 267 W/m 7,2 C 11,2 C 24,1 km/h (4 Bft) 93,18 %
20.05.2017 16:46 15,9 C 22,2 C 56 % 1019,7 hPa 0,0 l/m 18,6 km/h (3 Bft) W 267 0 min 0,000 mm 1,1 UV-I 246 W/m 7,1 C 11,3 C 27,4 km/h (4 Bft) 92,45 %
20.05.2017 16:48 15,9 C 22,2 C 58 % 1019,7 hPa 0,0 l/m 15,3 km/h (3 Bft) W-SW 248 0 min 0,000 mm 1,0 UV-I 221 W/m 7,6 C 12,2 C 24,1 km/h (4 Bft) 100,00 %
20.05.2017 16:50 15,9 C 22,2 C 57 % 1019,7 hPa 0,0 l/m 15,6 km/h (3 Bft) W 264 0 min 0,000 mm 0,9 UV-I 200 W/m 7,4 C 12,1 C 22,5 km/h (4 Bft) 98,00 %
20.05.2017 16:52 15,9 C 22,2 C 58 % 1019,8 hPa 0,0 l/m 18,1 km/h (3 Bft) W 259 0 min 0,000 mm 0,8 UV-I 185 W/m 7,6 C 11,4 C 25,7 km/h (4 Bft) 87,80 %
20.05.2017 16:54 15,8 C 22,2 C 58 % 1019,7 hPa 0,0 l/m 16,0 km/h (3 Bft) W-SW 252 0 min 0,000 mm 0,7 UV-I 176 W/m 7,6 C 11,9 C 20,9 km/h (4 Bft) 95,45 %
20.05.2017 16:56 15,8 C 22,2 C 56 % 1019,7 hPa 0,0 l/m 18,4 km/h (3 Bft) SW 236 0 min 0,000 mm 0,7 UV-I 177 W/m 7,0 C 11,2 C 27,4 km/h (4 Bft) 100,00 %
20.05.2017 16:58 15,8 C 22,2 C 57 % 1019,7 hPa 0,0 l/m 13,9 km/h (3 Bft) W 279 0 min 0,000 mm 0,7 UV-I 185 W/m 7,3 C 12,5 C 20,9 km/h (4 Bft) 100,00 %
20.05.2017 17:00 15,8 C 22,2 C 57 % 1019,8 hPa 0,0 l/m 15,7 km/h (3 Bft) W-SW 255 0 min 0,254 mm 0,8 UV-I 185 W/m 7,3 C 11,9 C 22,5 km/h (4 Bft) 87,80 %
20.05.2017 17:02 15,8 C 22,2 C 57 % 1019,8 hPa 0,0 l/m 8,3 km/h (2 Bft) W 278 0 min 0,000 mm 0,7 UV-I 179 W/m 7,3 C 14,8 C 24,1 km/h (4 Bft) 95,83 %
20.05.2017 17:04 15,8 C 22,2 C 55 % 1019,8 hPa 0,0 l/m 13,9 km/h (3 Bft) W-SW 242 0 min 0,000 mm 0,7 UV-I 183 W/m 6,8 C 12,5 C 24,1 km/h (4 Bft) 100,00 %
20.05.2017 17:06 15,8 C 22,2 C 53 % 1019,8 hPa 0,0 l/m 13,6 km/h (3 Bft) W-SW 252 0 min 0,000 mm 0,8 UV-I 195 W/m 6,2 C 12,6 C 25,7 km/h (4 Bft) 95,83 %
20.05.2017 17:08 15,8 C 22,2 C 55 % 1019,8 hPa 0,0 l/m 8,6 km/h (2 Bft) W-SW 254 0 min 0,000 mm 0,8 UV-I 202 W/m 6,8 C 14,6 C 12,9 km/h (3 Bft) 97,14 %
20.05.2017 17:10 15,8 C 22,2 C 55 % 1019,8 hPa 0,0 l/m 15,3 km/h (3 Bft) W 263 0 min 0,000 mm 0,7 UV-I 195 W/m 6,8 C 12,1 C 24,1 km/h (4 Bft) 97,56 %
20.05.2017 17:13 15,9 C 22,2 C 55 % 1019,8 hPa 0,0 l/m 11,3 km/h (2 Bft) W 262 0 min 0,000 mm 0,7 UV-I 180 W/m 6,9 C 13,6 C 17,7 km/h (3 Bft) 98,68 %
20.05.2017 17:14 15,9 C 22,2 C 56 % 1019,8 hPa 0,0 l/m 14,5 km/h (3 Bft) W-NW 290 0 min 0,000 mm 0,6 UV-I 167 W/m 7,1 C 12,4 C 17,7 km/h (3 Bft) 95,83 %
20.05.2017 17:16 15,8 C 22,2 C 55 % 1019,8 hPa 0,0 l/m 8,9 km/h (2 Bft) SW 216 0 min 0,000 mm 0,6 UV-I 169 W/m 6,8 C 14,5 C 17,7 km/h (3 Bft) 97,56 %
20.05.2017 17:18 15,8 C 22,2 C 57 % 1019,8 hPa 0,0 l/m 9,2 km/h (2 Bft) W-SW 238 0 min 0,000 mm 0,7 UV-I 175 W/m 7,3 C 14,4 C 16,1 km/h (3 Bft) 95,74 %
20.05.2017 17:20 15,8 C 22,2 C 57 % 1019,8 hPa 0,0 l/m 9,7 km/h (2 Bft) W-SW 240 0 min 0,000 mm 0,7 UV-I 191 W/m 7,3 C 14,1 C 14,5 km/h (3 Bft) 97,56 %
20.05.2017 17:22 15,8 C 22,2 C 56 % 1019,8 hPa 0,0 l/m 8,7 km/h (2 Bft) W-SW 237 0 min 0,000 mm 0,7 UV-I 212 W/m 7,0 C 14,6 C 14,5 km/h (3 Bft) 90,74 %
20.05.2017 17:24 15,9 C 22,2 C 56 % 1019,8 hPa 0,0 l/m 17,1 km/h (3 Bft) W-SW 250 0 min 0,000 mm 0,7 UV-I 199 W/m 7,1 C 11,7 C 24,1 km/h (4 Bft) 97,37 %
20.05.2017 17:26 15,9 C 22,2 C 55 % 1019,8 hPa 0,0 l/m 15,2 km/h (3 Bft) W-SW 240 0 min 0,000 mm 0,7 UV-I 187 W/m 6,9 C 12,2 C 22,5 km/h (4 Bft) 94,34 %
20.05.2017 17:28 15,9 C 22,2 C 56 % 1019,8 hPa 0,0 l/m 13,7 km/h (3 Bft) W-SW 252 0 min 0,000 mm 0,8 UV-I 198 W/m 7,1 C 12,7 C 19,3 km/h (3 Bft) 100,00 %
20.05.2017 17:30 15,9 C 22,2 C 55 % 1019,8 hPa 0,0 l/m 8,9 km/h (2 Bft) W-SW 240 0 min 0,000 mm 0,7 UV-I 190 W/m 6,9 C 14,6 C 12,9 km/h (3 Bft) 94,34 %
20.05.2017 17:32 15,9 C 22,2 C 55 % 1019,7 hPa 0,0 l/m 9,6 km/h (2 Bft) W-SW 257 0 min 0,000 mm 0,7 UV-I 182 W/m 6,9 C 14,3 C 20,9 km/h (4 Bft) 96,00 %
20.05.2017 17:34 16,0 C 22,2 C 56 % 1019,7 hPa 0,0 l/m 10,3 km/h (2 Bft) W-SW 244 0 min 0,000 mm 0,7 UV-I 182 W/m 7,2 C 14,1 C 14,5 km/h (3 Bft) 97,56 %
20.05.2017 17:36 15,9 C 22,2 C 55 % 1019,8 hPa 0,0 l/m 7,9 km/h (2 Bft) W-SW 250 0 min 0,000 mm 0,8 UV-I 184 W/m 6,9 C 15,1 C 12,9 km/h (3 Bft) 96,00 %
20.05.2017 17:38 16,0 C 22,2 C 55 % 1019,7 hPa 0,0 l/m 10,1 km/h (2 Bft) W-SW 252 0 min 0,000 mm 0,7 UV-I 186 W/m 7,0 C 14,2 C 14,5 km/h (3 Bft) 95,12 %
20.05.2017 17:40 16,0 C 22,2 C 55 % 1019,7 hPa 0,0 l/m 10,9 km/h (2 Bft) W-SW 252 0 min 0,000 mm 0,7 UV-I 197 W/m 7,0 C 13,8 C 17,7 km/h (3 Bft) 94,34 %
20.05.2017 17:42 16,1 C 22,2 C 54 % 1019,7 hPa 0,0 l/m 13,2 km/h (3 Bft) W-SW 254 0 min 0,000 mm 0,7 UV-I 206 W/m 6,8 C 13,1 C 17,7 km/h (3 Bft) 97,62 %
20.05.2017 17:44 16,1 C 22,2 C 55 % 1019,8 hPa 0,0 l/m 12,0 km/h (2 Bft) W-SW 255 0 min 0,000 mm 0,7 UV-I 201 W/m 7,1 C 13,5 C 17,7 km/h (3 Bft) 100,00 %
20.05.2017 17:46 16,1 C 22,2 C 55 % 1019,8 hPa 0,0 l/m 12,6 km/h (3 Bft) W 267 0 min 0,000 mm 0,6 UV-I 202 W/m 7,1 C 13,3 C 19,3 km/h (3 Bft) 96,23 %
20.05.2017 17:48 16,1 C 22,2 C 56 % 1019,8 hPa 0,0 l/m 8,6 km/h (2 Bft) W-SW 237 0 min 0,000 mm 0,6 UV-I 208 W/m 7,3 C 15,0 C 17,7 km/h (3 Bft) 97,56 %
20.05.2017 17:50 16,2 C 22,2 C 56 % 1019,8 hPa 0,0 l/m 11,3 km/h (2 Bft) W-SW 240 0 min 0,000 mm 0,6 UV-I 212 W/m 7,4 C 13,9 C 16,1 km/h (3 Bft) 95,74 %
20.05.2017 17:52 16,2 C 22,2 C 54 % 1019,8 hPa 0,0 l/m 13,7 km/h (3 Bft) SW 223 0 min 0,000 mm 0,6 UV-I 215 W/m 6,9 C 13,1 C 19,3 km/h (3 Bft) 100,00 %
20.05.2017 17:54 16,2 C 22,2 C 54 % 1019,8 hPa 0,0 l/m 10,6 km/h (2 Bft) SW 217 0 min 0,000 mm 0,6 UV-I 206 W/m 6,9 C 14,2 C 14,5 km/h (3 Bft) 92,11 %
20.05.2017 17:56 16,2 C 22,2 C 54 % 1019,8 hPa 0,0 l/m 8,5 km/h (2 Bft) W-SW 246 0 min 0,000 mm 0,6 UV-I 200 W/m 6,9 C 15,1 C 14,5 km/h (3 Bft) 97,73 %
20.05.2017 17:58 16,2 C 22,2 C 54 % 1019,9 hPa 0,0 l/m 10,4 km/h (2 Bft) W-NW 288 0 min 0,000 mm 0,6 UV-I 209 W/m 6,9 C 14,3 C 17,7 km/h (3 Bft) 100,00 %
20.05.2017 18:00 16,2 C 22,2 C 53 % 1019,8 hPa 0,0 l/m 9,8 km/h (2 Bft) W-SW 257 2 min 0,000 mm 0,6 UV-I 263 W/m 6,6 C 14,5 C 16,1 km/h (3 Bft) 100,00 %
20.05.2017 18:02 16,3 C 22,2 C 54 % 1019,8 hPa 0,0 l/m 6,9 km/h (2 Bft) W-SW 239 2 min 0,178 mm 0,6 UV-I 225 W/m 7,0 C 16,0 C 11,3 km/h (2 Bft) 92,11 %
20.05.2017 18:04 16,4 C 22,2 C 52 % 1019,8 hPa 0,0 l/m 14,4 km/h (3 Bft) W 259 2 min 0,000 mm 0,6 UV-I 317 W/m 6,5 C 13,1 C 22,5 km/h (4 Bft) 96,00 %
20.05.2017 18:06 16,4 C 22,2 C 53 % 1019,8 hPa 0,0 l/m 12,3 km/h (3 Bft) SW 229 0 min 0,000 mm 0,3 UV-I 209 W/m 6,8 C 13,8 C 20,9 km/h (4 Bft) 96,23 %
20.05.2017 18:08 16,4 C 22,2 C 52 % 1019,7 hPa 0,0 l/m 12,1 km/h (2 Bft) W 273 0 min 0,000 mm 0,0 UV-I 173 W/m 6,5 C 13,8 C 17,7 km/h (3 Bft) 97,56 %
20.05.2017 18:10 16,3 C 22,2 C 52 % 1019,8 hPa 0,0 l/m 10,6 km/h (2 Bft) W-SW 246 0 min 0,000 mm 0,0 UV-I 181 W/m 6,4 C 14,3 C 17,7 km/h (3 Bft) 96,23 %
20.05.2017 18:12 16,3 C 22,2 C 53 % 1019,8 hPa 0,0 l/m 10,5 km/h (2 Bft) W 269 0 min 0,000 mm 0,0 UV-I 177 W/m 6,7 C 14,3 C 19,3 km/h (3 Bft) 92,11 %
20.05.2017 18:14 16,3 C 22,2 C 53 % 1019,8 hPa 0,0 l/m 16,6 km/h (3 Bft) W 277 0 min 0,000 mm 0,0 UV-I 185 W/m 6,7 C 12,3 C 22,5 km/h (4 Bft) 98,00 %
20.05.2017 18:16 16,3 C 22,2 C 53 % 1019,8 hPa 0,0 l/m 10,4 km/h (2 Bft) W 262 0 min 0,000 mm 0,0 UV-I 193 W/m 6,7 C 14,4 C 16,1 km/h (3 Bft) 97,87 %
20.05.2017 18:18 16,3 C 22,2 C 54 % 1019,8 hPa 0,0 l/m 9,2 km/h (2 Bft) W-SW 245 0 min 0,000 mm 0,0 UV-I 178 W/m 7,0 C 14,9 C 14,5 km/h (3 Bft) 96,00 %
20.05.2017 18:20 16,3 C 22,2 C 53 % 1019,8 hPa 0,0 l/m 8,3 km/h (2 Bft) W-NW 285 0 min 0,000 mm 0,0 UV-I 170 W/m 6,7 C 15,3 C 14,5 km/h (3 Bft) 97,44 %
20.05.2017 18:22 16,3 C 22,2 C 54 % 1019,8 hPa 0,0 l/m 10,7 km/h (2 Bft) W-SW 239 0 min 0,000 mm 0,0 UV-I 163 W/m 7,0 C 14,3 C 17,7 km/h (3 Bft) 98,00 %
20.05.2017 18:24 16,3 C 22,2 C 54 % 1019,8 hPa 0,0 l/m 13,1 km/h (3 Bft) W 281 0 min 0,000 mm 0,0 UV-I 151 W/m 7,0 C 13,4 C 20,9 km/h (4 Bft) 96,00 %
20.05.2017 18:26 16,2 C 22,2 C 54 % 1019,8 hPa 0,0 l/m 12,2 km/h (2 Bft) SW 226 0 min 0,000 mm 0,0 UV-I 146 W/m 6,9 C 13,6 C 20,9 km/h (4 Bft) 89,36 %
20.05.2017 18:28 16,2 C 22,2 C 55 % 1019,8 hPa 0,0 l/m 11,9 km/h (2 Bft) W-SW 254 0 min 0,000 mm 0,0 UV-I 144 W/m 7,2 C 13,7 C 17,7 km/h (3 Bft) 97,56 %
20.05.2017 18:30 16,2 C 22,2 C 55 % 1019,8 hPa 0,0 l/m 12,2 km/h (2 Bft) W-NW 283 0 min 0,000 mm 0,0 UV-I 140 W/m 7,2 C 13,6 C 17,7 km/h (3 Bft) 94,00 %
20.05.2017 18:32 16,2 C 22,2 C 54 % 1019,8 hPa 0,0 l/m 13,9 km/h (3 Bft) W 259 0 min 0,000 mm 0,0 UV-I 135 W/m 6,9 C 13,0 C 22,5 km/h (4 Bft) 92,68 %
20.05.2017 18:34 16,1 C 22,2 C 54 % 1019,8 hPa 0,0 l/m 9,9 km/h (2 Bft) W-SW 253 0 min 0,000 mm 0,0 UV-I 130 W/m 6,8 C 14,4 C 17,7 km/h (3 Bft) 92,86 %
20.05.2017 18:36 16,1 C 22,2 C 54 % 1019,8 hPa 0,0 l/m 15,1 km/h (3 Bft) W 280 0 min 0,000 mm 0,0 UV-I 123 W/m 6,8 C 12,5 C 20,9 km/h (4 Bft) 94,29 %
20.05.2017 18:38 16,1 C 22,2 C 55 % 1019,8 hPa 0,0 l/m 8,5 km/h (2 Bft) W-SW 248 0 min 0,000 mm 0,0 UV-I 116 W/m 7,1 C 15,0 C 14,5 km/h (3 Bft) 100,00 %
20.05.2017 18:40 16,1 C 22,2 C 56 % 1019,8 hPa 0,0 l/m 11,6 km/h (2 Bft) W 260 0 min 0,000 mm 0,0 UV-I 116 W/m 7,3 C 13,7 C 16,1 km/h (3 Bft) 100,00 %
20.05.2017 18:42 16,1 C 22,2 C 55 % 1019,8 hPa 0,0 l/m 12,2 km/h (2 Bft) W-SW 249 0 min 0,000 mm 0,0 UV-I 120 W/m 7,1 C 13,5 C 17,7 km/h (3 Bft) 98,11 %
20.05.2017 18:44 16,1 C 22,2 C 56 % 1019,9 hPa 0,0 l/m 14,6 km/h (3 Bft) W-NW 296 0 min 0,000 mm 0,0 UV-I 121 W/m 7,3 C 12,6 C 20,9 km/h (4 Bft) 92,11 %
20.05.2017 18:46 16,1 C 22,2 C 55 % 1019,8 hPa 0,0 l/m 13,8 km/h (3 Bft) W-SW 248 0 min 0,000 mm 0,0 UV-I 120 W/m 7,1 C 12,9 C 19,3 km/h (3 Bft) 100,00 %
20.05.2017 18:48 16,1 C 22,2 C 55 % 1019,9 hPa 0,0 l/m 10,0 km/h (2 Bft) W-SW 255 0 min 0,000 mm 0,0 UV-I 118 W/m 7,1 C 14,3 C 17,7 km/h (3 Bft) 100,00 %
20.05.2017 18:50 16,1 C 22,2 C 55 % 1019,8 hPa 0,0 l/m 9,1 km/h (2 Bft) W-SW 238 0 min 0,000 mm 0,0 UV-I 117 W/m 7,1 C 14,7 C 16,1 km/h (3 Bft) 97,37 %
20.05.2017 18:52 16,1 C 22,2 C 55 % 1019,8 hPa 0,0 l/m 10,4 km/h (2 Bft) W-SW 243 0 min 0,000 mm 0,0 UV-I 114 W/m 7,1 C 14,2 C 14,5 km/h (3 Bft) 91,07 %
20.05.2017 18:54 16,1 C 22,2 C 56 % 1019,9 hPa 0,0 l/m 11,5 km/h (2 Bft) W-SW 252 0 min 0,000 mm 0,0 UV-I 106 W/m 7,3 C 13,7 C 17,7 km/h (3 Bft) 100,00 %
20.05.2017 18:56 16,0 C 22,2 C 55 % 1019,8 hPa 0,0 l/m 15,1 km/h (3 Bft) W-SW 246 0 min 0,000 mm 0,0 UV-I 98 W/m 7,0 C 12,4 C 22,5 km/h (4 Bft) 100,00 %
20.05.2017 18:58 16,0 C 22,2 C 56 % 1019,9 hPa 0,0 l/m 13,1 km/h (3 Bft) S-SW 208 0 min 0,000 mm 0,0 UV-I 88 W/m 7,2 C 13,0 C 17,7 km/h (3 Bft) 98,11 %
20.05.2017 19:00 15,9 C 22,2 C 56 % 1019,9 hPa 0,0 l/m 11,3 km/h (2 Bft) W-SW 246 0 min 0,000 mm 0,0 UV-I 84 W/m 7,1 C 13,6 C 16,1 km/h (3 Bft) 96,15 %
20.05.2017 19:02 15,9 C 22,2 C 57 % 1019,9 hPa 0,0 l/m 12,0 km/h (2 Bft) W 273 0 min 0,152 mm 0,0 UV-I 83 W/m 7,4 C 13,3 C 17,7 km/h (3 Bft) 100,00 %
20.05.2017 19:04 15,9 C 22,2 C 57 % 1019,9 hPa 0,0 l/m 12,0 km/h (2 Bft) W-SW 252 0 min 0,000 mm 0,0 UV-I 83 W/m 7,4 C 13,3 C 19,3 km/h (3 Bft) 98,04 %
20.05.2017 19:06 15,9 C 22,2 C 56 % 1019,9 hPa 0,0 l/m 16,1 km/h (3 Bft) W 266 0 min 0,000 mm 0,0 UV-I 83 W/m 7,1 C 11,9 C 25,7 km/h (4 Bft) 100,00 %
20.05.2017 19:08 15,9 C 22,2 C 56 % 1020,0 hPa 0,0 l/m 12,7 km/h (3 Bft) W 269 0 min 0,000 mm 0,0 UV-I 79 W/m 7,1 C 13,1 C 20,9 km/h (4 Bft) 100,00 %
20.05.2017 19:10 15,9 C 22,2 C 57 % 1020,0 hPa 0,0 l/m 11,1 km/h (2 Bft) W-SW 252 0 min 0,000 mm 0,0 UV-I 72 W/m 7,4 C 13,7 C 16,1 km/h (3 Bft) 100,00 %
20.05.2017 19:13 15,8 C 22,2 C 57 % 1020,0 hPa 0,0 l/m 10,0 km/h (2 Bft) W-SW 250 0 min 0,000 mm 0,0 UV-I 63 W/m 7,3 C 14,0 C 16,1 km/h (3 Bft) 94,74 %
20.05.2017 19:14 15,8 C 22,2 C 57 % 1020,0 hPa 0,0 l/m 6,4 km/h (2 Bft) W-SW 252 0 min 0,000 mm 0,0 UV-I 60 W/m 7,3 C 15,8 C 12,9 km/h (3 Bft) 95,83 %
20.05.2017 19:16 15,8 C 22,2 C 57 % 1020,1 hPa 0,0 l/m 10,1 km/h (2 Bft) W-SW 250 0 min 0,000 mm 0,0 UV-I 61 W/m 7,3 C 14,0 C 14,5 km/h (3 Bft) 97,37 %
20.05.2017 19:18 15,8 C 22,2 C 58 % 1020,1 hPa 0,0 l/m 10,4 km/h (2 Bft) SW 215 0 min 0,000 mm 0,0 UV-I 62 W/m 7,6 C 13,8 C 16,1 km/h (3 Bft) 96,23 %
20.05.2017 19:20 15,8 C 22,2 C 58 % 1020,1 hPa 0,0 l/m 7,4 km/h (2 Bft) W-SW 239 0 min 0,000 mm 0,0 UV-I 60 W/m 7,6 C 15,3 C 11,3 km/h (2 Bft) 94,00 %
20.05.2017 19:22 15,8 C 22,2 C 58 % 1020,2 hPa 0,0 l/m 10,1 km/h (2 Bft) W-SW 240 0 min 0,000 mm 0,0 UV-I 58 W/m 7,6 C 14,0 C 14,5 km/h (3 Bft) 95,12 %
20.05.2017 19:24 15,8 C 22,2 C 57 % 1020,2 hPa 0,0 l/m 13,4 km/h (3 Bft) W 263 0 min 0,000 mm 0,0 UV-I 57 W/m 7,3 C 12,7 C 19,3 km/h (3 Bft) 96,00 %
20.05.2017 19:26 15,8 C 22,2 C 58 % 1020,2 hPa 0,0 l/m 7,5 km/h (2 Bft) W-SW 252 0 min 0,000 mm 0,0 UV-I 54 W/m 7,6 C 15,2 C 11,3 km/h (2 Bft) 95,12 %
20.05.2017 19:28 15,8 C 22,2 C 58 % 1020,2 hPa 0,0 l/m 9,3 km/h (2 Bft) SW 236 0 min 0,000 mm 0,0 UV-I 50 W/m 7,6 C 14,3 C 14,5 km/h (3 Bft) 97,87 %
20.05.2017 19:30 15,7 C 22,2 C 58 % 1020,3 hPa 0,0 l/m 9,6 km/h (2 Bft) W 261 0 min 0,000 mm 0,0 UV-I 47 W/m 7,5 C 14,1 C 17,7 km/h (3 Bft) 89,36 %
20.05.2017 19:32 15,7 C 22,2 C 58 % 1020,3 hPa 0,0 l/m 12,4 km/h (3 Bft) W-NW 282 0 min 0,000 mm 0,0 UV-I 45 W/m 7,5 C 12,9 C 19,3 km/h (3 Bft) 93,62 %
20.05.2017 19:34 15,7 C 22,2 C 58 % 1020,4 hPa 0,0 l/m 10,8 km/h (2 Bft) W-SW 250 0 min 0,000 mm 0,0 UV-I 42 W/m 7,5 C 13,6 C 14,5 km/h (3 Bft) 95,24 %
20.05.2017 19:36 15,8 C 22,2 C 59 % 1020,4 hPa 0,0 l/m 10,1 km/h (2 Bft) W-SW 254 0 min 0,000 mm 0,0 UV-I 40 W/m 7,8 C 14,0 C 16,1 km/h (3 Bft) 96,55 %
20.05.2017 19:38 15,7 C 22,2 C 58 % 1020,4 hPa 0,0 l/m 9,0 km/h (2 Bft) W-SW 254 0 min 0,000 mm 0,0 UV-I 40 W/m 7,5 C 14,3 C 16,1 km/h (3 Bft) 96,30 %
20.05.2017 19:40 15,7 C 22,2 C 58 % 1020,4 hPa 0,0 l/m 11,1 km/h (2 Bft) W-SW 247 0 min 0,000 mm 0,0 UV-I 39 W/m 7,5 C 13,4 C 17,7 km/h (3 Bft) 96,43 %
20.05.2017 19:42 15,7 C 22,2 C 58 % 1020,4 hPa 0,0 l/m 10,3 km/h (2 Bft) W 260 0 min 0,000 mm 0,0 UV-I 39 W/m 7,5 C 13,8 C 14,5 km/h (3 Bft) 96,23 %
20.05.2017 19:44 15,7 C 22,2 C 58 % 1020,4 hPa 0,0 l/m 13,6 km/h (3 Bft) SW 236 0 min 0,000 mm 0,0 UV-I 37 W/m 7,5 C 12,5 C 25,7 km/h (4 Bft) 93,62 %
20.05.2017 19:46 15,7 C 22,2 C 58 % 1020,4 hPa 0,0 l/m 9,2 km/h (2 Bft) W-SW 256 0 min 0,000 mm 0,0 UV-I 35 W/m 7,5 C 14,3 C 12,9 km/h (3 Bft) 92,45 %
20.05.2017 19:48 15,7 C 22,2 C 59 % 1020,5 hPa 0,0 l/m 10,5 km/h (2 Bft) SW 233 0 min 0,000 mm 0,0 UV-I 33 W/m 7,7 C 13,7 C 14,5 km/h (3 Bft) 97,56 %
20.05.2017 19:50 15,6 C 22,2 C 58 % 1020,5 hPa 0,0 l/m 10,1 km/h (2 Bft) W-SW 245 0 min 0,000 mm 0,0 UV-I 31 W/m 7,4 C 13,7 C 16,1 km/h (3 Bft) 92,00 %
20.05.2017 19:52 15,6 C 22,2 C 58 % 1020,5 hPa 0,0 l/m 11,1 km/h (2 Bft) W 261 0 min 0,000 mm 0,0 UV-I 29 W/m 7,4 C 13,3 C 14,5 km/h (3 Bft) 95,45 %
20.05.2017 19:54 15,6 C 22,2 C 59 % 1020,5 hPa 0,0 l/m 8,6 km/h (2 Bft) W 259 0 min 0,000 mm 0,0 UV-I 27 W/m 7,6 C 14,4 C 12,9 km/h (3 Bft) 92,68 %
20.05.2017 19:56 15,6 C 22,2 C 59 % 1020,5 hPa 0,0 l/m 10,2 km/h (2 Bft) W 267 0 min 0,000 mm 0,0 UV-I 26 W/m 7,6 C 13,7 C 16,1 km/h (3 Bft) 97,73 %
20.05.2017 19:58 15,6 C 22,2 C 59 % 1020,6 hPa 0,0 l/m 10,0 km/h (2 Bft) W 261 0 min 0,000 mm 0,0 UV-I 24 W/m 7,6 C 13,8 C 14,5 km/h (3 Bft) 98,21 %
20.05.2017 20:00 15,5 C 22,2 C 59 % 1020,6 hPa 0,0 l/m 8,6 km/h (2 Bft) W 259 0 min 0,077 mm 0,0 UV-I 23 W/m 7,5 C 14,3 C 12,9 km/h (3 Bft) 94,74 %
20.05.2017 20:02 15,5 C 22,2 C 60 % 1020,6 hPa 0,0 l/m 9,5 km/h (2 Bft) W-SW 241 0 min 0,000 mm 0,0 UV-I 21 W/m 7,8 C 13,9 C 14,5 km/h (3 Bft) 96,23 %
20.05.2017 20:04 15,4 C 21,7 C 60 % 1020,6 hPa 0,0 l/m 10,1 km/h (2 Bft) W-SW 253 0 min 0,000 mm 0,0 UV-I 21 W/m 7,7 C 13,5 C 14,5 km/h (3 Bft) 92,68 %
20.05.2017 20:06 15,4 C 21,7 C 59 % 1020,6 hPa 0,0 l/m 7,7 km/h (2 Bft) W 267 0 min 0,000 mm 0,0 UV-I 21 W/m 7,4 C 14,7 C 12,9 km/h (3 Bft) 90,00 %
20.05.2017 20:08 15,4 C 21,7 C 60 % 1020,7 hPa 0,0 l/m 8,8 km/h (2 Bft) W 277 0 min 0,000 mm 0,0 UV-I 19 W/m 7,7 C 14,1 C 12,9 km/h (3 Bft) 91,07 %
20.05.2017 20:10 15,4 C 21,7 C 60 % 1020,7 hPa 0,0 l/m 8,4 km/h (2 Bft) W-SW 244 0 min 0,000 mm 0,0 UV-I 19 W/m 7,7 C 14,3 C 14,5 km/h (3 Bft) 93,18 %
20.05.2017 20:12 15,3 C 21,7 C 60 % 1020,7 hPa 0,0 l/m 8,1 km/h (2 Bft) W-SW 249 0 min 0,000 mm 0,0 UV-I 18 W/m 7,6 C 14,4 C 14,5 km/h (3 Bft) 96,00 %
20.05.2017 20:14 15,3 C 21,7 C 60 % 1020,7 hPa 0,0 l/m 7,9 km/h (2 Bft) W-SW 237 0 min 0,000 mm 0,0 UV-I 17 W/m 7,6 C 14,5 C 12,9 km/h (3 Bft) 93,62 %
20.05.2017 20:16 15,3 C 21,7 C 61 % 1020,7 hPa 0,0 l/m 10,4 km/h (2 Bft) W 263 0 min 0,000 mm 0,0 UV-I 16 W/m 7,8 C 13,3 C 14,5 km/h (3 Bft) 91,49 %
20.05.2017 20:18 15,3 C 21,7 C 61 % 1020,8 hPa 0,0 l/m 7,4 km/h (2 Bft) SW 231 0 min 0,000 mm 0,0 UV-I 16 W/m 7,8 C 14,7 C 11,3 km/h (2 Bft) 97,62 %
20.05.2017 20:20 15,3 C 21,7 C 61 % 1020,8 hPa 0,0 l/m 8,6 km/h (2 Bft) SW 232 0 min 0,000 mm 0,0 UV-I 14 W/m 7,8 C 14,1 C 12,9 km/h (3 Bft) 92,86 %
20.05.2017 20:22 15,2 C 21,7 C 61 % 1020,8 hPa 0,0 l/m 11,3 km/h (2 Bft) SW 236 0 min 0,000 mm 0,0 UV-I 14 W/m 7,7 C 12,8 C 16,1 km/h (3 Bft) 96,23 %
20.05.2017 20:24 15,2 C 21,7 C 61 % 1020,8 hPa 0,0 l/m 7,8 km/h (2 Bft) W-SW 256 0 min 0,000 mm 0,0 UV-I 13 W/m 7,7 C 14,4 C 12,9 km/h (3 Bft) 94,00 %
20.05.2017 20:26 15,2 C 21,7 C 62 % 1020,8 hPa 0,0 l/m 7,6 km/h (2 Bft) W 262 0 min 0,000 mm 0,0 UV-I 12 W/m 8,0 C 14,5 C 11,3 km/h (2 Bft) 95,74 %
20.05.2017 20:28 15,2 C 21,7 C 62 % 1020,9 hPa 0,0 l/m 8,2 km/h (2 Bft) W 281 0 min 0,000 mm 0,0 UV-I 11 W/m 8,0 C 14,2 C 12,9 km/h (3 Bft) 97,87 %
20.05.2017 20:30 15,2 C 21,7 C 62 % 1020,9 hPa 0,0 l/m 9,2 km/h (2 Bft) W-SW 254 0 min 0,000 mm 0,0 UV-I 9 W/m 8,0 C 13,7 C 14,5 km/h (3 Bft) 95,74 %
20.05.2017 20:32 15,1 C 21,7 C 62 % 1020,9 hPa 0,0 l/m 8,1 km/h (2 Bft) W-SW 241 0 min 0,000 mm 0,0 UV-I 7 W/m 7,9 C 14,2 C 12,9 km/h (3 Bft) 95,74 %
20.05.2017 20:34 15,1 C 21,7 C 62 % 1021,0 hPa 0,0 l/m 7,1 km/h (2 Bft) W-SW 249 0 min 0,000 mm 0,0 UV-I 7 W/m 7,9 C 14,7 C 11,3 km/h (2 Bft) 93,10 %
20.05.2017 20:36 15,1 C 21,7 C 62 % 1020,9 hPa 0,0 l/m 9,5 km/h (2 Bft) SW 226 0 min 0,000 mm 0,0 UV-I 7 W/m 7,9 C 13,5 C 16,1 km/h (3 Bft) 98,00 %
20.05.2017 20:38 15,1 C 21,7 C 62 % 1021,0 hPa 0,0 l/m 10,1 km/h (2 Bft) W-SW 244 0 min 0,000 mm 0,0 UV-I 6 W/m 7,9 C 13,2 C 12,9 km/h (3 Bft) 100,00 %
20.05.2017 20:40 15,1 C 21,7 C 62 % 1021,0 hPa 0,0 l/m 6,4 km/h (2 Bft) W-SW 250 0 min 0,000 mm 0,0 UV-I 5 W/m 7,9 C 15,1 C 9,7 km/h (2 Bft) 100,00 %
20.05.2017 20:42 15,1 C 21,7 C 61 % 1021,1 hPa 0,0 l/m 7,4 km/h (2 Bft) W-NW 285 0 min 0,000 mm 0,0 UV-I 5 W/m 7,6 C 14,5 C 14,5 km/h (3 Bft) 100,00 %
20.05.2017 20:44 15,1 C 21,7 C 62 % 1021,1 hPa 0,0 l/m 9,0 km/h (2 Bft) W-SW 241 0 min 0,000 mm 0,0 UV-I 5 W/m 7,9 C 13,7 C 12,9 km/h (3 Bft) 100,00 %
20.05.2017 20:46 15,1 C 21,7 C 62 % 1021,1 hPa 0,0 l/m 7,8 km/h (2 Bft) W-SW 249 0 min 0,000 mm 0,0 UV-I 5 W/m 7,9 C 14,3 C 12,9 km/h (3 Bft) 100,00 %
20.05.2017 20:48 15,1 C 21,7 C 62 % 1021,1 hPa 0,0 l/m 6,9 km/h (2 Bft) W-SW 244 0 min 0,000 mm 0,0 UV-I 5 W/m 7,9 C 14,8 C 11,3 km/h (2 Bft) 100,00 %
20.05.2017 20:50 15,1 C 21,7 C 62 % 1021,2 hPa 0,0 l/m 6,4 km/h (2 Bft) W-SW 252 0 min 0,000 mm 0,0 UV-I 5 W/m 7,9 C 15,1 C 8,0 km/h (2 Bft) 100,00 %
20.05.2017 20:52 15,0 C 21,7 C 63 % 1021,2 hPa 0,0 l/m 7,2 km/h (2 Bft) SW 232 0 min 0,000 mm 0,0 UV-I 2 W/m 8,0 C 14,5 C 9,7 km/h (2 Bft) 100,00 %
20.05.2017 20:54 14,9 C 21,7 C 64 % 1021,3 hPa 0,0 l/m 6,5 km/h (2 Bft) W-SW 241 0 min 0,000 mm 0,0 UV-I 0 W/m 8,2 C 14,9 C 9,7 km/h (2 Bft) 95,12 %
20.05.2017 20:56 14,9 C 21,7 C 65 % 1021,3 hPa 0,0 l/m 6,9 km/h (2 Bft) SW 231 0 min 0,000 mm 0,0 UV-I 0 W/m 8,4 C 14,6 C 8,0 km/h (2 Bft) 98,00 %
20.05.2017 21:00 14,8 C 21,7 C 66 % 1021,3 hPa 0,0 l/m 8,0 km/h (2 Bft) SW 225 0 min 0,051 mm 0,0 UV-I 0 W/m 8,5 C 13,9 C 12,9 km/h (3 Bft) 97,37 %
20.05.2017 21:06 14,7 C 21,7 C 66 % 1021,5 hPa 0,0 l/m 7,0 km/h (2 Bft) W-SW 242 0 min 0,000 mm 0,0 UV-I 0 W/m 8,4 C 14,4 C 12,9 km/h (3 Bft) 100,00 %
20.05.2017 21:08 14,6 C 21,7 C 66 % 1021,5 hPa 0,0 l/m 7,6 km/h (2 Bft) SW 222 0 min 0,000 mm 0,0 UV-I 0 W/m 8,3 C 13,9 C 9,7 km/h (2 Bft) 98,21 %
20.05.2017 21:10 14,6 C 21,7 C 66 % 1021,6 hPa 0,0 l/m 6,9 km/h (2 Bft) SW 233 0 min 0,000 mm 0,0 UV-I 0 W/m 8,3 C 14,3 C 9,7 km/h (2 Bft) 100,00 %
20.05.2017 21:12 14,6 C 21,7 C 67 % 1021,6 hPa 0,0 l/m 6,5 km/h (2 Bft) SW 232 0 min 0,000 mm 0,0 UV-I 0 W/m 8,5 C 14,6 C 8,0 km/h (2 Bft) 97,87 %
20.05.2017 21:14 14,6 C 21,7 C 67 % 1021,6 hPa 0,0 l/m 7,5 km/h (2 Bft) SW 222 0 min 0,000 mm 0,0 UV-I 0 W/m 8,5 C 14,0 C 9,7 km/h (2 Bft) 97,87 %
20.05.2017 21:16 14,5 C 21,7 C 67 % 1021,7 hPa 0,0 l/m 8,4 km/h (2 Bft) SW 236 0 min 0,000 mm 0,0 UV-I 0 W/m 8,4 C 13,4 C 12,9 km/h (3 Bft) 95,56 %
20.05.2017 21:18 14,5 C 21,7 C 67 % 1021,7 hPa 0,0 l/m 7,5 km/h (2 Bft) SW 234 0 min 0,000 mm 0,0 UV-I 0 W/m 8,4 C 13,9 C 9,7 km/h (2 Bft) 100,00 %
20.05.2017 21:20 14,4 C 21,7 C 67 % 1021,7 hPa 0,0 l/m 7,6 km/h (2 Bft) SW 236 0 min 0,000 mm 0,0 UV-I 0 W/m 8,4 C 13,7 C 11,3 km/h (2 Bft) 98,00 %
20.05.2017 21:22 14,4 C 21,7 C 68 % 1021,7 hPa 0,0 l/m 7,1 km/h (2 Bft) SW 229 0 min 0,000 mm 0,0 UV-I 0 W/m 8,6 C 14,0 C 9,7 km/h (2 Bft) 100,00 %
20.05.2017 21:24 14,4 C 21,7 C 68 % 1021,8 hPa 0,0 l/m 8,3 km/h (2 Bft) SW 228 0 min 0,000 mm 0,0 UV-I 0 W/m 8,6 C 13,3 C 11,3 km/h (2 Bft) 94,64 %
20.05.2017 21:26 14,4 C 21,7 C 68 % 1021,8 hPa 0,0 l/m 7,4 km/h (2 Bft) W-SW 241 0 min 0,000 mm 0,0 UV-I 0 W/m 8,6 C 13,8 C 12,9 km/h (3 Bft) 97,37 %
20.05.2017 21:28 14,3 C 21,7 C 68 % 1021,8 hPa 0,0 l/m 8,1 km/h (2 Bft) SW 227 0 min 0,000 mm 0,0 UV-I 0 W/m 8,5 C 13,3 C 12,9 km/h (3 Bft) 98,00 %
20.05.2017 21:30 14,3 C 21,7 C 69 % 1021,8 hPa 0,0 l/m 8,7 km/h (2 Bft) W-SW 244 0 min 0,000 mm 0,0 UV-I 0 W/m 8,7 C 13,0 C 12,9 km/h (3 Bft) 100,00 %
20.05.2017 21:32 14,3 C 21,7 C 69 % 1021,8 hPa 0,0 l/m 8,7 km/h (2 Bft) SW 229 0 min 0,000 mm 0,0 UV-I 0 W/m 8,7 C 13,0 C 12,9 km/h (3 Bft) 100,00 %
20.05.2017 21:34 14,3 C 21,7 C 69 % 1021,8 hPa 0,0 l/m 9,2 km/h (2 Bft) SW 234 0 min 0,000 mm 0,0 UV-I 0 W/m 8,7 C 12,7 C 12,9 km/h (3 Bft) 97,87 %
20.05.2017 21:36 14,3 C 21,7 C 69 % 1021,8 hPa 0,0 l/m 11,0 km/h (2 Bft) W-SW 242 0 min 0,000 mm 0,0 UV-I 0 W/m 8,7 C 11,9 C 17,7 km/h (3 Bft) 95,12 %
20.05.2017 21:38 14,3 C 21,7 C 69 % 1021,9 hPa 0,0 l/m 10,1 km/h (2 Bft) SW 231 0 min 0,000 mm 0,0 UV-I 0 W/m 8,7 C 12,3 C 16,1 km/h (3 Bft) 100,00 %
20.05.2017 21:40 14,3 C 21,7 C 69 % 1021,9 hPa 0,0 l/m 10,3 km/h (2 Bft) SW 221 0 min 0,000 mm 0,0 UV-I 0 W/m 8,7 C 12,2 C 16,1 km/h (3 Bft) 94,74 %
20.05.2017 21:43 14,3 C 21,7 C 68 % 1021,9 hPa 0,0 l/m 10,6 km/h (2 Bft) SW 222 0 min 0,000 mm 0,0 UV-I 0 W/m 8,5 C 12,1 C 16,1 km/h (3 Bft) 97,59 %
20.05.2017 21:44 14,3 C 21,7 C 68 % 1022,0 hPa 0,0 l/m 8,7 km/h (2 Bft) SW 233 0 min 0,000 mm 0,0 UV-I 0 W/m 8,5 C 13,0 C 11,3 km/h (2 Bft) 100,00 %
20.05.2017 21:46 14,3 C 21,7 C 68 % 1022,0 hPa 0,0 l/m 9,8 km/h (2 Bft) W-SW 246 0 min 0,000 mm 0,0 UV-I 0 W/m 8,5 C 12,4 C 16,1 km/h (3 Bft) 97,87 %
20.05.2017 21:48 14,3 C 21,7 C 68 % 1022,0 hPa 0,0 l/m 8,7 km/h (2 Bft) SW 224 0 min 0,000 mm 0,0 UV-I 0 W/m 8,5 C 13,0 C 12,9 km/h (3 Bft) 95,74 %
20.05.2017 21:50 14,3 C 21,7 C 67 % 1022,0 hPa 0,0 l/m 9,3 km/h (2 Bft) SW 226 0 min 0,000 mm 0,0 UV-I 0 W/m 8,3 C 12,7 C 12,9 km/h (3 Bft) 100,00 %
20.05.2017 21:52 14,3 C 21,7 C 67 % 1022,0 hPa 0,0 l/m 8,8 km/h (2 Bft) SW 220 0 min 0,000 mm 0,0 UV-I 0 W/m 8,3 C 12,9 C 12,9 km/h (3 Bft) 97,37 %
20.05.2017 21:54 14,3 C 21,7 C 67 % 1022,0 hPa 0,0 l/m 7,8 km/h (2 Bft) S-SW 211 0 min 0,000 mm 0,0 UV-I 0 W/m 8,3 C 13,5 C 12,9 km/h (3 Bft) 100,00 %
20.05.2017 21:56 14,3 C 21,7 C 67 % 1022,0 hPa 0,0 l/m 7,2 km/h (2 Bft) W-SW 246 0 min 0,000 mm 0,0 UV-I 0 W/m 8,3 C 13,8 C 11,3 km/h (2 Bft) 98,28 %
20.05.2017 21:58 14,3 C 21,7 C 67 % 1022,0 hPa 0,0 l/m 6,9 km/h (2 Bft) W-SW 237 0 min 0,000 mm 0,0 UV-I 0 W/m 8,3 C 14,0 C 9,7 km/h (2 Bft) 97,87 %
20.05.2017 22:00 14,3 C 21,7 C 67 % 1022,0 hPa 0,0 l/m 8,2 km/h (2 Bft) W-SW 246 0 min 0,000 mm 0,0 UV-I 0 W/m 8,3 C 13,3 C 14,5 km/h (3 Bft) 97,22 %
20.05.2017 22:03 14,3 C 21,7 C 67 % 1022,1 hPa 0,0 l/m 6,5 km/h (2 Bft) W-SW 240 0 min 0,050 mm 0,0 UV-I 0 W/m 8,3 C 14,3 C 9,7 km/h (2 Bft) 93,67 %
20.05.2017 22:04 14,3 C 21,7 C 67 % 1022,1 hPa 0,0 l/m 6,4 km/h (2 Bft) W-SW 250 0 min 0,000 mm 0,0 UV-I 0 W/m 8,3 C 14,3 C 11,3 km/h (2 Bft) 100,00 %
20.05.2017 22:06 14,3 C 21,7 C 67 % 1022,1 hPa 0,0 l/m 7,2 km/h (2 Bft) W-SW 238 0 min 0,000 mm 0,0 UV-I 0 W/m 8,3 C 13,8 C 11,3 km/h (2 Bft) 96,00 %
20.05.2017 22:08 14,3 C 21,7 C 66 % 1022,2 hPa 0,0 l/m 9,1 km/h (2 Bft) SW 227 0 min 0,000 mm 0,0 UV-I 0 W/m 8,0 C 12,8 C 14,5 km/h (3 Bft) 92,68 %
20.05.2017 22:10 14,3 C 21,7 C 67 % 1022,2 hPa 0,0 l/m 8,5 km/h (2 Bft) SW 220 0 min 0,000 mm 0,0 UV-I 0 W/m 8,3 C 13,1 C 12,9 km/h (3 Bft) 97,73 %
20.05.2017 22:12 14,3 C 21,7 C 66 % 1022,2 hPa 0,0 l/m 9,2 km/h (2 Bft) SW 227 0 min 0,000 mm 0,0 UV-I 0 W/m 8,0 C 12,7 C 12,9 km/h (3 Bft) 93,62 %
20.05.2017 22:14 14,3 C 21,7 C 66 % 1022,2 hPa 0,0 l/m 8,9 km/h (2 Bft) SW 234 0 min 0,000 mm 0,0 UV-I 0 W/m 8,0 C 12,9 C 12,9 km/h (3 Bft) 94,00 %
20.05.2017 22:16 14,3 C 21,7 C 67 % 1022,2 hPa 0,0 l/m 10,0 km/h (2 Bft) W-SW 242 0 min 0,000 mm 0,0 UV-I 0 W/m 8,3 C 12,3 C 16,1 km/h (3 Bft) 96,00 %
20.05.2017 22:18 14,3 C 21,7 C 66 % 1022,2 hPa 0,0 l/m 8,5 km/h (2 Bft) W 259 0 min 0,000 mm 0,0 UV-I 0 W/m 8,0 C 13,1 C 12,9 km/h (3 Bft) 95,45 %
20.05.2017 22:20 14,3 C 21,7 C 66 % 1022,2 hPa 0,0 l/m 9,0 km/h (2 Bft) SW 233 0 min 0,000 mm 0,0 UV-I 0 W/m 8,0 C 12,8 C 12,9 km/h (3 Bft) 94,74 %
20.05.2017 22:22 14,3 C 21,7 C 67 % 1022,2 hPa 0,0 l/m 8,8 km/h (2 Bft) SW 226 0 min 0,000 mm 0,0 UV-I 0 W/m 8,3 C 12,9 C 11,3 km/h (2 Bft) 92,45 %
20.05.2017 22:24 14,2 C 21,7 C 67 % 1022,2 hPa 0,0 l/m 7,3 km/h (2 Bft) W-SW 242 0 min 0,000 mm 0,0 UV-I 0 W/m 8,2 C 13,7 C 11,3 km/h (2 Bft) 95,45 %
20.05.2017 22:26 14,2 C 21,7 C 66 % 1022,3 hPa 0,0 l/m 8,5 km/h (2 Bft) W-SW 242 0 min 0,000 mm 0,0 UV-I 0 W/m 7,9 C 13,0 C 12,9 km/h (3 Bft) 95,74 %
20.05.2017 22:28 14,2 C 21,7 C 67 % 1022,3 hPa 0,0 l/m 6,7 km/h (2 Bft) SW 230 0 min 0,000 mm 0,0 UV-I 0 W/m 8,2 C 14,0 C 9,7 km/h (2 Bft) 94,44 %
20.05.2017 22:30 14,2 C 21,7 C 67 % 1022,3 hPa 0,0 l/m 10,0 km/h (2 Bft) SW 230 0 min 0,000 mm 0,0 UV-I 0 W/m 8,2 C 12,2 C 16,1 km/h (3 Bft) 96,55 %
20.05.2017 22:32 14,2 C 21,7 C 67 % 1022,2 hPa 0,0 l/m 9,9 km/h (2 Bft) W-SW 246 0 min 0,000 mm 0,0 UV-I 0 W/m 8,2 C 12,3 C 17,7 km/h (3 Bft) 96,23 %
20.05.2017 22:34 14,2 C 21,7 C 67 % 1022,2 hPa 0,0 l/m 7,8 km/h (2 Bft) SW 215 0 min 0,000 mm 0,0 UV-I 0 W/m 8,2 C 13,4 C 11,3 km/h (2 Bft) 97,87 %
20.05.2017 22:36 14,2 C 21,7 C 67 % 1022,2 hPa 0,0 l/m 8,7 km/h (2 Bft) W-SW 248 0 min 0,000 mm 0,0 UV-I 0 W/m 8,2 C 12,9 C 12,9 km/h (3 Bft) 97,44 %
20.05.2017 22:38 14,2 C 21,7 C 66 % 1022,3 hPa 0,0 l/m 11,2 km/h (2 Bft) W 259 0 min 0,000 mm 0,0 UV-I 0 W/m 7,9 C 11,7 C 16,1 km/h (3 Bft) 98,21 %
20.05.2017 22:40 14,2 C 21,7 C 66 % 1022,3 hPa 0,0 l/m 8,0 km/h (2 Bft) SW 228 0 min 0,000 mm 0,0 UV-I 0 W/m 7,9 C 13,3 C 11,3 km/h (2 Bft) 100,00 %
20.05.2017 22:42 14,2 C 21,7 C 66 % 1022,3 hPa 0,0 l/m 8,9 km/h (2 Bft) SW 217 0 min 0,000 mm 0,0 UV-I 0 W/m 7,9 C 12,8 C 17,7 km/h (3 Bft) 93,10 %
20.05.2017 22:44 14,2 C 21,7 C 66 % 1022,3 hPa 0,0 l/m 8,3 km/h (2 Bft) W-SW 253 0 min 0,000 mm 0,0 UV-I 0 W/m 7,9 C 13,1 C 12,9 km/h (3 Bft) 100,00 %
20.05.2017 22:46 14,2 C 21,7 C 66 % 1022,3 hPa 0,0 l/m 8,3 km/h (2 Bft) SW 230 0 min 0,000 mm 0,0 UV-I 0 W/m 7,9 C 13,1 C 12,9 km/h (3 Bft) 93,62 %
20.05.2017 22:48 14,2 C 21,7 C 66 % 1022,3 hPa 0,0 l/m 8,3 km/h (2 Bft) W-SW 247 0 min 0,000 mm 0,0 UV-I 0 W/m 7,9 C 13,1 C 11,3 km/h (2 Bft) 97,56 %
20.05.2017 22:50 14,3 C 21,7 C 65 % 1022,3 hPa 0,0 l/m 9,3 km/h (2 Bft) SW 233 0 min 0,000 mm 0,0 UV-I 0 W/m 7,8 C 12,7 C 14,5 km/h (3 Bft) 100,00 %
20.05.2017 22:52 14,3 C 21,7 C 65 % 1022,3 hPa 0,0 l/m 10,2 km/h (2 Bft) W-SW 241 0 min 0,000 mm 0,0 UV-I 0 W/m 7,8 C 12,3 C 14,5 km/h (3 Bft) 98,21 %
20.05.2017 22:54 14,3 C 21,7 C 66 % 1022,3 hPa 0,0 l/m 10,5 km/h (2 Bft) SW 228 0 min 0,000 mm 0,0 UV-I 0 W/m 8,0 C 12,1 C 16,1 km/h (3 Bft) 96,23 %
20.05.2017 22:56 14,3 C 21,7 C 66 % 1022,3 hPa 0,0 l/m 8,2 km/h (2 Bft) W-SW 258 0 min 0,000 mm 0,0 UV-I 0 W/m 8,0 C 13,3 C 12,9 km/h (3 Bft) 91,49 %
20.05.2017 22:58 14,2 C 21,7 C 66 % 1022,3 hPa 0,0 l/m 9,7 km/h (2 Bft) W 261 0 min 0,000 mm 0,0 UV-I 0 W/m 7,9 C 12,4 C 14,5 km/h (3 Bft) 97,14 %
20.05.2017 23:00 14,2 C 21,7 C 66 % 1022,3 hPa 0,0 l/m 9,1 km/h (2 Bft) W 263 0 min 0,051 mm 0,0 UV-I 0 W/m 7,9 C 12,7 C 12,9 km/h (3 Bft) 96,00 %
20.05.2017 23:02 14,2 C 21,7 C 66 % 1022,2 hPa 0,0 l/m 9,7 km/h (2 Bft) W-SW 250 0 min 0,000 mm 0,0 UV-I 0 W/m 7,9 C 12,4 C 14,5 km/h (3 Bft) 97,87 %
20.05.2017 23:04 14,2 C 21,7 C 66 % 1022,3 hPa 0,0 l/m 9,6 km/h (2 Bft) W-SW 250 0 min 0,000 mm 0,0 UV-I 0 W/m 7,9 C 12,4 C 14,5 km/h (3 Bft) 100,00 %
20.05.2017 23:06 14,1 C 21,7 C 67 % 1022,2 hPa 0,0 l/m 7,0 km/h (2 Bft) W-SW 239 0 min 0,000 mm 0,0 UV-I 0 W/m 8,1 C 13,7 C 11,3 km/h (2 Bft) 95,45 %
20.05.2017 23:08 14,1 C 21,7 C 67 % 1022,2 hPa 0,0 l/m 7,2 km/h (2 Bft) W-SW 244 0 min 0,000 mm 0,0 UV-I 0 W/m 8,1 C 13,6 C 9,7 km/h (2 Bft) 94,74 %
20.05.2017 23:10 14,1 C 21,7 C 68 % 1022,2 hPa 0,0 l/m 7,4 km/h (2 Bft) W-SW 247 0 min 0,000 mm 0,0 UV-I 0 W/m 8,3 C 13,5 C 12,9 km/h (3 Bft) 94,00 %
20.05.2017 23:12 14,1 C 21,7 C 68 % 1022,2 hPa 0,0 l/m 7,6 km/h (2 Bft) W-SW 243 0 min 0,000 mm 0,0 UV-I 0 W/m 8,3 C 13,4 C 11,3 km/h (2 Bft) 97,44 %
20.05.2017 23:14 14,0 C 21,7 C 68 % 1022,2 hPa 0,0 l/m 8,4 km/h (2 Bft) W-SW 255 0 min 0,000 mm 0,0 UV-I 0 W/m 8,2 C 12,8 C 12,9 km/h (3 Bft) 94,34 %
20.05.2017 23:16 13,9 C 21,7 C 69 % 1022,2 hPa 0,0 l/m 7,3 km/h (2 Bft) W-SW 253 0 min 0,000 mm 0,0 UV-I 0 W/m 8,3 C 13,4 C 12,9 km/h (3 Bft) 94,23 %
20.05.2017 23:18 13,9 C 21,7 C 68 % 1022,2 hPa 0,0 l/m 6,6 km/h (2 Bft) W-SW 245 0 min 0,000 mm 0,0 UV-I 0 W/m 8,1 C 13,8 C 11,3 km/h (2 Bft) 95,24 %
20.05.2017 23:20 13,9 C 21,7 C 69 % 1022,2 hPa 0,0 l/m 6,6 km/h (2 Bft) W-SW 257 0 min 0,000 mm 0,0 UV-I 0 W/m 8,3 C 13,8 C 9,7 km/h (2 Bft) 94,74 %
20.05.2017 23:22 13,9 C 21,7 C 69 % 1022,2 hPa 0,0 l/m 6,0 km/h (2 Bft) W-SW 240 0 min 0,000 mm 0,0 UV-I 0 W/m 8,3 C 13,9 C 8,0 km/h (2 Bft) 98,21 %
20.05.2017 23:24 13,8 C 21,7 C 70 % 1022,2 hPa 0,0 l/m 6,5 km/h (2 Bft) SW 221 0 min 0,000 mm 0,0 UV-I 0 W/m 8,4 C 13,8 C 9,7 km/h (2 Bft) 94,34 %
20.05.2017 23:26 13,8 C 21,7 C 70 % 1022,2 hPa 0,0 l/m 6,3 km/h (2 Bft) W-SW 252 0 min 0,000 mm 0,0 UV-I 0 W/m 8,4 C 13,8 C 9,7 km/h (2 Bft) 95,74 %
20.05.2017 23:28 13,8 C 21,1 C 70 % 1022,2 hPa 0,0 l/m 7,0 km/h (2 Bft) W-NW 284 0 min 0,000 mm 0,0 UV-I 0 W/m 8,4 C 13,4 C 12,9 km/h (3 Bft) 95,74 %
20.05.2017 23:30 13,8 C 21,7 C 70 % 1022,2 hPa 0,0 l/m 7,4 km/h (2 Bft) W-SW 258 0 min 0,000 mm 0,0 UV-I 0 W/m 8,4 C 13,2 C 12,9 km/h (3 Bft) 94,74 %
20.05.2017 23:32 13,8 C 21,7 C 70 % 1022,2 hPa 0,0 l/m 8,9 km/h (2 Bft) W-SW 239 0 min 0,000 mm 0,0 UV-I 0 W/m 8,4 C 12,3 C 14,5 km/h (3 Bft) 98,21 %
20.05.2017 23:34 13,8 C 21,7 C 70 % 1022,2 hPa 0,0 l/m 8,3 km/h (2 Bft) W-SW 249 0 min 0,000 mm 0,0 UV-I 0 W/m 8,4 C 12,7 C 12,9 km/h (3 Bft) 95,12 %
20.05.2017 23:36 13,8 C 21,1 C 70 % 1022,3 hPa 0,0 l/m 8,5 km/h (2 Bft) W-SW 244 0 min 0,000 mm 0,0 UV-I 0 W/m 8,4 C 12,6 C 12,9 km/h (3 Bft) 94,34 %
20.05.2017 23:38 13,8 C 21,1 C 69 % 1022,3 hPa 0,0 l/m 8,7 km/h (2 Bft) W-SW 242 0 min 0,000 mm 0,0 UV-I 0 W/m 8,2 C 12,5 C 14,5 km/h (3 Bft) 97,37 %
20.05.2017 23:40 13,8 C 21,1 C 69 % 1022,3 hPa 0,0 l/m 8,9 km/h (2 Bft) SW 232 0 min 0,000 mm 0,0 UV-I 0 W/m 8,2 C 12,3 C 16,1 km/h (3 Bft) 95,74 %
20.05.2017 23:42 13,9 C 21,1 C 68 % 1022,3 hPa 0,0 l/m 8,4 km/h (2 Bft) W-SW 252 0 min 0,000 mm 0,0 UV-I 0 W/m 8,1 C 12,7 C 12,9 km/h (3 Bft) 98,00 %
20.05.2017 23:44 13,9 C 21,1 C 69 % 1022,3 hPa 0,0 l/m 7,8 km/h (2 Bft) W-SW 251 0 min 0,000 mm 0,0 UV-I 0 W/m 8,3 C 13,1 C 12,9 km/h (3 Bft) 96,00 %
20.05.2017 23:46 13,9 C 21,1 C 68 % 1022,4 hPa 0,0 l/m 7,3 km/h (2 Bft) W-SW 246 0 min 0,000 mm 0,0 UV-I 0 W/m 8,1 C 13,4 C 11,3 km/h (2 Bft) 95,45 %
20.05.2017 23:48 13,9 C 21,1 C 69 % 1022,4 hPa 0,0 l/m 9,1 km/h (2 Bft) W 266 0 min 0,000 mm 0,0 UV-I 0 W/m 8,3 C 12,4 C 11,3 km/h (2 Bft) 100,00 %
20.05.2017 23:50 13,9 C 21,1 C 69 % 1022,4 hPa 0,0 l/m 7,3 km/h (2 Bft) W-SW 254 0 min 0,000 mm 0,0 UV-I 0 W/m 8,3 C 13,4 C 11,3 km/h (2 Bft) 94,74 %
20.05.2017 23:52 13,9 C 21,1 C 68 % 1022,5 hPa 0,0 l/m 7,1 km/h (2 Bft) W 271 0 min 0,000 mm 0,0 UV-I 0 W/m 8,1 C 13,5 C 12,9 km/h (3 Bft) 94,64 %
20.05.2017 23:54 13,9 C 21,1 C 68 % 1022,5 hPa 0,0 l/m 7,8 km/h (2 Bft) W-SW 253 0 min 0,000 mm 0,0 UV-I 0 W/m 8,1 C 13,1 C 12,9 km/h (3 Bft) 92,59 %
20.05.2017 23:56 13,9 C 21,1 C 68 % 1022,6 hPa 0,0 l/m 6,9 km/h (2 Bft) W 274 0 min 0,000 mm 0,0 UV-I 0 W/m 8,1 C 13,6 C 11,3 km/h (2 Bft) 91,04 %
20.05.2017 23:58 13,9 C 21,1 C 69 % 1022,7 hPa 0,0 l/m 5,1 km/h (1 Bft) W 260 0 min 0,000 mm 0,0 UV-I 0 W/m 8,3 C 13,9 C 6,4 km/h (2 Bft) 97,22 %
_ Min-Zeit 06:16 23:28 18:04 00:01 - 11:28 - - - - - - 17:06 00:56 11:28 00:04
Minimum _ 9,8 C 21,1 C 52 % 1015,7 hPa - 1,9 km/h (1 Bft) - - - - - - 6,2 C 3,5 C 4,8 km/h (1 Bft) 9,09 %
_ Max-Zeit 16:14 00:01 00:01 23:58 00:01 00:56 - - 05:32 15:00 12:56 14:28 00:01 18:02 00:50 00:01
Maximum _ 16,6 C 23,3 C 84 % 1022,7 hPa 0,0 l/m 26,7 km/h
W (4 Bft)
- - 2 min 0,432 mm 5,9 UV-I 1027 W/m 9,3 C 16,0 C 38,6 km/h
W (5 Bft)
100,00 %
Durchschnitt _ 13,4 C 22,0 C 68 % 1019,2 hPa #0,0 l/m 12,0 km/h (2 Bft) W-SW - #7:16 h #3,683 mm 2,2 UV-I 306 W/m 7,5 C 10,6 C 19,0 km/h (3 Bft) 96,29 %